GFSSE_250_spd_000.txt.gz
Wind_Speed
51 51 48 46 38 36 35 33 30 31 34 35 35 33 33 35 36 37 38 38 39 41 42 45 47 49 51 54 56 58 59 62 64 64 65 66 66 65 65 63 63 64 66
55 53 51 48 47 46 45 45 40 35 36 39 39 39 37 37 38 35 38 41 41 43 45 46 49 49 53 52 53 56 60 62 61 63 64 66 67 67 70 70 71 71 71
59 57 53 52 51 50 49 49 44 40 38 41 44 43 38 42 40 36 37 42 45 47 48 50 50 50 56 59 61 61 63 64 67 66 66 65 67 66 68 69 68 70 69
60 60 58 53 52 51 51 51 47 44 43 43 45 45 39 39 41 41 45 47 48 46 49 51 52 56 59 63 67 71 70 70 67 69 71 67 66 68 70 68 71 68 68
64 63 62 58 56 54 53 51 50 48 46 45 47 50 41 44 44 48 50 50 48 49 50 50 54 59 64 64 73 67 67 66 67 67 66 66 67 67 65 64 67 66 66
67 67 65 64 60 59 56 55 53 51 49 46 49 50 48 51 51 53 51 51 49 51 53 53 60 64 64 71 75 70 70 69 69 65 65 61 60 60 61 63 62 62 60
72 70 67 64 62 62 61 58 56 54 52 50 51 52 52 55 53 52 48 49 52 54 56 63 68 71 75 76 73 70 72 70 62 59 59 57 53 53 54 55 58 60 59
74 73 72 69 66 65 63 62 59 57 56 54 52 53 53 57 57 56 47 50 55 59 64 69 73 76 76 72 69 73 72 63 58 55 53 51 50 49 51 52 53 55 57
75 74 72 70 70 69 68 66 64 61 59 59 58 59 58 61 60 57 51 53 58 60 67 71 75 73 68 67 72 74 64 58 53 49 47 45 47 47 49 51 53 56 57
72 73 74 73 70 72 71 71 68 66 63 64 63 62 64 56 54 53 56 56 61 64 68 70 73 70 68 71 72 66 56 50 48 45 45 47 48 50 50 52 54 54 55
79 75 74 74 72 70 67 69 71 72 70 63 61 54 53 54 57 57 57 62 67 72 71 72 71 68 68 70 66 55 49 44 44 46 48 48 48 48 49 50 51 52 53
80 79 78 77 73 74 69 67 64 62 64 69 69 67 63 65 66 62 64 68 70 72 73 71 73 72 68 66 58 46 44 44 45 45 44 43 44 46 46 47 48 49 51
73 78 79 76 76 72 74 76 74 71 66 62 64 65 66 64 65 67 67 70 70 71 72 71 72 69 66 58 45 45 42 43 44 45 44 43 43 44 44 45 46 48 50
76 74 76 77 77 76 74 74 74 72 70 68 65 64 66 67 69 67 69 69 71 71 72 68 67 65 59 47 43 39 39 41 41 43 44 45 46 46 46 45 46 47 49
75 77 75 74 74 75 75 75 73 72 71 70 69 69 69 70 68 71 69 71 72 70 66 71 65 61 46 41 41 43 44 46 46 47 46 45 45 46 48 50 51 51 49
69 70 71 71 72 73 73 74 75 72 69 70 69 68 69 69 69 69 68 67 69 65 64 62 60 47 41 38 40 43 45 48 48 49 49 50 52 54 56 56 57 57 56
66 62 64 68 66 68 72 73 69 69 68 69 68 69 69 66 63 65 68 66 66 61 59 57 50 42 42 42 43 45 47 48 48 50 51 53 53 54 56 58 59 61 62
66 64 61 61 63 65 68 68 70 68 66 64 62 64 65 61 64 68 68 67 63 56 54 53 46 45 43 43 44 44 45 46 47 48 50 52 54 56 58 60 61 62 64
68 64 61 59 58 58 59 60 60 66 65 64 63 62 63 65 68 70 67 63 56 53 49 47 46 43 41 43 45 45 47 48 49 51 53 55 57 59 61 63 66 68 70
72 66 61 60 61 59 56 53 52 54 59 63 67 69 69 68 68 67 57 53 50 49 43 43 42 40 44 47 48 48 50 53 53 55 57 61 62 65 68 70 72 74 77
74 69 63 60 60 54 50 51 52 55 59 58 59 62 62 64 58 56 52 49 48 43 41 42 42 44 48 50 51 52 53 56 60 63 67 70 71 75 78 80 82 84 85
72 70 65 62 58 51 48 47 45 46 48 50 52 51 51 51 50 50 49 46 43 41 43 45 46 49 51 53 55 56 59 61 62 67 72 77 79 82 85 89 90 92 93
70 69 67 63 59 49 48 45 44 45 47 45 44 47 47 46 46 46 44 40 41 42 44 48 49 52 53 55 57 57 59 64 69 80 85 87 87 91 96 98 99 99 99
71 68 67 64 60 52 48 45 44 46 46 44 44 44 44 42 41 41 40 41 43 45 49 51 53 55 58 61 63 64 67 68 72 76 89 97 101 104 107 108 104 101 97
67 68 66 62 60 53 49 47 44 44 44 43 42 41 39 39 41 40 41 43 47 50 53 55 58 61 63 65 68 72 75 78 81 80 81 92 100 107 107 100 95 93 94
63 65 66 65 62 54 50 46 44 44 44 42 41 39 40 42 42 43 44 47 51 54 57 60 63 66 69 72 76 77 81 85 92 94 94 97 98 103 98 96 97 98 99

GFSSE_250_spd_003.txt.gz
Wind_Speed
50 49 50 48 47 45 43 40 38 36 33 28 29 32 32 32 31 34 34 35 37 39 40 41 42 44 43 44 46 48 50 53 53 57 62 63 61 63 64 61 59 61 63
57 52 51 52 50 49 48 45 42 42 42 41 35 36 36 36 36 36 37 39 35 37 38 41 44 45 47 49 51 51 53 58 59 62 67 60 60 61 59 63 64 64 64
60 60 55 53 53 54 52 49 48 47 47 45 41 37 39 40 41 41 38 37 38 42 43 45 49 51 50 52 53 56 58 59 64 67 66 62 63 63 64 64 63 66 66
63 63 61 57 56 56 56 53 52 51 49 47 44 42 42 42 42 45 40 40 43 45 49 51 50 51 50 54 56 59 63 66 70 70 66 65 65 65 65 63 63 63 66
67 65 64 61 60 59 59 59 55 53 52 50 48 45 45 45 45 46 46 45 48 49 53 51 48 51 53 57 61 61 66 71 70 64 65 67 69 65 60 59 59 60 61
70 68 67 65 63 63 61 60 60 57 54 52 50 48 48 46 48 49 49 48 51 54 57 51 53 53 57 58 61 64 69 69 67 64 67 68 64 58 54 55 54 53 54
73 73 71 69 66 66 64 64 62 61 59 58 57 55 52 49 48 50 52 49 52 55 55 58 50 57 57 59 66 66 67 68 64 66 67 64 57 53 51 47 47 48 48
72 74 76 73 71 70 68 66 65 65 63 63 61 60 56 54 52 51 52 54 55 58 60 60 57 55 60 66 71 70 67 71 68 67 64 54 50 46 44 41 42 44 44
82 65 65 78 73 74 72 70 68 66 66 66 64 63 61 56 55 54 57 57 60 55 50 55 56 59 65 69 67 70 70 70 68 64 51 45 43 42 43 43 44 45 45
79 78 72 62 64 78 73 72 71 70 70 69 68 67 65 64 60 61 58 54 52 54 56 59 63 64 67 70 69 65 66 68 65 56 46 43 43 44 44 42 41 42 44
76 80 80 75 74 63 67 73 72 71 70 70 71 70 69 69 68 66 63 64 58 60 64 64 64 65 68 70 70 69 69 66 57 48 45 43 42 40 42 42 42 41 41
72 75 80 79 79 76 73 68 67 67 66 66 66 67 68 67 64 63 64 68 67 67 63 66 66 69 68 68 66 66 66 64 49 42 39 39 39 39 40 42 42 42 41
67 72 72 75 79 78 76 75 72 69 69 71 69 67 65 62 63 64 63 61 62 63 64 66 69 68 63 66 64 62 64 56 43 39 39 39 39 38 39 39 39 38 40
65 66 71 74 76 78 75 77 77 76 75 76 74 71 72 71 72 69 69 68 69 68 67 68 66 65 63 64 62 59 60 45 42 41 41 41 40 40 40 41 42 43 44
68 64 63 67 73 72 71 74 76 78 79 77 75 74 73 71 69 68 69 68 68 68 69 68 63 63 64 63 58 57 50 41 39 38 40 40 40 41 41 42 44 44 46
71 69 63 62 63 67 70 72 72 73 74 75 76 75 74 71 71 68 68 69 69 68 66 64 64 64 67 58 55 51 44 42 40 40 40 41 41 42 43 44 45 47 48
74 71 67 62 61 59 61 65 69 71 72 75 75 73 69 67 63 64 65 66 66 64 61 62 63 65 62 56 53 49 44 42 40 42 43 43 44 45 46 47 48 50 51
75 74 69 65 62 60 60 57 57 57 62 66 68 68 68 63 64 61 61 61 60 60 62 65 65 61 56 53 50 45 41 40 42 46 46 46 47 48 50 52 54 57 59
74 74 70 67 65 61 60 58 48 50 53 58 59 61 66 66 64 62 63 60 61 63 66 65 63 56 54 52 48 43 44 44 48 49 50 51 51 53 55 57 60 63 66
73 74 71 69 67 64 62 58 55 51 51 52 53 52 51 53 57 60 64 64 65 69 66 62 56 53 50 47 46 46 47 48 53 55 56 57 57 59 60 62 65 69 73
70 72 71 70 68 65 64 60 53 49 51 50 50 50 50 52 54 56 57 59 61 60 57 55 52 51 49 47 50 48 51 52 57 59 60 62 64 66 68 72 75 79 82
69 69 70 70 68 66 64 60 56 50 51 48 46 46 45 47 51 54 55 56 55 52 53 51 49 48 47 48 51 53 56 56 60 64 67 69 71 75 78 80 84 88 90
68 69 67 67 68 66 61 59 57 54 52 49 46 45 45 47 49 50 49 49 50 52 49 48 48 47 49 52 55 56 59 62 65 71 75 76 79 83 86 87 91 94 97
70 68 65 63 65 66 63 58 61 57 53 48 46 46 46 47 49 48 46 49 49 48 47 47 47 49 53 54 58 61 64 66 68 71 80 86 88 91 95 98 102 105 108
68 68 67 62 63 63 66 62 58 56 53 50 47 47 47 45 45 44 45 46 46 46 46 48 50 53 55 60 63 68 71 73 74 74 78 87 90 96 100 104 107 111 115
60 63 65 63 60 62 65 66 62 57 52 49 49 48 47 45 45 44 46 46 48 49 50 53 55 57 61 65 69 73 77 79 82 83 83 83 88 94 103 107 114 118 121

GFSSE_250_spd_006.txt.gz
Wind_Speed
48 46 45 43 43 44 45 46 42 42 40 38 36 36 34 31 32 30 31 32 31 32 34 37 36 36 38 41 43 45 47 47 49 52 53 55 59 63 64 64 59 56 59
54 52 51 49 47 47 48 48 46 46 46 44 43 40 40 37 37 37 37 37 37 38 37 37 38 41 43 43 48 49 47 49 53 54 59 60 65 66 62 58 58 59 61
60 59 55 55 52 51 50 51 49 48 48 46 46 45 44 44 42 42 39 39 40 42 39 40 39 42 46 48 48 49 51 54 56 57 60 62 67 62 60 59 63 63 64
64 64 63 59 58 57 55 54 54 55 52 48 47 49 49 46 45 43 42 43 43 46 44 45 44 47 49 51 51 53 56 58 60 57 66 69 66 64 63 66 68 63 60
67 68 67 66 62 62 60 59 58 57 57 55 51 52 52 51 49 46 46 45 48 48 49 48 51 50 53 53 54 57 60 56 59 63 68 67 69 67 69 71 65 61 55
71 71 73 70 67 66 65 63 62 62 61 61 58 55 54 52 51 49 47 46 48 49 51 52 51 52 55 57 60 61 55 57 61 67 68 70 67 70 70 67 57 53 49
75 74 75 75 72 71 69 67 65 64 64 63 63 60 57 56 55 54 53 53 52 52 54 53 54 56 59 60 53 52 56 62 65 67 68 69 70 67 67 57 48 45 42
80 77 77 77 74 74 74 72 70 68 66 65 64 64 61 60 59 59 60 58 57 57 56 57 58 59 58 54 55 59 62 64 68 72 71 67 70 65 58 48 43 41 41
78 82 81 80 80 75 71 77 75 72 70 68 67 65 65 65 64 64 64 62 61 60 59 61 58 58 54 57 61 62 64 66 70 67 63 66 64 61 50 43 44 44 45
74 78 81 81 81 80 77 60 71 79 75 73 70 68 69 68 67 67 65 66 65 64 66 66 62 65 63 65 66 66 67 67 65 64 64 67 65 57 44 39 38 39 40
67 68 73 79 81 84 84 76 59 70 80 75 74 74 73 71 69 69 70 69 68 67 67 67 65 67 69 67 64 64 68 67 63 68 66 64 59 47 39 39 37 34 34
64 63 63 67 76 80 86 84 74 65 59 63 68 77 77 71 69 68 64 64 66 68 68 65 63 64 62 64 69 69 68 65 65 64 63 63 53 45 45 43 39 37 35
66 64 63 64 66 72 78 80 85 80 75 71 68 65 64 65 66 65 64 65 64 64 65 68 69 69 68 70 71 69 67 63 64 62 60 55 47 45 45 44 42 39 39
70 68 65 61 60 64 67 69 80 84 81 80 77 76 72 70 69 70 71 73 73 70 72 71 69 68 70 69 69 68 65 64 64 59 55 52 47 43 41 39 38 37 37
72 72 69 63 61 60 63 67 72 80 83 82 81 79 79 79 80 78 77 76 77 76 76 72 70 71 67 68 69 67 63 64 64 57 54 50 46 39 38 39 39 39 40
69 72 71 68 64 61 60 63 65 70 75 77 80 81 78 79 81 81 80 78 78 78 78 75 72 70 68 63 63 64 66 66 62 55 53 47 43 39 41 42 41 42 42
64 67 70 71 69 66 62 61 62 62 66 72 75 74 75 75 74 75 74 74 73 71 72 71 68 68 64 60 62 65 67 66 60 54 50 44 44 44 46 46 47 48 48
61 64 65 70 71 69 67 65 62 59 58 59 62 66 67 69 70 71 70 69 70 69 68 65 65 64 62 63 64 67 67 64 57 54 49 47 48 49 50 52 53 54 55
59 61 63 66 68 69 69 67 64 62 58 55 54 52 50 52 53 53 55 57 60 62 65 65 66 66 66 66 65 66 62 58 56 51 51 52 53 54 55 57 58 59 60
61 62 63 63 65 66 68 67 63 60 58 56 53 53 53 51 48 50 52 54 53 55 60 62 64 65 67 67 64 62 58 57 54 53 55 56 56 58 59 60 63 66 68
60 62 64 62 63 63 66 67 66 61 60 58 58 57 53 51 50 47 49 53 53 55 57 60 61 63 62 62 60 59 57 55 54 56 57 61 61 63 63 66 68 70 73
62 63 63 64 61 61 62 64 64 60 59 59 60 60 55 51 49 49 52 51 50 51 53 55 55 56 58 59 60 57 56 54 56 59 62 64 66 68 70 72 75 76 77
59 64 64 64 61 60 61 59 63 63 63 63 61 58 57 55 51 52 53 51 51 52 51 52 54 57 58 58 58 56 55 57 59 63 66 69 70 73 76 78 80 82 84
59 61 61 62 63 62 60 60 60 65 66 65 62 59 57 54 54 53 53 53 51 51 52 53 55 55 53 53 55 56 57 60 62 66 73 74 77 81 84 85 88 91 93
57 57 59 58 62 65 64 60 58 61 65 66 63 62 60 58 57 57 56 55 52 51 50 51 51 51 51 53 56 58 61 64 67 69 74 81 82 86 89 93 98 102 103
54 56 57 55 59 64 68 64 58 59 63 64 64 62 62 60 59 58 57 57 55 52 52 51 52 55 57 59 61 64 66 70 73 74 76 81 84 91 95 100 104 108 110

GFSSE_250_spd_009.txt.gz
Wind_Speed
48 45 43 42 41 42 40 39 43 41 40 39 40 39 37 35 36 38 37 35 34 34 33 34 34 35 37 38 39 40 41 43 44 46 45 49 54 55 58 58 62 62 61
51 50 49 50 48 47 45 44 44 44 46 45 44 45 45 44 41 40 41 40 39 41 41 40 38 41 40 39 40 42 44 43 46 48 50 55 57 58 57 63 63 66 64
55 55 55 53 54 53 51 50 48 48 48 49 48 47 48 48 50 47 46 47 47 46 47 46 42 44 45 42 44 46 48 49 51 51 55 56 57 57 62 63 67 68 68
60 59 58 58 59 60 58 57 54 54 52 52 52 51 52 52 49 48 49 49 48 48 46 46 46 45 49 48 49 52 53 54 55 57 59 57 56 58 63 67 70 69 71
64 65 64 64 63 63 63 62 60 59 58 57 56 56 55 55 53 53 54 51 50 49 50 50 50 50 52 53 53 53 54 56 57 58 57 54 58 63 67 70 69 66 66
70 71 71 69 68 66 68 67 66 64 63 60 60 59 59 59 57 56 55 55 53 52 51 51 51 51 53 54 55 57 57 57 61 59 54 60 63 66 66 65 66 66 66
75 74 75 75 72 71 72 72 70 70 68 66 64 64 63 63 62 61 61 58 58 57 56 57 57 56 56 58 57 59 60 59 60 55 61 65 66 66 66 68 67 68 63
81 78 80 79 76 75 74 76 74 74 73 70 69 68 67 67 67 65 64 63 62 62 62 61 61 62 61 61 61 61 60 62 64 66 66 68 65 67 69 67 66 68 59
83 83 82 82 80 78 78 79 77 77 77 76 72 71 72 70 69 69 67 66 66 65 66 65 67 65 66 64 65 68 66 66 66 67 61 62 67 68 68 65 68 63 50
83 81 83 81 82 82 81 81 81 80 78 71 66 71 76 74 73 70 70 69 70 69 69 70 68 70 70 68 68 65 65 64 61 62 66 70 71 67 66 63 62 55 42
80 79 80 78 78 80 83 85 84 83 82 80 73 66 66 77 79 77 74 74 74 73 73 72 72 70 67 69 70 70 68 66 69 68 71 70 69 66 64 61 58 47 44
74 73 74 72 72 71 74 78 82 86 85 87 82 76 66 63 62 77 80 78 77 75 72 70 67 65 64 63 63 64 67 71 70 70 68 68 67 65 62 59 55 46 46
64 67 68 68 68 68 65 68 71 76 85 85 87 87 83 70 63 63 65 67 71 69 66 67 67 65 68 70 70 71 72 70 70 67 68 67 63 64 61 57 51 47 45
63 65 66 66 66 66 63 64 64 67 70 74 84 85 87 86 79 74 73 70 68 69 69 68 70 72 75 77 77 76 76 76 73 69 70 63 62 62 60 56 50 46 43
65 65 66 67 68 67 66 63 64 64 67 69 71 75 81 85 91 89 84 80 79 80 79 81 82 82 82 81 79 79 77 77 72 67 65 62 63 62 59 55 50 46 42
65 66 66 67 68 68 69 69 66 64 64 63 64 66 71 73 78 90 90 85 81 82 83 81 81 82 79 77 77 79 75 70 67 65 62 65 66 65 63 54 49 47 46
64 66 65 66 67 66 67 69 69 66 64 63 62 65 64 67 70 74 80 85 86 85 84 84 83 82 80 76 73 71 69 66 63 63 67 69 67 66 58 53 51 51 51
65 65 66 64 64 65 66 66 67 66 66 66 64 62 60 60 61 65 69 73 78 83 81 75 77 75 73 71 71 70 69 66 65 67 68 66 65 63 56 54 54 55 55
62 63 65 65 64 64 63 63 63 64 65 66 66 65 63 61 59 60 58 57 57 58 57 59 58 57 59 62 63 63 62 64 65 67 66 65 62 58 57 57 59 59 59
58 61 62 65 65 63 62 60 62 62 64 67 68 69 67 65 62 60 55 54 54 54 54 55 55 56 58 59 57 56 59 61 62 63 64 63 60 58 59 61 63 63 63
57 57 59 62 63 62 60 61 58 60 60 61 65 68 69 68 65 61 57 55 55 55 55 54 53 54 53 52 52 54 57 59 61 62 60 59 59 60 61 64 65 67 68
58 58 58 59 63 62 59 58 58 56 58 60 63 67 70 69 66 64 61 60 57 55 54 53 54 54 53 53 53 54 56 59 60 60 59 58 59 62 65 67 69 69 71
63 58 57 58 58 61 61 58 57 58 58 59 62 65 68 69 69 67 64 61 60 58 56 55 54 55 55 55 56 57 57 56 55 55 56 58 61 64 66 69 72 74 76
67 63 55 56 57 58 58 59 59 58 58 59 61 64 67 68 68 66 65 62 61 61 59 58 56 57 56 56 57 57 55 53 53 56 59 61 64 68 70 72 76 79 81
68 69 65 57 57 57 57 56 56 58 58 60 61 63 67 67 67 68 67 65 63 62 61 60 60 60 59 58 59 60 59 59 59 61 64 67 68 72 75 78 82 88 91
74 69 69 63 61 60 56 54 53 55 58 60 62 64 66 67 69 68 66 65 66 66 65 63 62 61 62 62 62 63 63 64 65 66 67 71 73 78 80 84 89 93 96

GFSSE_250_spd_012.txt.gz
Wind_Speed
45 44 42 41 40 38 35 33 34 37 40 41 40 39 37 38 40 38 36 35 36 37 40 38 37 37 38 40 40 40 40 40 40 41 44 45 46 48 49 54 53 55 54
49 48 49 47 45 43 43 42 40 39 40 40 42 46 44 43 43 45 45 47 46 47 45 43 42 43 44 44 45 43 44 45 46 48 48 50 51 52 53 57 57 56 59
53 52 51 53 50 48 48 47 48 48 46 45 44 46 47 49 48 48 49 48 49 50 50 50 50 50 50 49 47 47 47 48 50 51 50 54 54 54 57 57 55 58 63
53 53 52 54 54 52 53 52 52 53 53 53 51 50 50 50 52 52 52 55 54 52 50 51 52 54 53 51 50 50 50 51 51 53 53 54 55 57 58 56 58 63 65
56 56 57 57 58 57 56 58 58 59 58 58 58 55 55 55 53 55 56 56 55 55 55 55 53 54 54 53 53 53 52 52 52 54 56 57 57 57 57 57 63 66 66
61 61 61 62 63 63 63 64 65 64 65 63 64 63 59 58 59 59 58 58 61 61 60 60 58 55 55 54 54 54 54 55 56 56 59 60 58 59 61 65 66 66 65
67 68 65 66 67 68 68 68 70 69 70 69 68 67 66 64 63 63 62 62 63 64 64 63 62 60 60 59 59 61 61 60 59 59 61 62 61 62 62 61 59 66 69
70 72 71 72 73 73 74 73 75 74 73 73 73 71 71 69 68 68 68 66 65 66 65 66 66 65 65 63 63 62 63 61 62 62 63 61 60 61 62 64 66 68 66
71 75 74 76 77 77 79 80 81 80 78 76 76 76 75 74 74 73 72 70 70 70 70 72 71 70 69 68 68 67 66 67 66 63 64 65 64 63 64 68 66 65 63
77 81 81 80 82 80 80 83 85 84 84 81 78 77 77 77 78 79 76 77 75 73 73 74 74 74 72 73 71 72 71 70 65 66 66 64 63 62 66 65 64 63 63
84 81 84 84 83 81 83 85 86 87 87 85 84 82 81 82 78 73 71 70 76 76 77 80 79 77 77 78 78 77 68 64 63 60 59 62 64 66 66 66 65 66 62
82 83 81 81 80 79 80 79 83 82 82 82 86 87 86 85 83 84 78 76 76 77 67 71 76 77 81 81 73 73 70 65 61 67 69 72 73 71 71 70 67 62 58
77 77 76 76 68 68 67 67 70 73 74 76 80 84 85 86 88 88 88 85 71 68 68 65 69 65 68 71 70 68 69 65 67 73 77 77 76 75 75 71 67 60 57
73 73 70 66 61 60 58 59 61 64 66 68 70 72 75 77 81 86 89 90 88 89 91 78 76 69 70 69 70 71 75 77 77 79 80 80 78 71 69 64 62 59 58
69 68 69 65 61 60 58 59 61 61 65 63 66 65 65 67 70 72 74 82 88 88 87 88 88 85 86 85 81 78 81 84 83 84 78 75 73 68 65 62 61 63 63
66 65 65 65 61 61 60 61 62 61 64 66 66 64 65 67 70 67 67 69 71 75 81 82 87 90 92 93 88 90 88 90 86 82 75 71 67 64 65 63 63 65 62
65 62 62 63 64 64 59 60 62 62 62 67 66 68 68 69 69 66 64 64 64 66 69 71 73 74 77 81 81 79 81 84 81 75 72 69 66 65 65 63 65 63 58
59 60 63 62 63 64 64 62 62 61 59 63 65 70 71 73 74 69 66 64 64 63 63 62 63 65 67 67 68 70 71 68 62 60 59 61 61 61 63 62 61 59 58
53 56 57 58 59 62 62 63 62 61 60 60 61 65 70 75 75 73 70 67 65 63 61 60 60 58 56 54 55 57 59 58 58 60 56 55 57 58 59 59 59 61 58
55 53 53 53 56 55 58 58 60 58 59 59 59 63 65 68 73 74 72 70 68 66 63 61 60 59 57 57 57 57 55 56 56 56 57 59 60 60 59 59 59 58 58
61 58 58 52 52 51 55 57 57 58 58 57 58 59 64 69 70 71 73 73 72 70 68 65 62 59 58 56 55 56 56 55 56 56 55 55 57 58 58 58 58 58 58
66 65 59 58 52 54 49 56 54 55 57 57 59 59 60 63 66 69 71 72 72 71 70 67 65 64 64 61 58 55 55 56 55 56 57 56 55 58 56 56 56 57 59
70 69 65 63 57 58 48 55 53 55 56 59 60 59 58 60 64 67 69 70 69 69 68 68 67 66 67 66 63 60 57 57 59 61 59 57 58 58 57 57 60 62 63
75 73 69 66 63 57 55 55 52 50 54 57 60 59 60 60 61 65 66 67 68 69 70 70 70 69 68 67 65 64 63 62 62 64 62 62 61 63 62 64 67 69 70
77 78 73 70 67 61 59 59 59 53 50 55 58 56 56 59 60 63 65 67 67 69 71 71 71 70 69 69 67 66 66 66 66 65 66 66 67 69 70 71 74 76 78
87 81 79 74 73 67 65 63 62 60 55 56 57 52 54 56 58 62 65 65 67 69 71 73 73 74 72 72 71 70 69 69 69 67 67 69 71 76 75 77 78 79 81

GFSSE_250_spd_015.txt.gz
Wind_Speed
42 41 38 37 37 35 32 35 35 31 32 35 36 36 39 40 39 39 39 40 40 39 39 38 38 39 42 43 43 43 44 44 45 47 46 46 46 47 49 49 50 50 51
47 45 44 43 42 41 38 39 39 37 35 35 36 37 37 39 40 42 43 43 46 47 48 48 49 50 50 49 48 48 49 50 50 51 51 48 49 50 53 51 51 53 54
49 48 48 48 48 48 46 44 44 43 42 41 41 40 41 41 42 44 45 45 48 49 53 53 54 54 54 53 53 53 53 53 53 52 52 52 52 53 54 52 54 55 56
54 54 55 54 52 51 51 49 48 46 46 46 48 48 47 47 47 47 48 49 50 51 52 55 57 57 57 55 55 53 54 55 55 54 54 52 51 52 54 55 55 55 56
55 54 55 55 54 52 51 52 51 51 52 53 54 54 57 56 54 54 53 54 53 54 54 57 57 58 58 57 57 57 56 55 54 54 53 55 56 56 56 57 57 58 58
55 55 55 56 55 55 55 56 57 56 56 59 59 61 61 61 62 60 62 59 57 59 58 58 59 61 60 60 61 62 60 57 56 57 58 59 60 58 59 59 62 58 57
62 59 59 59 61 59 60 61 62 63 62 64 64 65 67 67 67 67 65 66 65 64 63 63 63 60 63 66 66 65 62 62 60 62 60 60 61 62 64 64 58 60 62
64 63 64 63 65 66 65 66 67 68 68 69 70 70 71 72 74 72 72 69 68 68 68 68 66 66 66 68 70 68 69 69 67 67 66 65 64 68 65 63 64 61 60
68 67 67 69 68 67 66 67 69 71 72 73 74 75 77 77 77 78 77 75 74 73 73 74 73 72 70 71 71 73 74 75 74 74 72 71 70 67 65 62 59 57 61
71 71 69 69 69 70 71 71 72 75 77 78 79 81 82 82 82 81 80 79 79 79 76 77 78 78 73 74 76 75 76 76 78 77 76 76 72 68 67 63 61 67 68
74 73 74 73 72 74 75 75 76 78 79 81 82 82 83 86 85 85 83 83 81 81 81 80 75 74 74 74 78 75 75 78 78 79 78 77 73 66 66 66 68 71 74
76 75 76 77 78 79 81 82 80 80 81 81 81 83 84 82 85 86 87 88 86 85 86 84 83 84 79 78 79 79 69 70 72 71 70 67 65 65 65 69 77 79 77
75 76 79 80 81 80 79 81 82 82 79 80 81 79 77 78 78 80 80 84 84 85 87 87 88 87 81 79 78 72 71 67 69 69 68 66 66 70 76 79 80 84 81
79 77 76 77 80 81 79 78 75 75 74 69 68 66 65 69 70 74 74 75 77 76 79 83 85 86 87 88 89 89 90 89 91 91 86 88 85 85 87 86 87 83 75
75 76 76 73 71 71 74 73 73 71 64 62 61 61 61 62 66 68 68 68 67 67 68 71 74 76 81 84 86 90 90 88 87 89 93 92 91 88 86 85 78 72 72
68 68 71 70 71 71 71 69 67 65 61 61 62 62 62 63 67 67 69 67 63 64 64 65 67 68 69 70 73 74 74 76 75 75 77 78 82 84 81 79 74 71 67
67 62 62 63 62 63 65 65 65 61 62 62 60 61 62 64 64 65 70 71 69 67 67 66 66 65 65 64 64 65 65 66 66 69 69 69 69 68 64 61 59 59 59
63 58 56 59 60 59 60 59 59 58 61 61 60 63 64 63 63 64 68 69 70 70 72 72 70 69 68 66 63 62 62 60 60 59 58 59 58 58 60 62 59 57 57
61 58 54 53 56 55 54 54 54 52 55 57 58 61 65 63 63 64 65 66 67 70 73 74 73 72 71 68 65 62 61 61 59 58 59 60 58 58 59 59 59 59 60
65 63 58 54 56 56 51 45 48 49 50 51 53 59 61 61 62 63 63 64 64 66 69 72 75 75 75 73 70 67 65 63 62 62 59 60 58 60 60 59 59 58 59
67 62 61 58 56 55 56 51 49 47 48 48 51 54 56 58 60 62 63 65 64 66 67 70 72 74 74 73 73 72 70 67 65 63 61 59 60 59 58 59 59 59 58
73 73 70 64 62 61 61 58 51 52 50 48 49 48 52 54 58 61 63 65 66 64 65 67 69 73 75 76 76 76 73 70 69 69 68 65 62 62 63 63 61 61 60
78 79 78 73 66 66 65 61 60 56 53 52 51 48 46 50 55 58 62 63 64 66 65 66 67 70 72 73 74 74 72 71 70 71 72 70 68 67 68 68 66 65 64
84 84 82 80 73 67 67 65 65 63 59 58 51 50 49 48 48 52 55 60 65 65 64 65 68 69 70 72 74 75 75 73 73 73 73 73 72 71 71 71 69 69 68
89 87 89 87 82 72 68 67 69 65 59 59 54 52 53 54 52 52 56 57 61 64 63 64 66 68 70 71 72 73 76 77 76 75 77 76 77 75 75 76 75 74 73
94 90 88 90 86 80 75 70 71 71 66 63 61 60 62 60 56 55 56 57 57 60 62 64 66 68 68 69 71 72 75 77 80 81 80 80 80 83 82 81 80 79 79

GFSSE_250_spd_018.txt.gz
Wind_Speed
43 39 39 39 38 35 34 33 32 34 33 32 33 34 36 37 37 36 37 38 40 40 40 40 41 41 41 42 43 43 45 47 48 49 49 49 50 51 52 52 49 52 54
46 45 44 44 42 40 39 38 37 37 36 37 36 36 36 36 38 38 38 38 39 41 43 45 46 47 49 49 50 52 52 52 54 54 54 55 54 55 53 52 54 53 54
51 49 50 50 49 46 44 43 43 42 42 42 40 41 41 40 40 42 43 43 43 44 44 45 47 49 50 53 53 53 55 55 55 54 54 54 54 55 54 53 51 51 53
53 54 53 52 51 50 49 49 49 49 47 46 45 44 43 44 44 45 47 48 49 49 51 50 51 52 53 53 55 55 57 58 58 56 56 56 57 56 54 52 53 55 56
54 56 56 57 55 54 55 54 53 53 51 49 48 48 49 49 50 51 52 54 55 55 55 56 56 56 55 56 58 59 60 61 60 60 60 58 57 57 56 58 58 58 56
57 58 59 59 59 57 57 56 55 53 53 53 52 54 54 55 55 57 57 58 61 62 62 62 63 63 61 62 61 61 61 62 64 62 64 63 62 61 59 58 60 60 61
60 61 61 62 60 59 59 59 58 58 58 57 58 58 60 60 61 62 63 64 67 67 68 69 68 68 68 67 69 65 65 65 64 65 68 70 68 69 69 66 65 67 67
60 61 63 62 63 62 60 60 61 63 63 61 62 63 64 64 65 66 67 70 71 72 74 73 74 74 73 73 70 69 70 70 69 68 68 70 72 74 74 74 71 75 74
60 60 61 63 63 63 63 63 64 66 66 67 65 65 65 67 69 72 73 74 75 79 79 79 80 78 77 74 75 74 74 76 76 76 73 72 74 77 77 76 77 76 77
60 57 61 64 65 66 66 67 68 67 67 69 70 70 69 70 72 75 78 80 81 82 82 81 81 83 81 80 80 78 79 79 77 75 72 70 74 75 78 79 78 74 74
64 60 60 63 66 69 70 70 71 72 72 72 73 74 75 77 79 79 80 82 82 84 81 82 84 87 86 83 84 83 83 83 83 83 81 82 80 77 73 69 63 64 66
67 66 66 68 70 71 73 74 73 74 74 75 78 80 81 82 80 82 84 86 85 84 84 81 83 83 84 86 87 87 87 89 88 87 86 83 73 71 72 72 69 76 78
70 70 69 69 71 74 72 73 76 77 78 79 81 84 84 85 88 87 83 85 85 83 80 78 78 76 77 79 82 85 87 88 89 85 85 83 79 86 91 86 88 87 88
72 74 74 75 73 77 78 77 79 80 82 83 83 85 86 85 84 82 80 78 76 75 74 71 71 73 73 74 75 78 79 82 84 85 87 87 88 90 90 93 92 93 89
69 71 72 74 78 80 80 82 83 84 83 84 81 79 79 76 76 74 71 70 69 67 67 67 68 69 69 69 69 68 68 69 70 71 73 73 73 75 76 74 73 73 73
72 69 70 69 72 78 79 80 80 80 80 76 77 76 76 72 71 68 68 69 69 66 65 67 68 67 67 68 67 66 65 65 65 66 65 64 64 66 66 68 68 68 67
72 70 66 65 64 68 71 73 74 71 71 68 69 67 67 67 66 66 67 66 66 66 66 66 67 69 70 71 71 71 68 68 68 68 66 64 63 64 64 61 60 58 58
70 69 67 66 63 63 65 64 61 59 61 61 63 62 64 64 64 65 67 67 67 67 67 66 65 67 69 70 72 74 73 73 73 71 68 66 65 64 63 62 61 61 61
70 69 65 65 64 65 63 62 58 53 54 54 55 55 57 56 60 62 63 65 66 67 67 67 67 66 66 68 71 73 75 76 75 74 72 71 69 68 65 65 66 63 61
74 72 68 65 64 63 60 59 59 56 56 53 51 53 51 52 53 56 58 61 63 63 64 66 68 67 66 67 68 71 73 74 75 76 76 75 73 72 70 69 68 65 62
77 75 73 69 65 64 63 62 58 58 58 57 57 56 55 53 53 53 51 56 58 61 63 65 66 67 68 67 68 70 71 72 74 75 76 75 75 75 74 73 72 71 69
80 80 79 75 70 66 66 66 63 60 59 62 64 61 58 53 52 53 53 53 54 57 59 63 65 66 67 68 69 70 71 72 73 74 76 77 78 78 77 76 75 75 75
82 82 83 83 76 70 68 69 66 65 64 65 65 66 61 58 57 60 58 52 54 56 57 58 60 61 64 67 68 69 70 71 71 72 74 75 75 76 77 78 79 78 78
87 87 87 87 81 78 75 72 74 72 70 70 70 70 67 65 60 57 57 53 54 57 59 60 60 61 60 63 66 69 70 70 70 72 73 74 76 77 81 81 82 82 82
94 94 93 93 90 87 83 79 78 79 75 73 70 65 61 62 61 62 62 60 58 61 62 63 62 60 58 59 60 63 67 70 71 72 73 75 78 80 81 82 83 84 86
101 100 99 98 96 94 90 86 82 79 81 76 74 71 66 65 68 69 69 66 65 66 66 65 64 61 58 58 57 59 62 66 68 72 75 76 78 82 83 84 84 86 88

GFSSE_250_spd_021.txt.gz
Wind_Speed
39 38 37 37 38 36 35 30 31 30 31 33 34 34 34 33 34 36 37 38 37 38 38 38 39 39 40 41 41 43 45 46 47 49 50 51 52 54 54 54 55 55 55
45 46 46 44 43 41 40 40 38 38 37 38 37 37 40 39 38 37 38 39 40 40 38 39 39 41 42 44 46 48 49 50 52 52 54 54 54 56 56 56 55 53 55
48 48 49 50 49 45 43 44 45 45 44 42 41 41 43 42 42 42 41 41 42 43 44 45 46 47 47 48 48 50 52 53 54 54 56 58 59 59 56 57 58 56 54
51 52 50 50 51 50 49 49 49 48 48 47 48 49 48 48 46 45 45 45 46 46 48 48 49 51 52 53 53 55 56 56 55 55 59 59 59 61 61 60 61 57 54
54 54 55 54 54 53 52 53 54 53 53 53 54 53 52 50 50 49 49 49 51 52 53 53 55 56 57 57 58 61 62 62 62 60 61 63 63 62 63 64 64 62 63
57 56 56 55 54 55 56 55 56 56 57 57 56 55 54 53 52 53 54 54 56 57 57 58 59 61 62 64 66 66 67 68 68 67 69 67 65 64 63 63 64 66 67
58 59 59 58 58 57 58 58 58 59 58 56 57 58 57 58 58 59 58 60 59 60 61 61 63 65 67 68 68 72 74 74 71 71 71 72 71 69 68 67 68 70 71
62 60 60 59 59 60 60 61 61 61 60 61 59 58 58 60 61 62 64 64 64 64 64 65 67 68 71 73 76 78 77 75 76 77 74 76 76 74 76 74 70 72 73
63 61 60 61 61 59 58 58 59 60 61 60 61 62 63 62 64 66 67 68 68 68 69 71 72 75 75 75 78 81 80 81 79 77 77 79 78 79 76 77 76 73 73
63 63 62 61 61 58 59 59 59 60 62 63 64 65 65 66 68 69 70 71 71 73 75 77 80 80 80 78 83 82 82 83 82 81 82 82 83 83 80 80 80 79 78
62 64 64 63 62 61 62 58 57 58 61 63 66 68 68 70 72 73 74 75 78 79 80 81 80 82 84 83 82 83 85 82 79 81 82 84 84 85 85 84 83 83 83
67 66 64 65 65 65 64 63 63 64 66 68 70 71 73 74 75 77 78 78 80 81 82 84 86 85 86 85 85 84 84 82 81 80 78 77 79 82 83 85 85 85 83
70 71 70 69 70 69 68 67 69 69 70 71 73 76 78 78 78 80 82 83 85 86 86 86 87 85 83 82 82 80 78 77 76 74 74 73 73 75 76 76 77 78 80
73 72 71 72 73 73 73 74 73 73 73 75 76 78 80 79 83 84 84 86 88 89 88 87 85 84 79 77 74 74 72 71 70 69 68 67 67 65 65 65 65 66 66
73 72 74 72 72 71 71 73 73 72 74 75 76 80 82 83 83 84 88 87 86 87 85 80 77 76 75 74 72 70 70 70 69 67 66 66 64 62 61 61 60 61 60
73 72 70 70 70 72 72 73 74 74 75 77 79 78 80 81 85 83 83 84 81 79 78 75 74 71 70 71 71 72 71 70 70 70 69 69 68 66 65 64 63 62 61
76 74 73 73 71 72 71 72 72 72 72 72 72 75 75 73 75 76 77 76 74 74 71 71 69 70 70 69 69 71 71 72 73 72 70 69 70 69 70 69 68 66 64
77 74 75 75 72 73 72 71 71 68 68 67 69 67 66 67 68 67 69 69 70 68 69 69 69 70 69 69 69 69 71 72 73 73 72 71 71 70 70 71 70 69 68
79 76 72 72 71 71 70 70 69 67 67 61 60 62 62 63 62 60 60 60 60 63 65 64 65 67 69 70 70 70 70 71 71 72 72 72 71 71 71 71 71 71 70
78 78 74 73 73 74 74 72 68 70 67 65 65 64 61 60 59 59 59 57 58 57 57 57 57 60 64 65 66 68 68 69 70 70 71 71 72 72 72 71 70 70 70
78 76 77 74 74 75 73 74 73 70 72 70 66 71 66 65 62 61 61 61 60 58 55 54 56 58 57 58 61 64 66 68 70 70 71 70 70 71 71 71 71 71 72
82 81 81 80 77 78 80 79 75 75 72 70 67 67 69 67 64 62 63 63 63 60 58 59 63 62 60 58 56 57 59 63 66 69 71 70 71 71 72 71 71 71 72
79 82 83 84 82 80 82 82 79 78 75 70 68 69 70 70 69 68 71 71 68 68 69 68 64 59 61 62 63 61 63 61 62 63 65 68 70 72 73 73 73 74 74
87 88 89 89 88 86 85 83 83 80 80 79 75 73 73 74 70 71 68 68 67 65 64 63 63 63 67 70 71 73 69 63 59 59 61 62 65 68 71 72 74 75 76
91 92 93 93 94 95 93 91 90 87 85 87 84 76 70 69 71 70 71 70 71 69 68 70 71 73 73 75 74 73 71 65 62 60 58 57 59 61 63 66 71 76 79
102 103 103 102 101 101 101 99 98 98 95 92 89 82 74 73 74 73 71 71 74 73 72 73 73 73 74 75 74 73 71 64 62 61 62 61 63 64 65 66 67 69 73

GFSSE_250_spd_024.txt.gz
Wind_Speed
35 34 35 35 34 32 33 32 31 32 30 29 28 30 32 34 34 34 34 34 36 37 39 40 39 38 38 38 38 39 41 42 43 44 45 47 48 50 51 54 55 56 57
40 41 39 39 39 36 36 38 39 38 36 35 36 36 35 36 37 36 38 39 39 40 40 39 42 41 40 41 44 44 43 45 47 48 48 48 49 51 53 53 56 58 57
42 45 45 44 44 44 45 44 44 44 44 42 41 41 41 41 41 41 43 44 44 44 44 44 44 43 45 47 47 48 50 49 49 49 52 54 56 56 57 57 58 59 60
46 47 47 47 48 49 50 50 50 50 49 47 47 48 47 48 48 48 49 49 48 45 45 46 47 48 49 50 50 51 51 53 55 56 56 58 60 60 61 62 61 60 62
50 49 48 49 50 51 49 49 49 50 49 50 50 51 52 52 54 55 54 52 51 50 51 51 52 52 54 55 56 55 56 58 59 60 63 65 66 66 67 66 65 67 64
53 52 52 52 52 53 54 53 52 51 51 51 52 54 54 56 56 56 55 54 54 54 55 55 56 57 58 57 58 59 59 60 62 65 67 69 70 70 71 69 69 70 69
57 56 56 55 54 55 54 55 56 54 54 54 55 56 57 57 57 58 58 58 57 58 57 57 59 60 62 63 61 62 64 67 69 71 73 73 72 74 72 73 74 75 70
63 62 62 61 58 56 57 57 57 58 58 58 60 60 60 59 58 59 58 59 59 60 60 60 62 63 65 64 66 68 70 73 75 73 74 77 78 76 75 76 75 77 75
69 68 66 65 62 61 60 60 59 59 61 60 59 58 59 60 61 61 61 62 62 62 63 65 66 66 67 70 72 74 74 75 74 76 78 78 80 80 79 78 77 78 78
64 63 64 64 65 64 63 62 61 61 60 60 59 60 60 61 61 60 61 62 63 64 66 68 69 70 71 70 74 75 77 78 78 81 80 81 82 81 81 78 77 77 78
63 65 67 66 68 68 66 64 62 61 60 61 61 61 60 60 62 64 64 65 66 68 70 70 70 71 74 76 77 79 82 81 83 85 82 82 79 79 74 73 73 73 73
62 62 63 63 63 62 62 62 63 62 61 63 65 65 66 67 67 70 72 72 72 73 73 74 74 76 77 79 82 83 83 84 85 82 81 78 75 70 68 67 67 67 67
64 64 64 64 65 65 66 67 67 66 67 67 68 69 70 72 75 74 74 74 77 78 78 78 79 81 85 83 85 86 85 84 81 78 77 74 71 66 63 62 63 63 63
68 67 69 69 67 67 68 68 68 69 69 70 72 72 72 71 72 75 77 79 78 80 80 78 78 84 85 86 86 85 84 79 77 76 73 72 70 68 66 64 63 63 63
74 73 73 71 70 70 69 68 69 69 71 70 71 72 74 74 75 77 79 80 81 83 84 85 87 85 86 85 80 78 77 75 74 72 71 69 68 69 68 67 66 66 66
72 73 74 73 73 73 72 70 68 69 68 70 72 73 75 74 75 76 78 75 76 80 80 78 82 78 76 74 73 72 70 70 70 69 71 69 68 68 68 67 67 67 68
76 77 74 73 66 66 70 69 69 69 70 70 71 71 73 74 74 75 71 72 69 70 71 71 72 70 65 65 65 65 66 66 67 67 67 67 69 69 69 68 68 68 67
78 78 77 72 69 68 69 71 70 69 68 69 68 71 73 70 70 68 66 63 63 64 65 64 64 62 59 58 58 58 61 61 63 64 64 66 68 68 67 68 69 68 66
78 78 78 78 77 76 78 77 72 72 73 71 71 69 71 70 69 68 67 65 66 66 63 62 61 61 61 60 59 57 56 57 58 58 59 61 63 64 65 67 68 68 67
82 81 81 81 81 81 79 77 75 72 70 71 71 69 69 67 67 70 73 70 69 69 67 66 61 59 58 58 56 56 59 62 58 58 57 59 60 62 62 63 64 66 67
82 82 83 82 82 81 79 79 76 73 75 73 74 75 72 74 72 70 70 72 69 65 65 66 64 64 65 64 63 64 63 57 57 57 60 63 67 65 62 62 62 63 65
81 82 83 83 84 83 81 80 81 80 77 76 75 77 77 77 74 74 73 72 69 70 69 67 67 68 67 66 62 61 60 60 63 68 69 68 67 65 61 60 62 63 64
78 81 82 82 82 81 82 83 83 84 82 82 81 82 81 75 72 73 71 73 74 71 72 70 71 71 68 68 64 63 65 67 68 70 70 70 65 65 60 59 60 62 61
82 83 85 86 87 89 89 88 89 89 89 89 90 90 88 85 77 71 70 75 76 75 72 73 73 71 71 71 69 68 68 71 71 71 69 68 67 67 65 63 62 60 60
84 87 89 90 91 93 94 94 95 94 93 92 93 91 84 80 80 77 73 75 73 77 77 74 74 74 72 72 75 73 73 73 73 72 70 71 70 69 66 68 65 62 60
89 91 92 93 95 97 97 98 99 98 96 94 95 95 95 91 88 85 80 81 81 78 77 77 75 78 77 78 77 74 76 76 74 74 73 72 72 71 70 69 68 64 64

GFSSE_250_spd_027.txt.gz
Wind_Speed
31 31 31 30 30 31 32 32 31 29 29 28 27 28 27 29 31 32 33 34 35 36 36 37 38 38 37 37 38 39 38 38 40 41 41 42 42 44 46 48 48 50 53
34 34 34 34 33 34 35 34 35 34 34 34 33 33 32 34 35 36 37 38 38 37 39 41 41 41 42 42 41 39 41 42 43 43 46 46 45 47 49 49 49 53 55
41 40 40 39 38 37 39 39 39 38 38 39 41 41 41 41 40 41 42 43 42 43 45 46 47 46 44 44 45 47 46 46 48 49 48 49 50 51 52 54 56 58 58
43 42 42 41 42 44 43 43 43 45 46 46 47 47 46 46 47 47 47 47 48 50 51 51 50 49 49 49 50 50 51 51 52 53 53 53 54 55 58 59 62 62 62
45 44 44 44 44 45 45 47 47 48 50 50 50 49 50 51 51 50 50 51 53 54 53 53 52 52 52 54 53 54 54 54 56 57 56 56 58 61 61 64 65 66 66
49 49 48 48 47 47 49 47 48 49 50 51 51 51 51 50 51 52 53 54 55 56 57 56 56 56 55 55 55 55 56 56 58 58 59 62 64 65 64 64 66 69 71
53 53 53 52 51 50 51 51 52 53 53 53 55 55 55 56 55 55 57 59 60 59 59 59 59 58 57 57 57 57 59 61 61 62 64 63 65 66 66 67 69 71 72
58 57 58 58 57 57 56 56 56 57 57 57 57 56 56 57 57 59 60 61 61 59 59 60 60 61 61 60 60 62 63 64 65 63 64 66 68 69 71 71 73 75 73
63 63 63 62 63 63 62 63 63 63 62 61 60 60 60 59 60 61 61 59 59 60 61 61 59 59 59 60 62 63 65 66 67 68 68 70 71 71 72 75 75 74 74
68 65 65 64 65 67 68 67 66 65 64 62 63 63 63 62 61 60 59 60 61 60 60 60 61 62 65 66 67 68 68 68 69 71 76 74 76 77 76 76 76 72 72
69 69 68 68 67 66 65 64 64 63 65 67 68 67 65 63 62 61 61 62 61 63 64 64 67 70 70 71 71 71 69 71 72 74 78 77 80 80 79 75 73 70 68
66 65 65 64 64 64 64 63 63 64 63 62 63 62 63 63 63 63 65 65 66 68 69 70 69 69 72 72 73 74 76 78 79 80 83 82 78 76 74 72 70 69 64
64 63 64 62 62 62 63 63 62 64 63 64 64 65 67 67 68 68 68 70 69 69 69 70 69 72 74 76 77 77 80 81 81 82 78 77 73 71 71 69 67 65 65
65 65 65 64 64 63 65 64 64 65 64 65 66 67 68 67 68 69 70 68 67 71 72 72 74 75 76 79 80 81 77 79 80 76 74 70 69 66 65 65 65 65 64
70 69 70 67 65 65 66 66 68 68 69 69 70 70 70 70 69 68 68 70 71 72 72 74 76 77 78 78 75 74 78 73 66 63 62 63 62 63 63 63 64 63 63
73 74 72 71 70 70 70 71 71 71 71 72 73 72 73 72 69 69 71 71 71 71 72 73 75 76 75 72 73 72 69 65 58 56 55 54 56 56 56 57 58 59 60
75 74 73 71 71 71 73 75 74 72 71 72 72 72 71 71 71 70 69 70 69 72 71 72 71 71 70 71 68 67 65 62 60 58 56 53 51 52 49 50 50 50 52
76 75 75 73 72 72 72 74 74 73 71 69 69 70 71 71 71 69 70 69 70 70 71 73 68 67 69 68 66 63 63 59 56 55 52 54 55 51 48 50 52 53 53
75 76 73 73 73 74 74 74 73 75 73 72 71 73 72 70 69 66 67 68 68 69 69 68 68 68 68 67 61 61 61 64 63 60 56 54 53 52 53 57 59 60 60
72 73 75 75 76 77 77 77 78 78 79 78 78 76 75 74 74 73 71 69 70 70 69 68 68 69 69 66 67 66 64 63 62 62 59 58 55 56 59 61 60 60 57
75 75 78 79 81 80 80 81 82 82 83 82 81 78 76 73 71 67 68 69 71 71 72 74 74 71 71 67 65 66 66 68 66 64 63 61 61 62 63 64 61 60 58
80 79 80 80 82 81 82 82 83 84 84 84 81 79 79 79 78 78 76 76 75 75 76 75 72 73 72 69 68 69 70 68 70 67 66 63 64 65 65 64 63 62 61
82 81 80 81 81 81 80 82 81 81 81 83 83 83 84 84 82 76 75 78 79 78 79 78 76 75 71 72 72 72 72 77 72 71 69 71 70 69 66 66 63 64 62
81 82 84 85 84 85 86 85 82 82 82 85 88 90 90 89 88 84 79 77 77 78 78 76 74 72 76 74 75 77 75 77 73 74 73 73 71 70 69 66 66 64 63
82 82 83 85 87 88 89 89 91 92 91 93 94 95 95 94 93 86 86 80 77 79 77 71 73 75 78 80 78 78 78 76 74 76 76 74 75 74 71 69 66 65 63
85 86 85 87 88 89 91 92 92 93 94 94 96 98 99 99 97 95 90 84 87 81 78 79 81 81 81 79 78 76 77 74 77 79 77 77 77 77 73 71 68 68 65

GFSSE_250_spd_030.txt.gz
Wind_Speed
33 33 32 31 31 30 29 30 29 28 29 29 30 29 28 26 28 28 28 29 31 32 33 35 35 34 36 38 41 41 40 41 40 40 41 42 43 45 46 47 47 48 49
34 33 33 33 34 34 34 33 34 33 33 33 32 32 33 32 32 33 34 36 38 38 38 40 40 42 44 45 46 45 45 45 46 46 48 48 48 49 50 51 51 52 52
37 37 36 34 34 35 36 35 36 37 36 36 37 36 37 39 40 41 41 43 42 43 43 43 44 46 48 50 50 49 49 49 49 51 51 52 52 52 52 53 52 54 56
41 40 39 38 37 38 39 39 39 39 40 40 41 42 43 45 46 47 47 48 49 48 48 48 48 49 50 51 51 51 53 53 54 54 55 54 55 56 57 56 57 60 60
44 43 43 42 42 43 43 44 44 44 44 45 45 47 48 50 50 50 50 51 51 50 51 52 51 52 53 55 56 58 57 56 56 55 55 55 57 59 59 60 62 61 61
48 47 46 45 45 46 46 46 46 46 47 47 47 49 50 51 52 54 54 52 52 53 53 53 56 59 60 60 59 58 58 57 57 58 58 59 60 61 62 62 61 62 64
51 49 48 46 46 47 48 48 48 49 49 48 50 51 52 54 55 55 56 56 56 55 57 58 60 61 60 59 59 59 58 57 55 56 58 60 62 62 62 64 64 66 69
54 53 51 50 50 51 52 52 53 53 54 54 54 55 55 57 58 60 59 59 59 59 59 60 60 60 59 59 59 58 56 57 60 63 65 66 66 66 66 69 69 71 72
59 58 57 57 57 57 57 57 58 59 60 61 61 61 62 63 63 63 62 61 62 60 61 61 60 59 60 60 59 61 63 65 67 69 71 70 68 69 69 71 73 77 77
64 64 63 62 61 61 62 62 63 64 65 66 65 66 68 66 64 63 65 66 65 64 62 60 61 61 61 62 64 65 68 67 68 69 69 71 72 74 75 77 77 80 79
70 69 69 70 69 67 68 67 67 66 67 68 69 68 67 67 67 68 67 65 64 64 65 63 63 65 65 66 67 67 68 67 69 71 72 73 74 74 75 79 80 78 75
74 72 72 71 71 70 70 70 70 70 69 69 69 67 66 65 64 63 63 64 66 67 68 68 68 68 70 69 68 69 68 70 70 72 72 72 73 74 75 71 70 69 69
67 68 69 69 68 68 68 68 67 66 66 65 64 61 63 63 64 66 66 66 67 68 69 69 69 69 67 69 70 69 69 71 71 71 70 72 74 68 63 61 60 56 59
71 69 69 68 68 67 65 64 63 63 62 62 62 62 64 65 66 67 67 68 68 69 71 72 70 69 71 70 69 71 71 71 71 69 71 70 64 61 60 59 56 53 52
69 69 68 67 68 67 66 66 66 66 67 67 67 67 67 69 70 71 72 72 72 69 69 70 69 70 69 69 70 70 71 70 70 70 69 66 61 57 56 56 55 48 47
66 67 67 68 68 68 69 70 70 71 71 71 71 71 73 74 75 73 72 71 69 69 69 70 71 69 70 70 70 71 70 67 68 67 65 61 57 56 56 54 52 50 49
69 68 69 68 69 71 72 73 73 73 73 72 72 73 73 74 74 73 72 71 71 70 70 70 70 69 68 69 69 69 68 69 68 66 63 61 56 57 57 56 52 50 50
71 70 68 69 71 72 74 74 74 74 74 75 75 74 74 73 72 73 73 73 74 73 72 71 71 70 68 69 69 68 67 68 68 67 65 59 57 57 58 57 57 55 54
76 75 74 74 73 74 76 77 77 76 75 75 76 76 75 74 75 75 77 75 77 75 75 75 74 70 69 69 69 68 68 71 69 69 66 61 60 62 64 62 63 58 56
76 77 76 77 78 78 78 77 77 77 75 75 76 77 79 79 78 79 79 80 78 79 78 73 68 68 67 68 70 73 72 73 71 72 67 67 65 65 68 67 65 62 62
78 79 81 80 84 83 82 82 81 79 81 79 81 81 81 82 82 81 83 83 81 81 76 71 74 72 74 74 76 76 73 74 74 71 69 70 69 71 70 67 68 66 65
81 81 82 83 84 86 83 84 82 82 83 84 84 84 85 86 87 84 83 83 82 80 78 81 78 76 75 75 75 76 76 75 75 73 72 73 72 73 72 70 69 69 69
85 84 87 88 86 86 87 86 87 87 88 89 88 90 91 90 88 86 85 84 84 84 84 82 81 79 77 76 74 75 76 73 73 75 75 74 76 76 75 73 70 72 73
86 89 89 90 89 89 89 89 90 90 90 91 93 94 93 92 91 89 90 89 89 89 89 85 84 84 83 82 79 74 73 74 71 77 79 74 76 77 73 73 72 71 72
89 89 87 86 86 87 87 90 88 86 90 93 93 95 96 97 95 93 94 91 90 90 88 88 86 84 84 80 79 78 78 78 80 78 79 80 76 77 77 75 74 76 74
84 82 82 85 85 88 88 87 90 90 92 94 94 95 96 97 99 98 96 96 94 94 94 94 92 92 88 85 83 80 78 77 81 85 77 77 80 76 75 78 77 80 80

GFSSE_250_spd_033.txt.gz
Wind_Speed
32 31 31 31 30 29 27 26 25 24 24 25 26 26 27 28 28 28 27 26 27 28 31 33 35 37 38 39 40 42 44 46 47 45 45 46 48 49 50 52 51 51 51
35 34 34 33 32 31 30 29 29 29 29 29 30 31 32 32 32 33 34 34 34 36 38 40 41 42 44 45 45 46 48 49 49 49 51 51 52 52 54 55 56 56 55
37 36 35 35 35 34 33 33 33 33 34 35 36 36 35 36 36 38 39 40 40 44 46 46 46 47 48 48 49 49 50 51 54 55 57 58 57 57 56 57 58 57 58
39 37 36 35 35 35 35 34 34 35 36 37 38 39 39 39 40 41 43 44 47 48 50 50 51 50 50 51 51 52 55 57 58 58 58 57 57 56 57 59 59 60 60
40 39 37 37 37 37 37 37 37 38 38 39 40 41 42 43 44 45 46 47 49 51 52 53 54 53 54 55 54 56 57 59 59 57 57 57 57 58 57 57 60 62 63
44 42 40 41 40 41 42 42 43 43 43 43 44 45 46 46 46 48 50 50 51 52 53 55 55 55 56 56 56 57 58 58 58 57 58 58 57 57 60 63 66 67 68
49 47 45 44 44 43 44 44 45 46 46 46 46 48 49 49 50 51 52 53 53 56 58 59 59 59 58 58 58 58 57 58 59 58 57 58 61 64 66 68 69 68 67
53 52 51 49 48 48 47 47 46 46 47 49 49 51 53 54 55 57 58 59 60 62 62 62 61 61 63 62 62 61 59 59 59 60 61 64 65 68 68 68 68 70 70
57 55 54 52 50 50 50 50 50 52 52 54 56 56 58 60 61 63 64 63 65 65 65 63 64 66 64 63 63 62 62 62 62 64 66 66 66 67 68 69 72 71 71
60 58 56 55 54 54 56 56 56 58 59 59 61 62 64 64 66 65 67 68 68 66 67 67 64 63 62 63 64 65 66 67 66 69 68 67 67 65 66 69 69 69 72
65 63 62 62 61 61 61 60 62 64 64 65 67 69 70 70 70 70 69 69 68 67 66 65 64 64 65 66 66 66 67 68 68 67 67 68 66 67 67 67 68 71 67
70 69 67 67 67 68 66 66 67 70 72 72 72 72 73 73 71 70 68 66 64 63 64 66 66 66 65 66 67 68 69 69 68 69 69 69 66 66 66 66 68 64 58
75 74 73 72 71 71 71 74 74 73 72 72 70 70 71 70 67 65 64 65 65 65 66 67 67 68 68 68 68 68 66 68 69 67 68 68 68 68 65 65 64 59 52
78 77 76 76 75 76 75 73 73 71 70 69 67 67 66 65 64 66 68 69 68 69 69 71 70 69 69 67 67 67 67 67 67 68 66 68 69 65 63 65 60 55 53
80 80 79 79 80 78 74 74 69 68 67 67 67 66 68 69 70 71 72 74 73 72 73 72 73 70 68 67 67 70 69 69 69 68 68 68 66 64 65 66 59 54 51
73 73 73 74 75 76 74 71 69 67 67 69 70 71 72 74 75 76 75 74 73 73 72 72 71 69 70 70 69 71 71 70 70 70 70 67 67 64 65 63 59 57 55
76 75 75 74 73 72 71 70 69 69 70 70 71 73 74 74 76 76 75 76 75 75 72 72 72 73 72 72 71 72 73 72 72 69 68 67 65 67 64 66 61 57 59
79 77 75 74 74 74 72 73 72 71 72 73 73 74 77 78 78 79 79 79 77 76 75 75 74 75 77 76 75 74 75 71 70 68 65 69 70 71 69 66 63 60 60
77 76 74 73 73 74 75 76 77 78 77 79 77 77 78 77 78 79 78 77 79 79 78 78 78 77 77 77 76 74 71 69 70 69 72 72 72 72 71 69 67 64 64
75 76 75 75 76 78 77 77 81 80 79 79 80 82 81 81 82 83 82 82 81 82 83 82 81 80 79 80 78 74 72 71 71 73 72 73 73 73 73 71 70 67 68
78 76 76 78 79 79 76 76 82 83 84 83 83 85 87 88 87 86 85 85 86 85 85 85 87 85 82 81 79 79 77 78 78 76 72 72 73 72 70 71 71 68 71
80 77 76 74 76 80 82 84 84 87 88 88 88 90 90 88 89 89 90 94 93 91 89 90 90 85 81 81 81 81 81 79 79 77 75 75 74 73 69 70 70 73 72
82 81 81 81 82 85 87 88 90 90 90 91 95 95 95 93 92 91 90 91 91 88 90 91 90 88 88 86 86 85 82 81 81 78 75 75 74 73 72 73 75 76 74
86 83 85 86 86 88 90 90 91 92 91 93 95 97 94 93 93 92 91 89 91 91 91 93 92 91 89 88 86 83 81 79 78 75 74 73 74 75 76 78 75 76 77
87 88 88 88 89 90 92 94 95 95 94 93 94 91 94 97 98 99 96 94 94 95 94 95 94 92 90 86 86 86 85 80 78 78 77 77 78 77 76 78 78 82 82
92 91 90 90 92 95 95 95 96 96 92 93 91 93 95 98 99 101 104 104 102 100 100 102 102 101 100 99 97 98 96 95 92 91 91 84 79 78 80 81 82 80 79

GFSSE_250_spd_036.txt.gz
Wind_Speed
29 29 29 30 29 27 25 24 24 22 20 21 21 20 21 23 24 26 27 29 29 30 30 31 34 38 41 42 43 45 45 45 46 47 48 48 51 53 52 53 53 54 54
28 28 28 27 27 27 26 26 25 23 23 23 23 24 25 26 28 30 31 31 33 36 37 39 40 43 46 48 48 50 49 48 49 50 50 53 54 54 55 53 53 54 54
32 31 30 29 29 28 27 26 26 26 26 26 27 28 30 31 33 34 35 35 37 39 41 42 45 49 49 50 50 50 51 52 52 52 52 54 56 56 55 55 56 56 57
35 35 34 32 30 30 30 29 29 29 29 30 32 33 34 35 37 38 38 38 41 42 44 46 48 49 50 51 53 54 53 54 55 54 55 54 55 55 56 57 58 56 56
37 37 35 34 33 32 31 30 31 31 31 31 32 34 35 37 38 40 42 44 45 46 48 49 50 50 52 55 57 58 57 56 57 57 58 57 56 57 57 58 58 59 62
39 39 38 37 36 35 35 33 34 34 34 35 36 37 39 40 41 43 45 46 47 49 51 52 53 55 58 59 60 60 59 58 60 59 59 59 59 60 60 61 63 64 66
42 38 39 39 39 38 38 38 38 38 39 38 40 41 41 42 44 46 47 49 51 53 55 57 59 62 62 64 64 62 62 62 60 58 59 61 62 62 64 65 66 66 65
45 41 41 42 42 43 43 43 42 41 42 43 43 43 44 45 48 51 52 54 56 59 61 63 63 64 66 66 66 65 62 60 60 60 62 62 63 64 65 66 65 66 66
48 46 46 47 47 46 46 46 46 46 46 46 47 48 49 51 53 55 57 60 62 63 65 66 68 68 67 65 64 62 61 62 62 63 64 64 63 65 66 65 66 65 63
52 51 51 50 51 51 51 51 50 50 50 50 52 55 54 56 61 64 65 66 67 69 70 70 69 67 65 64 62 63 63 64 64 66 66 65 65 64 63 66 65 60 62
56 56 55 55 55 55 56 53 53 54 55 56 57 59 61 62 66 70 71 70 71 71 68 68 67 66 64 64 66 68 68 67 68 66 63 64 63 64 65 63 62 62 62
60 61 60 59 59 59 60 59 58 60 62 62 65 65 66 68 72 72 73 72 70 70 67 65 63 64 67 68 69 71 72 70 68 64 64 62 63 64 65 65 62 60 60
68 67 65 64 64 63 63 64 65 66 67 68 70 71 72 74 75 75 74 70 65 64 65 66 68 70 72 74 72 71 69 67 64 66 64 66 63 65 67 64 62 60 57
74 71 69 69 69 69 68 69 70 70 71 73 74 76 78 79 74 72 72 70 69 71 71 71 73 74 74 73 70 68 70 68 66 68 66 68 66 67 67 65 64 60 57
77 75 73 73 73 73 74 74 74 75 75 76 78 80 79 75 72 73 71 73 73 73 73 73 72 73 73 75 74 74 73 71 70 69 69 68 69 70 66 65 64 61 58
80 78 77 77 78 78 79 79 79 80 81 81 80 76 74 71 72 72 72 72 72 74 75 75 76 76 77 77 76 74 72 71 69 69 71 70 70 70 67 65 64 64 62
74 74 73 73 73 75 76 75 76 75 73 72 72 73 71 73 71 72 74 75 75 75 78 77 78 78 78 76 75 74 73 73 72 70 73 73 71 68 65 66 65 66 64
73 72 67 68 71 72 74 74 74 75 75 75 73 72 74 77 76 76 78 80 82 83 82 82 82 82 81 78 77 77 78 75 73 74 75 77 70 69 65 67 70 68 67
75 74 74 75 76 77 77 77 79 79 79 79 75 76 77 79 82 82 83 82 84 87 86 86 87 82 77 76 77 82 82 79 76 76 76 73 71 70 68 69 69 67 67
78 80 79 78 78 76 76 75 76 78 79 78 78 77 79 77 80 85 87 86 86 89 91 91 89 85 87 86 85 82 81 78 78 79 75 72 71 71 72 69 69 68 68
80 81 82 81 81 82 81 80 79 84 81 79 77 80 81 82 83 86 89 92 91 93 93 93 90 87 85 83 84 83 80 80 79 78 78 78 76 73 73 72 70 71 68
83 83 81 80 81 81 80 82 82 83 85 84 86 89 89 90 90 91 90 94 98 92 91 90 85 86 88 87 86 82 83 82 82 80 79 78 77 76 71 71 70 70 68
83 81 81 78 77 78 80 80 83 83 85 88 92 93 95 96 97 97 98 97 93 88 88 87 90 90 90 90 88 89 88 84 84 84 82 80 77 74 73 71 69 71 69
82 83 85 83 83 82 82 84 86 89 90 91 94 98 100 102 103 102 101 94 92 91 88 87 90 93 93 94 94 94 93 88 87 85 84 81 81 80 77 76 74 76 74
85 86 86 86 83 86 87 89 91 94 95 97 98 98 100 101 104 104 101 98 93 94 97 96 96 99 100 100 101 101 100 99 97 95 95 95 92 89 87 82 79 78 75
89 89 88 88 91 92 93 95 98 99 99 100 101 101 100 100 97 96 98 100 102 103 103 104 105 103 104 107 111 113 112 111 106 98 96 92 89 87 82 78 77 77 78

GFSSE_250_spd_039.txt.gz
Wind_Speed
32 32 31 29 27 27 26 26 25 23 22 21 19 18 18 19 20 21 22 24 27 28 29 30 33 35 37 40 41 45 48 49 48 49 49 48 48 49 50 50 50 50 51
30 30 30 29 28 26 25 25 23 22 21 20 20 19 21 21 22 24 26 28 30 32 33 34 37 38 40 42 46 49 51 50 51 52 53 53 53 54 53 53 54 52 53
30 29 29 28 27 25 25 23 22 22 22 22 22 23 24 25 26 28 31 33 35 36 36 38 40 43 43 46 49 50 51 53 55 57 57 55 55 56 56 55 56 54 56
28 28 27 26 25 24 24 25 23 23 24 24 25 26 27 28 30 31 33 34 36 38 40 42 42 45 47 50 51 54 55 57 60 61 60 61 60 59 57 55 56 57 59
31 29 29 28 28 28 27 26 26 27 27 27 27 28 28 30 31 32 34 36 38 40 43 44 46 48 52 55 57 58 59 60 62 63 63 61 59 58 57 58 60 61 60
32 33 32 31 30 30 30 30 29 29 29 30 29 30 31 32 34 36 37 38 40 43 45 47 49 52 55 58 59 61 63 65 65 64 61 60 60 59 60 61 61 60 61
36 36 35 34 33 33 33 33 33 33 33 32 32 32 34 36 38 39 40 42 45 46 48 51 54 58 61 63 66 67 65 64 62 61 60 60 62 63 63 63 63 63 63
39 39 38 36 36 37 37 37 36 36 36 36 35 37 39 41 42 43 45 47 49 51 54 58 62 64 65 69 68 65 64 63 63 61 62 64 66 66 67 65 62 61 59
41 42 42 40 39 38 38 38 39 39 41 42 41 42 45 45 46 48 50 53 54 57 60 64 67 67 70 68 66 65 64 63 62 63 66 69 70 70 67 63 60 58 59
46 45 45 44 42 42 42 42 42 44 46 46 46 48 49 50 51 52 56 57 60 61 63 69 72 73 72 69 65 61 62 64 67 70 70 70 67 65 60 61 60 61 58
48 48 49 48 47 46 46 46 47 49 51 51 51 52 53 54 56 58 61 64 66 69 70 75 75 72 69 64 64 68 70 72 74 72 68 66 64 65 63 63 63 62 59
53 52 51 51 51 51 50 50 52 54 54 55 56 58 59 62 64 65 67 69 71 73 75 78 76 70 72 71 73 72 74 73 71 69 68 68 69 70 67 65 63 62 60
58 57 55 55 55 56 55 56 56 57 58 59 60 61 64 66 67 69 72 73 76 78 80 77 71 69 70 73 71 72 71 72 73 73 73 71 71 70 67 65 64 63 63
63 62 61 60 59 60 59 60 62 63 64 65 66 67 69 72 72 74 75 77 80 80 76 71 70 73 72 73 73 74 75 75 75 76 74 71 69 67 66 65 64 64 62
69 67 65 64 65 65 68 67 67 68 69 70 71 72 73 74 76 78 80 79 74 72 70 73 73 74 76 76 78 78 78 77 78 80 75 70 67 68 70 68 66 64 64
74 72 70 70 70 71 71 72 72 74 74 75 76 78 78 78 78 74 71 72 72 73 74 75 77 76 80 80 81 82 82 82 82 77 71 67 68 73 72 69 65 67 64
77 76 76 75 74 74 75 76 76 77 79 79 77 73 71 70 71 74 74 76 75 75 80 81 82 82 84 85 83 84 88 86 79 74 73 75 76 71 68 67 67 67 63
77 78 77 76 76 76 77 78 79 77 72 71 68 69 71 74 74 74 75 77 80 82 83 84 84 87 89 88 90 90 88 84 80 74 74 72 72 72 71 68 67 64 63
76 75 75 76 76 75 71 69 68 68 69 69 72 74 76 77 78 77 77 78 80 84 84 88 90 88 92 95 94 92 87 81 78 71 72 73 76 75 70 70 68 67 68
74 72 72 74 75 73 72 71 72 73 74 77 78 78 76 75 75 78 80 80 83 84 89 93 95 96 97 98 94 87 83 82 74 75 73 74 73 73 73 72 69 67 68
75 76 75 71 71 72 74 73 72 75 75 76 77 77 79 80 78 81 82 85 88 91 93 96 97 98 100 98 94 89 82 81 79 77 76 75 76 77 77 77 74 72 71
79 77 75 75 75 75 75 75 77 80 81 80 80 77 76 76 80 82 86 90 92 94 98 100 102 103 103 99 93 88 85 88 88 86 84 84 82 80 80 79 77 74 74
82 81 80 80 80 79 80 79 79 77 78 81 82 84 86 87 87 88 92 95 98 101 101 101 102 101 97 91 91 94 94 93 91 91 91 90 90 88 86 85 85 83 82
85 83 82 81 81 80 81 81 81 82 82 83 85 89 93 96 97 100 101 102 104 105 103 101 96 93 92 95 101 102 102 101 103 102 100 99 99 96 94 93 90 88 84
87 84 85 84 83 84 86 87 85 85 86 88 91 92 95 97 103 106 109 108 107 102 99 99 97 94 97 100 101 106 110 116 114 113 107 106 103 97 91 89 87 82 77
87 86 86 87 87 86 87 86 87 88 91 92 96 97 98 100 105 110 112 111 107 105 102 97 99 100 102 107 111 121 115 108 105 107 105 104 103 99 95 89 87 83 79

GFSSE_250_spd_042.txt.gz
Wind_Speed
33 35 37 36 35 33 31 28 26 25 24 24 24 22 20 19 19 19 20 21 22 23 25 27 29 31 33 35 38 40 42 44 47 49 51 52 54 56 57 58 59 58 56
32 34 36 36 33 30 29 27 25 25 26 25 24 22 21 20 18 20 21 23 25 27 29 31 32 34 36 38 40 42 45 48 50 53 54 56 58 60 61 60 59 55 53
34 35 35 35 32 28 27 27 27 26 24 24 22 21 20 20 22 23 24 26 28 29 31 32 34 36 39 40 43 46 49 52 55 57 59 61 62 62 59 56 53 54 56
31 33 33 32 31 28 28 28 27 25 23 22 21 21 22 23 24 25 26 27 28 30 32 34 36 39 40 43 46 49 54 56 59 62 62 62 60 59 57 56 57 59 62
33 32 32 31 29 28 27 26 26 25 24 24 24 24 25 25 27 27 29 30 32 33 34 36 39 42 44 47 50 55 59 60 63 61 61 60 60 59 58 58 63 65 67
34 32 31 29 28 28 28 27 27 27 27 27 27 27 28 29 29 30 32 33 35 36 38 40 44 47 49 52 55 59 64 66 66 64 61 61 60 60 60 63 66 67 65
33 33 33 32 31 30 30 30 29 29 29 30 30 31 32 33 33 34 35 37 39 40 42 45 49 52 55 59 61 65 70 67 69 67 63 62 65 66 67 68 67 66 63
36 35 34 34 34 33 32 31 31 32 32 32 33 34 35 36 37 38 40 42 43 44 47 50 53 56 60 63 66 69 73 70 69 67 66 69 69 70 69 68 65 63 64
39 38 38 38 37 36 36 35 35 35 35 35 36 37 38 40 42 43 45 46 48 50 52 55 58 61 64 66 69 74 74 71 69 64 68 69 70 68 66 67 66 67 66
44 42 41 39 40 40 39 39 39 38 38 38 40 41 42 44 46 48 50 51 53 54 57 61 63 66 69 72 74 75 74 70 67 69 71 71 70 70 72 71 72 70 67
49 47 46 44 42 41 41 42 42 43 42 42 43 45 46 49 50 52 55 55 58 60 64 66 68 70 73 76 78 75 68 68 72 75 73 75 72 72 73 74 72 69 66
52 50 48 47 45 44 44 46 47 47 47 46 47 48 51 54 55 57 58 60 63 65 68 70 72 75 77 78 74 68 71 76 76 78 78 76 77 76 76 78 72 65 62
56 54 53 50 48 47 47 47 49 51 51 51 52 53 55 58 59 61 64 66 67 69 72 74 76 77 73 70 70 74 76 79 79 80 79 77 79 80 80 76 69 63 61
61 60 56 55 54 53 53 53 54 54 55 55 56 58 60 63 65 67 69 71 72 75 77 75 70 70 72 75 75 77 79 80 80 81 82 82 83 82 79 73 64 63 64
64 62 60 58 56 57 58 58 59 59 59 61 62 63 66 68 70 72 74 76 78 76 71 69 72 74 76 77 78 79 81 81 82 84 84 85 84 79 76 71 65 64 62
66 64 63 62 62 62 61 61 63 63 64 65 67 68 70 72 75 76 77 78 73 69 71 72 76 77 79 79 79 81 81 83 82 82 85 86 83 73 70 69 63 62 62
72 69 68 67 67 67 67 68 68 68 68 70 72 73 74 76 77 79 74 73 72 74 74 77 76 76 80 80 84 83 84 85 86 88 90 88 85 77 71 65 66 63 64
71 71 71 73 73 72 71 71 72 73 74 75 76 76 77 77 72 69 71 75 76 76 74 76 78 80 84 86 85 87 88 90 92 92 92 89 84 76 69 66 68 65 64
75 75 74 75 75 74 74 75 74 74 74 76 76 76 75 70 70 71 73 72 74 74 74 77 80 82 85 89 92 92 95 96 96 92 91 83 77 73 73 74 74 68 67
72 73 74 75 75 74 75 74 73 73 71 71 71 70 69 70 70 71 74 76 76 76 79 83 84 85 89 94 98 101 101 101 94 90 86 81 78 83 81 80 79 76 75
75 75 74 72 72 71 69 68 68 68 70 70 71 69 70 73 75 75 77 77 79 82 83 86 88 92 95 101 103 105 102 95 93 90 85 83 87 87 86 86 86 85 84
76 76 76 76 73 72 72 72 73 71 70 70 70 72 75 76 77 77 78 80 85 87 90 92 97 100 102 105 107 107 100 96 94 91 91 90 92 95 95 95 95 91 89
82 81 78 76 76 75 75 76 75 74 75 77 77 77 78 80 81 83 84 86 89 92 96 99 103 105 110 110 108 106 101 94 93 97 99 101 102 102 101 101 96 92 86
89 87 82 80 78 78 78 77 77 77 78 80 80 82 84 86 88 90 90 91 93 97 101 104 106 111 113 111 110 105 100 98 99 100 105 114 112 105 98 93 93 90 88
91 89 85 84 83 81 80 80 80 81 80 83 85 85 87 90 93 94 97 99 101 102 104 107 111 112 112 109 107 102 102 103 107 112 116 100 103 105 98 89 87 84 82
95 92 88 87 87 87 87 87 86 87 87 88 89 90 92 93 96 98 102 105 107 107 111 111 112 110 108 104 101 102 106 110 115 105 101 96 89 99 98 95 86 79 74

GFSSE_250_spd_045.txt.gz
Wind_Speed
39 38 40 42 40 36 34 34 33 30 29 27 26 26 25 24 23 21 19 18 18 19 21 23 26 28 28 30 32 34 36 38 41 44 49 52 55 57 56 55 54 54 54
35 35 39 41 41 38 35 34 33 30 28 26 26 26 26 25 22 21 19 19 20 21 24 25 26 28 30 32 34 36 39 42 44 49 52 56 56 59 56 54 54 56 58
33 34 35 39 41 39 36 34 32 30 28 27 28 27 26 24 22 20 21 21 22 23 23 25 27 30 32 35 37 39 42 46 51 55 57 61 59 59 55 55 57 60 62
32 33 34 35 37 37 35 33 30 30 29 29 28 26 25 23 22 22 22 23 23 24 25 28 30 32 34 37 41 44 48 51 56 59 62 65 64 62 57 57 62 66 63
34 33 34 34 34 35 35 33 30 30 30 29 27 26 25 24 24 24 24 24 26 27 29 32 33 36 38 42 46 49 52 55 59 62 66 67 66 63 58 66 68 63 63
37 33 32 33 34 34 34 34 31 30 29 29 28 27 26 26 26 27 27 28 29 31 33 35 38 40 42 46 50 53 56 59 62 64 69 69 66 60 65 69 65 67 62
37 34 32 33 34 35 36 35 33 31 28 27 27 28 28 29 30 30 31 32 33 35 37 40 42 44 48 51 54 57 61 64 66 69 70 69 63 67 69 68 69 67 67
41 37 35 35 35 36 35 33 32 30 28 28 29 30 31 32 33 33 35 36 37 39 42 44 46 49 52 55 59 62 65 69 72 73 71 65 68 70 71 72 72 70 69
43 40 38 37 36 36 36 34 33 32 31 32 32 34 35 35 35 36 38 40 42 44 47 49 52 54 57 60 65 67 68 71 72 70 66 68 70 70 72 71 71 71 73
45 42 40 38 38 37 36 35 35 34 35 36 36 37 37 36 37 40 42 45 46 49 52 54 57 60 62 65 68 72 73 71 70 68 68 71 73 73 73 72 71 72 73
49 45 43 41 40 38 38 38 39 39 40 39 39 40 40 40 42 42 44 47 50 52 55 58 61 64 67 70 73 76 73 71 70 72 76 75 75 74 74 74 71 75 76
53 49 46 44 43 42 41 42 42 41 41 42 42 44 44 45 46 47 48 51 54 57 60 62 65 69 72 75 76 71 70 73 73 75 76 76 78 76 77 76 77 78 76
56 53 51 49 49 47 47 47 46 45 44 44 45 47 48 48 49 52 54 56 59 62 65 68 72 73 75 74 70 70 72 73 75 76 76 75 75 78 79 81 81 80 78
59 57 56 54 52 51 50 50 49 48 47 47 48 49 50 52 54 56 59 62 65 67 70 73 74 76 74 70 70 73 75 76 75 75 77 78 80 82 84 85 84 79 75
63 62 60 59 56 54 54 53 53 52 52 53 53 54 55 57 59 61 63 66 68 72 74 76 75 71 70 71 74 75 74 73 75 78 81 83 85 87 89 86 81 77 69
66 66 63 62 60 60 59 58 57 55 54 56 56 57 60 62 64 66 69 71 73 75 75 75 68 68 71 74 76 79 77 77 79 83 87 88 91 95 91 81 77 71 65
69 65 66 67 65 63 62 60 59 61 60 60 61 63 65 66 68 71 73 75 75 73 72 69 69 72 75 75 78 79 80 82 87 89 92 94 98 94 91 84 76 69 66
68 66 66 66 67 66 65 62 61 61 61 64 66 68 68 70 73 75 75 74 72 71 70 70 72 76 77 81 82 81 83 86 89 93 96 99 101 98 96 89 79 73 72
73 71 71 71 71 70 68 68 69 68 70 70 70 71 73 73 72 72 69 71 70 70 70 74 75 79 83 86 86 90 90 91 93 97 101 103 102 101 96 87 80 80 79
76 75 74 75 74 73 72 71 72 73 73 71 71 72 71 68 67 67 69 69 70 71 74 77 80 84 86 90 91 92 95 97 98 103 107 105 104 96 90 88 86 85 85
79 78 75 74 74 74 73 72 71 70 70 70 70 69 68 69 70 71 71 72 73 75 77 81 85 87 90 93 94 97 99 101 104 109 108 108 99 96 92 91 92 93 94
77 78 76 75 73 71 70 69 69 70 70 70 70 71 72 73 73 73 73 76 79 81 85 89 90 92 94 97 99 102 101 106 110 111 109 104 101 96 96 98 102 104 100
81 79 77 75 73 72 71 72 72 72 72 72 73 73 74 74 74 76 80 83 86 88 90 92 95 97 98 100 104 106 109 108 110 111 108 104 99 100 104 107 103 94 88
87 86 83 81 80 79 78 76 75 75 76 77 78 78 79 80 82 85 87 87 90 92 93 95 98 99 103 105 107 111 114 114 115 106 99 101 104 110 107 99 94 90 84
93 91 89 86 83 82 82 81 79 80 79 79 82 84 85 87 89 89 90 94 94 96 95 96 98 102 105 107 111 113 117 116 108 101 100 101 107 102 94 89 87 86 86
100 98 95 92 90 87 86 86 86 86 85 85 85 86 88 89 92 93 95 98 99 97 98 100 102 106 108 110 113 114 113 106 101 103 103 106 97 92 92 89 86 85 87

GFSSE_250_spd_048.txt.gz
Wind_Speed
38 37 38 38 40 39 40 36 34 34 34 33 31 29 27 26 25 25 23 21 21 19 18 19 21 22 23 24 26 28 30 33 36 40 44 49 53 56 58 58 58 53 57
37 37 39 39 38 38 40 38 35 33 34 34 32 29 26 25 24 25 22 21 20 19 19 20 21 22 23 26 28 30 32 37 40 44 48 51 54 57 60 59 57 55 60
35 33 36 38 37 37 40 39 36 34 34 34 31 28 25 25 25 24 21 21 21 21 20 21 23 24 26 29 31 33 36 41 44 48 51 53 57 59 62 61 55 58 60
33 32 32 33 34 37 38 39 37 36 33 32 30 27 26 25 25 24 24 23 23 22 23 24 26 28 29 32 34 37 40 44 47 51 54 57 60 62 63 57 58 61 62
33 34 33 33 34 34 37 39 40 37 34 32 29 28 27 26 26 25 26 25 24 25 26 27 30 31 33 35 38 41 45 48 51 55 58 61 63 63 60 58 62 64 64
36 36 35 33 33 33 34 37 38 37 34 31 29 29 28 28 28 28 27 27 27 27 29 31 33 35 37 40 42 45 48 52 55 60 62 66 66 62 60 64 66 69 67
39 38 36 34 34 34 34 34 36 36 33 31 30 30 30 29 30 29 28 29 29 30 33 35 36 39 42 44 47 50 53 55 59 63 66 67 66 62 64 70 69 68 67
42 40 39 37 34 35 36 36 36 35 34 33 31 30 30 30 31 30 30 31 32 34 36 38 40 43 46 49 52 55 58 61 64 68 68 67 64 66 70 71 71 69 69
45 44 42 38 36 35 36 36 36 35 33 32 31 30 30 31 31 32 34 34 35 37 40 42 45 47 50 54 56 60 64 66 69 71 68 66 67 71 74 72 72 72 73
50 47 45 41 40 37 36 35 34 33 33 32 33 33 32 32 34 36 36 37 38 40 43 45 48 50 53 57 61 64 68 71 72 70 69 69 72 75 74 71 71 73 75
53 49 48 46 43 41 38 36 35 34 34 35 36 36 35 37 38 38 38 40 42 44 46 48 52 54 58 62 67 69 72 70 69 67 69 73 75 75 74 74 75 76 77
57 52 50 49 45 44 42 40 39 38 38 38 38 38 38 38 39 41 42 43 45 47 49 52 55 59 63 67 70 71 70 68 68 70 73 76 77 75 75 75 78 78 81
61 57 53 51 48 46 45 43 41 40 39 39 40 40 41 42 43 44 45 46 47 49 52 56 59 63 68 69 70 69 67 66 70 71 74 74 76 78 78 79 81 82 84
62 60 57 53 51 50 48 46 45 44 43 44 44 44 45 45 46 47 49 49 51 54 57 60 65 68 70 71 69 67 67 69 71 73 76 78 79 80 83 84 85 88 90
64 64 60 57 55 53 52 52 51 50 48 47 48 48 49 50 50 52 52 53 55 58 63 66 69 71 72 69 67 67 67 71 74 78 80 82 85 87 88 88 90 92 91
66 64 65 62 59 57 57 56 55 53 53 52 51 52 53 53 53 54 56 58 61 63 66 70 71 71 68 67 65 69 73 75 79 83 88 88 90 91 92 93 95 96 96
69 68 68 65 62 61 60 60 59 59 58 57 56 56 57 57 59 60 60 64 65 68 69 69 68 66 67 66 70 72 76 79 84 88 89 92 95 94 96 98 100 100 100
72 71 69 67 66 66 64 63 62 62 61 59 58 58 58 58 60 64 67 68 67 67 66 66 66 68 70 72 75 80 82 84 88 90 93 94 95 98 100 103 104 103 97
73 71 70 68 67 66 66 64 63 63 62 61 61 61 62 65 68 70 69 69 67 67 67 67 70 73 75 79 81 84 88 91 92 95 96 96 99 102 106 108 108 104 91
73 71 70 69 68 69 68 67 65 65 64 64 65 66 68 69 69 68 70 71 69 68 69 72 75 78 80 82 86 90 92 93 94 96 99 101 104 109 112 112 109 99 90
75 74 72 71 70 68 67 67 67 69 69 70 71 71 71 70 69 70 69 69 69 72 75 77 81 82 85 90 90 92 93 96 96 100 102 106 112 113 114 112 101 93 96
81 76 75 75 75 75 75 74 73 72 73 73 73 72 70 71 71 72 73 75 76 78 81 83 84 85 90 92 93 95 96 97 101 102 106 110 114 115 113 102 95 100 101
83 81 78 75 75 75 76 77 76 75 74 74 73 73 73 74 74 75 77 78 79 79 81 84 86 88 91 95 98 99 96 97 100 106 110 114 114 113 104 98 101 103 101
88 86 83 79 76 76 76 77 76 75 75 74 73 73 74 75 75 76 76 78 81 82 83 86 90 94 96 96 98 100 104 104 105 106 109 112 110 101 96 100 105 99 91
93 91 89 87 83 80 79 77 77 77 76 76 76 77 78 80 80 81 83 86 89 90 92 94 95 96 98 99 101 104 105 108 109 111 111 110 101 97 101 103 95 91 88
99 97 95 93 89 85 83 82 81 80 80 81 83 84 85 86 88 90 92 93 95 97 98 98 99 101 101 102 102 105 108 110 111 114 113 104 95 100 103 93 90 85 76

GFSSE_250_spd_051.txt.gz
Wind_Speed
38 38 38 37 36 37 37 38 37 35 33 31 29 27 27 27 26 25 24 24 23 21 20 19 19 20 19 20 22 24 26 28 31 35 39 42 45 49 51 54 56 58 51
42 40 38 36 35 35 35 37 38 36 33 31 31 29 30 28 26 24 23 24 24 22 20 20 21 21 22 22 25 27 29 31 34 37 41 44 48 52 55 58 59 58 54
42 38 37 36 34 36 36 34 36 37 35 33 30 30 30 27 25 25 25 25 24 22 22 22 22 23 24 25 27 29 31 35 37 41 45 48 51 55 59 59 60 56 59
41 37 35 33 32 34 36 36 36 36 35 34 31 30 28 27 27 26 26 25 25 25 25 24 24 25 26 28 30 32 34 38 40 44 48 52 55 58 61 61 58 57 64
43 38 35 31 29 32 35 35 36 37 36 34 32 30 29 28 27 27 26 27 26 28 27 27 26 27 29 31 34 35 38 41 45 48 52 55 60 62 61 60 58 63 66
43 38 36 32 30 32 34 34 35 36 38 35 33 31 30 30 28 28 28 27 28 29 28 28 28 30 33 35 37 39 43 46 49 52 56 59 62 60 60 59 61 66 71
42 39 37 34 32 33 33 32 32 34 37 38 35 33 31 30 30 29 29 29 30 30 30 31 32 33 36 38 41 44 47 50 53 56 61 63 61 61 60 62 66 70 73
41 42 40 37 35 34 33 33 33 32 34 35 36 34 32 32 30 29 29 30 31 31 32 33 35 36 39 41 43 46 49 52 57 61 64 63 62 62 62 66 69 72 73
44 44 43 40 38 35 34 32 33 35 34 35 35 35 33 32 29 29 30 31 32 34 36 36 38 40 43 44 46 49 53 57 60 64 66 65 64 64 65 69 73 74 74
46 47 46 44 41 37 36 34 33 35 36 37 37 35 33 31 31 31 32 33 35 36 38 39 41 43 44 46 49 52 57 60 63 66 67 66 65 66 67 72 74 75 74
48 49 49 46 43 41 38 36 34 35 37 38 37 35 33 33 32 33 35 35 36 38 40 42 44 45 47 50 52 56 60 63 65 66 65 67 68 68 72 76 77 76 78
51 50 50 49 48 46 43 40 39 37 38 38 37 36 35 35 36 36 37 38 39 41 43 44 46 47 50 53 56 60 63 65 64 64 67 69 69 71 75 78 80 81 82
55 52 53 53 51 50 47 45 42 42 41 41 40 39 39 39 38 38 39 41 42 44 46 48 48 50 54 57 60 63 64 65 65 67 69 70 72 74 78 83 83 86 86
59 56 55 56 54 54 51 48 46 44 44 44 43 42 42 41 41 42 44 45 46 47 50 50 51 55 58 61 63 63 64 64 67 69 70 73 73 78 83 84 87 89 89
61 60 58 57 56 55 55 52 50 48 46 46 45 45 44 44 45 46 48 48 50 51 52 54 56 60 62 62 64 62 62 66 70 73 74 75 79 83 86 89 92 91 90
63 60 60 60 60 59 58 57 54 53 52 50 50 49 49 49 49 50 50 52 53 54 55 55 61 63 63 65 63 63 66 69 74 75 77 79 85 88 90 93 91 92 94
62 63 63 62 62 63 61 60 58 56 55 54 53 52 52 54 55 54 54 54 53 55 58 63 64 64 66 67 64 66 69 72 76 78 81 86 89 91 94 92 93 96 98
72 64 63 65 66 64 63 62 62 62 60 58 57 58 57 58 58 58 58 56 57 60 64 65 65 66 68 68 68 72 74 77 79 82 87 89 91 94 93 95 97 99 102
76 74 75 67 69 67 66 64 62 61 61 60 60 61 61 62 60 60 60 61 61 65 67 66 67 68 69 71 74 79 79 82 83 89 92 93 94 94 96 99 101 105 107
79 80 82 78 71 70 67 66 65 64 64 64 64 64 63 62 61 62 65 66 67 69 68 69 71 72 74 77 79 80 82 85 90 91 94 96 97 99 100 103 107 109 111
86 80 81 79 76 74 68 70 70 68 67 66 66 67 66 64 64 66 68 71 70 69 72 73 74 76 78 81 79 81 86 92 93 95 96 98 100 102 106 109 112 113 110
89 86 84 82 81 78 76 69 70 69 68 68 68 65 65 66 67 69 71 71 71 72 74 75 77 78 79 80 84 88 89 94 98 97 98 101 104 106 110 115 115 112 106
94 89 88 88 85 81 75 73 72 71 70 70 70 71 71 73 74 73 73 73 74 74 75 77 76 78 81 87 91 95 95 96 94 100 103 106 108 112 115 116 112 107 99
96 93 91 89 90 88 83 79 76 76 77 77 78 76 76 75 76 75 76 76 76 77 78 80 83 86 89 92 96 98 98 97 96 99 103 105 112 114 114 110 105 98 98
100 97 95 93 90 88 86 84 81 78 76 76 77 77 77 77 77 77 78 78 79 81 84 86 89 92 95 97 96 96 98 101 103 104 105 111 113 114 107 102 97 95 99
105 104 101 97 91 87 87 86 83 80 79 78 78 78 79 80 79 80 81 83 85 88 91 94 96 97 97 97 97 100 101 103 105 109 111 115 113 102 99 95 94 94 93

GFSSE_250_spd_057.txt.gz
Wind_Speed
41 41 40 38 37 34 34 33 32 33 34 34 33 32 33 33 31 30 26 26 26 26 24 25 24 25 27 29 28 28 27 27 29 30 31 33 36 38 43 46 49 52 55
42 41 41 39 38 36 35 35 36 36 36 36 36 33 32 32 30 29 26 28 27 27 24 25 27 27 28 30 30 29 28 30 31 32 34 36 40 43 46 47 50 54 58
42 41 39 39 39 38 38 37 38 38 38 37 37 38 34 32 30 28 28 29 28 28 26 27 28 29 30 30 30 31 30 32 33 35 36 39 42 43 46 49 54 56 59
44 42 42 41 40 40 39 39 38 39 38 37 36 33 32 31 32 31 29 28 29 28 28 29 30 30 31 31 32 32 32 34 35 36 38 41 42 44 48 53 56 59 61
48 46 45 43 43 42 40 39 38 37 36 36 34 30 28 29 31 32 30 29 29 29 29 30 31 31 32 32 34 34 34 36 37 38 40 43 44 46 51 55 56 60 61
51 50 47 46 46 44 41 41 38 36 35 34 32 29 30 31 32 33 31 30 30 31 31 32 32 32 33 35 36 36 37 38 38 41 42 45 48 50 54 57 58 61 61
49 49 47 45 46 46 44 40 37 37 34 30 29 30 30 32 34 35 33 33 33 33 34 34 33 33 35 37 38 38 39 40 41 43 45 47 50 53 55 58 62 61 63
50 48 46 46 46 46 45 42 40 38 35 29 30 31 30 32 35 36 34 34 34 35 36 35 34 35 37 38 38 39 40 42 43 45 47 50 52 55 58 61 63 63 65
54 50 47 46 47 48 46 43 41 39 38 31 29 32 30 31 33 36 36 36 37 38 38 36 36 37 38 39 39 41 42 44 45 47 50 53 54 58 60 63 64 64 67
57 52 48 46 44 45 48 44 41 39 41 36 30 32 32 32 32 34 36 39 39 40 40 37 37 39 41 41 41 42 45 46 48 51 53 55 57 60 61 65 63 65 69
56 53 49 48 45 43 44 42 41 40 42 40 33 32 33 34 36 36 38 40 41 42 42 40 40 41 43 43 44 45 48 50 52 53 56 57 60 64 66 67 67 69 71
56 54 51 50 47 46 43 43 41 42 44 43 38 34 34 35 37 39 41 42 43 43 43 43 43 44 45 45 47 49 50 52 53 56 59 60 63 66 68 69 72 73 74
57 55 54 52 50 49 46 43 42 43 44 45 44 39 36 36 35 38 41 43 44 45 43 44 45 46 47 48 50 52 53 55 57 58 62 64 65 68 69 72 74 76 77
66 59 57 55 53 52 51 47 45 44 44 46 46 45 41 40 38 38 40 42 43 44 44 45 48 49 51 53 52 55 55 58 60 62 66 68 69 69 71 74 76 77 78
70 65 60 56 54 51 51 49 47 47 46 46 47 48 47 43 43 42 43 43 45 46 47 50 51 52 54 55 57 59 60 61 63 67 68 70 71 72 75 77 78 78 79
75 72 66 63 58 55 55 54 52 51 50 48 49 48 51 49 47 47 47 48 48 49 51 53 54 56 56 59 59 62 63 64 66 69 71 72 74 76 78 79 78 79 86
77 73 71 66 64 58 54 53 52 54 54 51 53 51 51 52 52 52 51 52 53 54 55 56 57 59 60 61 63 64 65 67 69 72 73 75 77 80 79 77 79 87 92
76 75 73 70 69 64 58 56 56 56 56 55 57 55 54 55 54 56 56 56 56 57 58 59 61 61 63 65 66 67 67 69 72 74 77 78 80 78 78 83 87 92 96
78 75 74 74 72 67 63 63 63 59 60 60 60 59 57 59 60 59 59 61 60 61 62 63 63 65 67 68 68 70 71 73 74 77 79 81 81 84 88 87 93 95 97
83 79 76 75 73 71 69 69 70 70 68 67 66 67 63 63 63 64 62 60 62 63 63 64 66 68 70 70 71 71 73 76 79 81 83 86 87 88 91 94 95 98 102
88 87 80 79 76 73 72 72 72 72 69 70 70 69 71 69 68 65 66 64 64 67 68 69 70 71 73 73 74 75 78 81 83 86 88 89 90 92 94 96 100 104 107
96 93 90 88 85 80 78 75 77 76 77 77 74 72 75 76 72 71 72 69 69 68 70 72 73 72 74 76 77 80 83 88 86 89 92 92 93 94 97 101 104 109 115
102 101 97 95 94 89 84 81 78 77 77 78 77 77 78 78 79 77 78 73 71 67 70 72 73 74 76 78 82 85 86 87 88 89 92 95 97 100 103 108 113 114 117
104 103 102 101 97 96 95 90 83 85 80 81 81 78 78 80 81 82 77 72 73 72 73 76 79 79 79 82 84 86 88 89 90 93 94 98 103 107 109 114 117 118 120
103 103 103 103 103 102 98 96 94 92 82 80 83 80 80 83 84 84 79 77 77 77 79 79 80 82 82 84 86 88 91 93 95 97 98 103 108 114 113 115 119 120 120
108 107 106 105 104 104 103 100 97 96 95 87 83 86 85 84 81 80 84 85 85 84 84 85 86 88 89 90 91 92 94 95 99 102 105 107 110 114 118 119 121 116 117

GFSSE_250_spd_060.txt.gz
Wind_Speed
37 38 38 38 37 35 35 34 32 30 30 29 30 30 30 30 31 31 30 28 28 26 26 27 26 25 25 26 28 28 30 31 31 31 31 32 34 36 39 40 42 44 49
39 38 38 39 37 36 36 36 34 33 32 31 30 29 29 32 31 30 29 28 27 27 28 29 28 27 27 27 29 30 32 32 32 32 32 34 36 38 41 43 44 48 51
41 40 39 39 39 38 35 36 36 34 35 36 34 34 33 32 33 33 30 28 28 28 29 29 29 28 28 29 30 32 34 33 33 33 33 37 38 41 43 44 46 49 52
42 41 40 39 38 37 35 36 38 38 37 37 39 38 34 31 32 31 31 30 30 29 28 29 30 30 30 31 31 34 35 35 35 36 36 39 41 43 45 46 49 52 55
44 43 42 40 38 39 38 36 38 39 40 38 36 31 30 30 29 28 28 30 30 30 28 30 31 32 32 33 34 35 36 37 38 38 39 40 43 45 47 49 52 53 57
45 45 44 42 41 40 39 40 40 39 38 38 36 31 30 29 27 28 30 30 32 31 30 31 32 34 35 35 35 36 38 39 41 40 41 41 44 46 49 51 53 56 58
46 45 46 45 44 42 42 44 43 42 40 37 34 31 30 26 26 28 30 32 33 33 32 33 35 36 38 37 37 38 39 41 41 42 43 44 44 48 51 53 55 57 60
48 46 45 46 47 46 45 44 44 42 40 39 37 32 32 28 28 29 31 32 33 35 34 35 37 38 40 39 38 41 42 43 43 45 45 46 48 51 52 55 58 60 62
52 51 50 47 47 47 46 45 43 42 40 41 38 34 35 33 30 29 30 32 33 35 34 36 39 40 41 40 40 43 44 45 46 47 48 49 51 50 54 57 60 63 63
56 54 52 52 50 48 46 42 41 41 41 43 40 37 36 37 34 31 31 31 31 33 36 39 40 42 41 42 42 44 45 46 48 50 50 52 53 55 57 59 62 64 65
61 57 56 54 54 51 48 44 41 40 40 43 38 39 38 38 37 33 32 33 34 35 37 40 42 43 44 44 44 45 47 48 50 53 53 54 56 57 60 63 64 65 67
67 60 56 55 52 53 50 47 43 42 38 41 38 37 40 40 38 38 36 35 36 38 40 42 43 44 46 45 46 47 49 51 53 55 55 57 57 60 64 66 67 70 71
71 64 60 52 51 52 52 49 46 44 40 40 40 39 41 43 41 41 39 38 39 38 39 42 43 45 46 46 48 50 52 54 57 59 59 59 60 62 65 67 69 72 75
72 70 66 59 54 52 51 51 49 47 45 42 42 40 39 43 45 45 44 42 41 41 40 40 43 44 47 49 51 54 57 59 60 61 62 61 64 64 66 70 72 74 76
72 73 71 68 61 55 54 52 50 49 48 45 43 41 41 41 45 46 47 46 44 44 43 45 46 48 50 53 55 58 60 62 63 64 64 65 66 66 69 72 75 77 79
80 75 73 70 66 62 58 55 54 50 49 48 46 44 43 44 45 47 47 49 48 47 48 50 51 52 54 56 58 60 62 64 65 66 66 67 69 69 72 74 77 79 82
80 78 75 73 71 71 67 65 59 53 53 52 53 53 49 48 49 49 47 49 52 53 53 55 56 56 57 58 60 62 64 66 66 68 67 69 72 72 74 77 80 82 84
81 79 74 73 73 72 68 66 65 60 58 56 52 51 48 51 52 52 53 52 54 56 56 57 60 60 60 61 63 66 66 68 69 70 70 70 72 76 80 83 85 85 86
84 80 79 76 75 74 73 70 69 66 61 59 53 53 52 54 53 55 56 58 59 60 61 60 61 63 65 65 65 67 68 71 71 73 72 74 76 78 83 85 88 89 90
91 89 80 78 78 76 73 72 70 70 66 64 65 64 63 61 62 64 65 64 64 67 67 65 66 65 66 67 70 71 70 73 74 76 77 79 80 83 85 87 89 92 95
94 92 89 84 83 81 77 74 74 71 71 71 69 71 70 68 70 70 69 67 66 67 67 68 72 72 71 71 69 72 73 74 75 79 82 82 84 86 89 90 92 95 99
97 91 89 88 87 83 81 78 76 73 72 74 76 74 74 73 71 73 72 70 71 72 73 72 75 74 74 72 74 73 72 79 80 79 82 86 89 91 93 94 97 100 102
102 99 90 87 90 87 82 78 76 76 73 73 74 75 77 76 75 75 74 73 75 77 76 76 78 76 78 76 79 81 80 81 83 84 86 91 94 96 97 99 101 103 107
107 104 99 93 82 89 89 85 85 80 82 81 77 71 76 79 79 78 80 81 81 80 80 81 81 80 81 79 79 80 85 85 85 87 90 92 94 97 99 102 106 109 112
105 103 103 100 99 91 92 87 89 88 87 88 86 86 83 76 75 75 79 80 82 83 83 83 83 84 85 79 82 85 88 91 92 91 90 93 97 100 105 107 111 114 116
107 106 105 105 103 101 99 99 97 97 99 97 95 92 89 88 83 81 81 81 82 84 84 83 84 84 82 82 86 89 92 95 98 96 97 98 101 105 108 110 115 115 116

GFSSE_250_spd_063.txt.gz
Wind_Speed
37 36 35 33 33 35 33 31 31 31 31 30 30 30 29 28 28 27 28 29 30 29 27 26 26 26 28 29 29 29 29 30 32 34 34 34 33 36 37 38 40 41 42
39 37 37 36 33 34 34 31 30 30 31 31 31 30 30 29 30 30 29 29 30 29 27 26 27 28 29 30 30 31 30 31 33 35 35 35 35 37 40 42 42 43 45
41 38 37 36 33 34 34 33 32 31 31 32 32 30 32 32 34 33 30 29 31 30 28 28 28 29 29 31 31 32 32 33 35 36 37 38 38 40 43 43 44 45 47
43 41 39 38 35 34 34 34 34 32 32 32 34 34 36 36 34 30 30 28 29 29 29 29 28 28 30 32 33 33 34 35 37 37 38 40 41 42 44 45 45 47 49
47 44 42 40 37 35 35 34 33 33 33 33 33 33 32 35 30 28 30 28 27 28 29 30 28 30 31 33 35 36 36 37 39 40 40 42 43 44 45 46 48 50 51
50 46 43 42 38 36 34 35 34 34 34 35 35 34 33 32 29 29 30 28 28 30 30 31 31 31 33 35 37 38 38 39 41 42 43 44 45 47 47 49 50 51 54
52 51 47 43 40 38 37 36 36 35 36 37 38 37 34 32 30 27 28 27 28 30 32 33 33 34 35 36 38 39 40 41 42 43 45 46 47 49 50 51 53 54 55
54 53 50 43 41 40 40 39 39 38 38 38 39 38 36 35 32 29 30 30 30 30 31 32 35 35 35 37 39 41 42 43 43 45 47 48 50 51 53 53 55 56 59
57 51 53 48 42 41 41 41 42 42 41 39 39 39 38 37 34 32 32 33 32 31 30 30 33 33 36 39 40 42 44 45 46 48 49 51 53 53 55 57 58 59 62
57 59 50 53 46 41 41 41 42 43 43 39 39 39 38 37 36 35 34 35 35 32 31 29 31 34 37 39 41 43 45 47 48 50 52 54 56 57 58 58 58 60 64
63 58 55 52 52 47 46 45 45 44 44 41 39 38 38 38 37 37 37 37 37 34 33 33 33 35 37 40 43 44 46 47 48 50 53 56 58 60 61 63 63 64 64
63 63 60 58 58 50 47 47 47 49 48 45 42 38 38 37 38 37 39 40 39 38 37 37 37 37 39 40 42 44 46 48 49 52 55 58 60 62 65 66 67 68 66
63 61 64 64 61 59 50 49 50 51 51 49 46 42 40 38 38 37 39 41 42 41 41 40 41 40 41 41 43 44 46 49 51 55 57 60 62 65 65 66 67 68 69
56 61 62 63 64 61 59 54 48 49 50 51 48 45 43 40 41 40 39 40 41 43 44 44 43 44 45 44 46 48 50 53 55 58 60 62 64 65 66 67 67 68 70
69 62 63 68 70 67 62 60 55 49 48 49 48 49 47 44 44 44 43 42 42 42 43 46 46 46 48 49 50 51 54 57 60 62 63 65 66 65 67 67 70 71 74
60 67 73 67 66 64 64 64 64 61 53 52 49 48 50 49 48 48 46 45 44 44 44 44 46 48 49 52 54 55 57 59 62 63 64 66 69 67 66 68 70 73 76
72 48 61 71 72 69 65 63 65 64 62 58 52 49 50 51 52 53 53 51 51 48 46 48 48 49 52 53 55 56 59 62 63 64 64 66 68 70 70 70 74 75 77
75 74 72 73 75 75 75 74 69 66 64 64 62 59 55 54 57 56 56 54 53 52 51 54 55 55 55 57 59 62 62 65 63 64 68 70 71 72 75 77 80 80 82
80 79 81 84 81 81 79 79 76 72 69 67 67 64 60 57 57 55 51 53 53 57 60 60 58 58 58 60 61 63 65 67 69 69 75 73 73 74 78 81 82 84 86
82 88 85 82 75 71 74 75 73 73 70 68 68 68 67 65 61 57 63 65 65 66 64 63 62 64 65 63 65 67 70 73 72 77 78 78 78 80 82 83 85 86 89
93 82 77 90 87 88 85 79 78 71 70 69 69 70 69 70 69 70 69 68 68 68 67 67 69 69 67 67 69 71 72 75 78 79 81 81 82 84 86 87 89 91 93
102 95 90 82 80 78 82 78 80 78 74 72 72 71 72 73 70 71 74 71 71 71 70 71 72 71 73 74 74 74 74 79 83 82 83 86 85 83 86 91 94 94 95
107 105 100 93 90 81 78 79 81 81 83 82 82 81 81 76 71 71 71 72 71 72 72 74 74 76 75 77 79 82 81 80 82 83 84 86 82 86 90 94 95 97 99
110 109 105 100 96 92 87 83 82 80 79 77 80 85 82 80 79 78 73 75 75 74 77 77 80 80 80 81 83 84 83 81 82 82 83 84 84 89 92 98 100 100 103
108 110 109 106 99 95 85 85 82 77 79 72 78 82 83 82 81 80 79 78 81 83 84 83 82 83 84 84 83 85 85 83 83 82 85 89 89 92 94 98 101 103 103
102 104 107 108 105 103 92 86 89 92 91 87 89 88 91 89 86 86 86 85 83 81 79 82 82 82 83 83 84 83 84 85 88 89 90 94 95 95 100 103 101 104 104

GFSSE_250_spd_066.txt.gz
Wind_Speed
38 37 35 31 30 31 29 31 33 32 29 28 28 28 26 27 28 28 27 28 28 28 28 28 28 27 27 28 29 30 31 31 32 32 33 35 35 36 38 38 39 41 43
40 38 35 33 33 32 32 30 33 32 30 27 28 29 28 28 29 29 29 33 32 31 29 29 29 28 28 29 30 30 31 32 33 34 35 37 38 39 39 41 42 43 44
44 40 38 35 34 34 32 30 31 32 31 29 29 29 28 28 28 31 31 30 28 30 31 29 30 29 28 29 30 30 32 33 35 36 37 39 39 41 41 42 44 46 46
45 41 39 38 36 35 34 31 31 32 32 31 31 30 29 28 29 28 30 27 26 28 30 29 29 29 28 30 30 31 33 34 36 38 39 41 41 42 43 43 46 48 49
47 44 40 40 39 36 36 34 32 33 33 32 32 30 29 30 30 30 27 26 25 28 29 30 30 30 30 30 31 32 34 34 36 38 40 41 43 44 46 46 49 51 51
52 49 44 43 42 40 39 38 35 33 33 32 31 31 31 33 32 30 27 27 25 26 27 29 30 32 33 32 33 34 35 37 38 40 42 44 45 47 48 49 51 52 53
55 50 48 47 44 42 41 40 38 35 33 33 31 32 34 35 33 30 31 29 26 25 28 30 31 32 34 33 34 35 35 37 39 40 42 44 46 48 49 51 53 54 55
55 54 52 50 48 45 44 43 41 37 35 34 34 34 35 36 36 32 31 30 29 28 30 32 32 31 32 33 32 33 36 38 39 41 43 45 47 49 52 54 57 57 59
58 56 54 54 52 49 46 45 43 40 38 39 37 37 37 37 37 35 33 32 31 30 31 33 34 32 31 31 33 36 37 38 41 43 44 45 47 50 53 56 58 60 63
59 54 53 53 52 48 49 47 44 40 39 39 39 39 39 38 37 36 33 32 32 33 33 34 34 34 33 33 34 36 38 39 42 43 45 47 49 51 54 57 59 62 64
55 56 54 53 53 53 49 49 50 44 41 41 40 39 40 39 37 37 35 33 32 35 34 35 35 35 36 37 37 38 40 41 43 43 45 47 50 54 57 60 63 65 66
56 55 58 57 57 55 54 52 52 51 46 43 43 42 42 42 41 40 37 36 33 34 36 37 38 39 39 38 40 41 41 42 43 44 47 50 54 56 59 60 62 63 64
57 55 56 56 57 57 56 53 52 53 51 44 44 45 45 46 46 44 42 40 38 36 37 38 39 41 42 42 42 43 44 44 45 46 49 52 55 58 59 59 62 64 65
59 61 59 56 58 57 60 60 59 56 54 52 47 44 45 45 48 49 46 44 43 41 41 40 39 40 41 41 44 46 47 48 50 50 51 55 58 60 60 62 67 69 70
57 45 50 54 59 60 61 61 64 61 58 55 53 49 44 42 47 49 50 49 48 46 45 43 42 41 43 44 44 43 44 46 47 49 54 57 59 61 63 68 71 73 74
74 61 49 51 56 59 61 65 58 58 60 59 57 56 53 50 47 48 50 53 52 50 48 46 46 46 47 46 48 51 50 50 52 53 57 59 60 64 69 72 71 76 77
82 84 70 72 60 64 66 64 59 60 64 64 62 60 61 61 55 53 52 52 53 52 52 53 54 53 52 52 53 55 54 55 58 59 58 63 67 69 71 75 78 78 80
81 65 51 70 68 62 72 74 71 66 60 63 61 58 61 60 61 61 59 58 57 56 57 56 55 56 56 55 56 59 58 61 64 62 64 68 70 72 75 80 81 84 83
86 81 76 73 69 82 75 73 66 68 69 69 65 64 65 64 65 65 65 64 61 58 55 56 57 60 60 60 61 63 63 67 66 65 67 68 73 75 78 81 83 83 85
90 85 72 71 74 78 75 78 62 61 63 67 70 71 74 74 74 70 69 69 67 63 60 61 65 66 65 62 64 67 68 71 69 69 73 73 77 80 80 81 83 85 84
94 89 86 63 70 71 71 79 79 77 76 76 75 75 68 69 67 68 68 68 70 69 69 65 65 65 67 68 69 70 72 73 74 74 75 77 80 79 80 83 84 83 81
96 93 91 73 64 69 72 74 75 77 76 74 67 70 71 76 72 65 67 71 72 72 71 71 66 65 67 67 69 71 72 72 78 78 82 82 80 81 85 84 85 83 87
93 98 93 85 83 78 75 74 79 76 76 76 76 78 78 78 78 78 80 81 76 76 77 76 75 72 74 76 74 72 76 78 82 83 83 83 83 85 85 85 87 90 91
94 87 88 88 90 91 85 72 77 67 66 72 80 80 81 79 75 78 82 83 82 81 81 81 83 82 83 82 82 86 80 78 77 80 83 84 83 84 87 90 91 91 92
108 99 93 91 88 89 91 89 86 85 76 72 64 66 71 73 68 69 72 79 84 83 84 81 82 86 84 81 82 83 85 85 82 83 83 89 90 86 84 90 92 98 102
116 113 108 105 106 108 96 90 82 85 89 84 84 83 84 79 79 86 88 88 87 85 85 87 87 87 86 84 84 84 86 85 85 88 89 88 89 93 98 101 105 107 109

GFSSE_250_spd_069.txt.gz
Wind_Speed
41 42 41 38 36 32 29 28 27 26 29 29 29 28 27 27 26 25 25 26 27 29 29 28 28 29 30 29 28 28 29 29 30 30 31 32 34 35 37 38 38 38 39
42 40 41 38 36 33 31 30 30 29 29 31 30 29 27 26 26 25 25 28 28 29 26 25 26 28 29 29 29 28 29 29 30 30 31 32 34 36 38 38 40 40 41
44 42 41 39 35 33 32 32 31 30 30 30 29 28 29 27 26 25 25 27 26 23 23 24 25 26 28 29 29 29 29 29 30 31 31 32 35 37 39 40 40 42 42
49 45 44 42 38 35 34 33 32 32 31 29 30 30 29 30 29 26 26 25 24 22 23 24 25 26 28 28 29 30 29 30 30 32 32 34 36 37 39 41 42 43 44
52 48 45 43 42 39 37 35 34 34 33 31 31 31 31 32 31 28 27 26 24 24 24 23 23 25 28 29 30 31 31 32 32 34 34 36 38 38 40 43 44 44 47
55 53 47 45 43 41 40 37 36 36 35 34 33 33 32 32 30 30 29 27 27 25 24 23 24 25 28 30 31 32 32 33 35 34 35 37 38 39 42 44 45 47 49
57 55 50 47 48 44 43 40 39 39 39 37 36 34 33 31 31 31 31 29 28 28 26 25 25 27 28 30 30 31 30 32 33 36 36 37 39 40 42 43 45 48 51
57 57 54 50 51 50 48 45 43 40 38 40 38 36 34 33 32 33 33 32 28 29 28 27 27 27 28 30 30 30 30 31 32 34 36 38 40 41 42 44 47 50 52
57 58 58 55 54 52 50 47 47 45 42 41 43 39 37 36 35 34 35 33 30 29 29 29 29 29 29 29 31 31 32 33 33 35 37 38 40 41 44 47 49 52 53
56 58 58 54 53 57 57 53 50 48 45 43 43 43 39 38 38 37 36 33 32 30 28 28 28 29 31 31 32 33 34 36 37 37 38 40 41 43 46 48 52 53 55
61 59 57 59 53 53 55 54 51 48 46 46 43 45 43 38 38 37 37 36 35 34 32 30 30 30 32 33 34 35 36 37 38 39 41 42 44 44 46 50 52 53 58
56 59 58 55 57 56 55 53 52 50 49 48 47 47 47 42 37 39 40 40 40 39 37 35 34 34 34 36 38 38 38 39 40 41 42 43 43 45 49 51 54 55 61
54 58 56 57 49 49 51 52 51 53 52 50 50 48 49 48 41 38 40 42 43 42 43 40 39 38 39 39 39 39 40 40 40 40 42 44 45 49 53 56 57 61 65
54 44 47 54 55 51 51 53 54 55 53 53 51 49 47 49 47 43 41 40 42 44 45 43 44 45 44 42 40 41 43 45 44 43 46 48 52 53 57 57 62 66 69
78 68 59 44 48 49 53 57 62 57 55 56 53 53 53 52 50 49 47 48 44 43 44 45 47 48 47 45 46 47 49 50 49 50 51 54 52 57 60 62 66 71 72
81 73 69 67 39 39 46 51 56 58 55 55 56 57 57 57 55 54 51 53 53 55 50 48 47 48 49 50 51 52 54 55 56 56 55 58 58 63 65 66 67 69 74
77 71 74 66 75 72 50 51 52 52 55 53 53 57 51 51 55 57 57 56 58 59 55 54 54 54 53 53 54 54 56 57 59 57 58 60 61 67 69 71 72 72 75
81 77 77 73 70 60 63 48 45 54 57 55 53 54 54 56 56 59 57 54 54 55 56 56 58 59 55 53 53 57 60 63 61 61 58 65 68 70 71 73 75 77 78
84 79 73 76 76 77 62 59 60 48 50 50 49 52 59 63 64 62 59 60 60 62 65 66 65 63 60 59 59 64 61 59 60 62 65 67 68 70 73 76 80 78 79
84 87 80 77 68 77 81 75 75 80 79 63 61 62 63 66 63 65 66 66 66 69 67 63 61 60 60 63 62 63 66 64 64 66 68 69 72 75 79 81 83 82 80
86 87 81 77 84 85 76 78 76 66 59 64 66 67 71 63 65 64 64 70 71 68 64 65 61 65 67 67 69 68 69 67 74 77 79 76 77 79 79 80 82 80 79
87 85 83 81 68 74 82 74 71 59 68 65 65 70 71 76 76 76 76 73 70 64 64 69 78 75 74 75 75 72 76 81 80 79 82 81 80 77 79 81 83 81 85
99 86 85 90 88 83 89 89 84 84 80 79 82 75 73 75 79 76 77 77 73 72 74 80 77 75 76 77 76 78 79 80 81 83 81 82 82 82 82 82 85 87 82
98 102 90 97 84 85 87 89 91 79 81 79 73 72 76 80 77 77 79 79 80 84 86 86 85 84 83 85 87 89 80 78 81 79 83 83 82 83 83 83 85 94 99
101 99 102 105 96 90 97 92 84 86 79 79 76 78 83 82 79 80 82 86 89 93 94 95 90 91 89 82 80 82 81 82 80 84 84 88 85 82 84 88 96 103 106
107 99 100 101 104 108 104 101 97 93 85 88 83 83 86 87 83 85 88 89 90 90 88 92 94 90 86 88 86 84 86 87 85 91 90 91 92 89 93 96 104 109 110

GFSSE_250_spd_072.txt.gz
Wind_Speed
43 41 39 36 37 36 34 31 29 27 26 24 25 26 26 26 25 24 24 23 24 27 30 29 27 26 25 25 26 28 28 27 27 26 26 25 26 27 28 31 32 32 34
47 45 43 40 38 38 37 35 31 29 28 27 26 26 27 27 25 23 23 22 24 25 26 23 22 22 22 22 23 25 27 27 27 26 26 26 27 29 30 32 33 34 36
45 46 44 42 38 37 38 35 32 30 29 28 27 27 26 27 25 23 23 23 23 23 22 20 21 23 21 20 22 25 26 27 26 26 26 27 28 30 31 31 33 35 34
48 47 46 43 40 37 37 34 33 31 29 29 28 27 27 27 27 26 25 24 24 24 23 20 20 22 20 20 22 24 26 27 26 25 26 29 29 31 31 32 33 34 35
53 50 49 44 42 40 37 37 35 34 31 30 30 29 27 28 28 29 29 26 24 23 25 24 19 20 21 22 23 23 24 25 25 24 27 27 30 30 31 33 34 34 36
57 53 51 49 45 43 40 39 39 38 35 32 32 32 30 29 29 31 31 28 25 25 25 25 23 21 22 23 23 23 23 24 25 25 25 27 28 30 32 33 34 36 37
57 55 53 51 49 47 44 41 39 38 36 35 35 35 35 31 31 31 30 29 28 26 25 25 24 24 22 24 25 25 26 27 28 28 28 29 30 32 32 33 34 35 40
62 58 54 54 51 49 48 46 43 42 39 39 37 36 34 33 34 33 31 31 31 30 27 25 26 26 26 25 25 27 27 28 28 29 30 31 32 33 34 34 35 39 43
66 62 56 54 55 52 52 49 47 47 46 45 43 40 38 36 35 37 35 34 33 31 29 27 26 26 25 23 24 25 27 29 30 30 32 33 34 35 36 37 39 43 46
70 65 62 56 54 54 55 53 49 50 49 47 44 43 40 39 37 37 39 37 33 31 29 29 29 29 28 27 26 28 30 31 32 33 34 36 37 36 40 39 44 46 49
60 60 60 60 58 53 55 56 55 53 54 52 51 47 43 41 40 38 38 39 36 35 32 32 33 34 32 31 30 32 33 35 34 35 36 38 38 39 40 45 48 49 51
60 58 57 58 61 58 56 56 57 53 49 50 51 49 45 44 41 41 41 40 37 34 33 33 35 36 38 36 35 36 36 36 36 37 40 43 44 44 47 49 51 52 58
48 54 59 58 56 56 57 58 56 55 53 52 50 49 48 45 44 43 42 43 42 38 34 33 31 33 35 36 38 41 40 37 37 42 45 48 49 52 55 54 53 55 59
67 59 57 62 63 59 58 55 54 54 47 46 48 48 48 48 46 43 42 40 41 42 40 39 39 38 37 39 39 41 42 41 42 45 47 52 53 56 57 56 57 58 63
58 55 44 46 48 52 55 53 46 45 48 46 47 52 51 54 51 48 46 45 47 46 45 44 45 47 48 45 46 46 46 46 47 47 50 53 55 57 56 56 62 63 65
62 69 59 54 45 37 42 44 47 50 53 52 50 53 53 51 49 51 50 50 53 53 53 50 50 49 50 45 45 47 47 49 48 48 52 58 58 57 57 58 62 66 71
70 74 68 57 51 54 43 40 39 44 48 47 49 50 50 48 48 50 51 50 48 49 51 51 51 48 47 48 50 54 53 52 57 59 56 58 57 55 55 61 66 72 78
88 82 77 69 63 54 53 61 62 56 55 57 62 58 59 54 54 47 46 50 52 53 53 54 55 55 55 54 55 55 49 52 56 55 56 57 59 61 65 69 74 76 74
91 82 70 76 77 68 69 72 74 70 67 65 70 69 64 52 50 48 51 50 53 55 55 58 60 62 64 63 61 53 52 56 56 62 66 66 68 72 72 76 75 76 73
92 82 83 81 83 82 77 72 58 59 68 67 65 70 54 48 49 52 56 61 60 63 62 65 65 66 66 64 60 60 67 68 69 71 70 69 72 71 77 76 76 74 75
95 90 92 82 81 76 75 69 73 65 68 68 71 74 71 65 65 68 75 72 69 63 65 65 66 68 72 71 69 74 79 76 71 73 75 74 72 77 75 76 78 74 79
101 94 86 90 81 77 70 72 69 76 79 77 80 80 86 84 77 67 69 71 71 71 72 76 79 81 81 80 82 88 87 75 74 78 73 78 74 72 77 77 76 79 82
97 104 96 93 86 70 65 71 70 72 75 79 82 85 86 81 78 71 66 70 75 78 79 83 85 85 89 86 89 84 77 80 81 79 79 79 80 78 81 81 83 85 88
106 100 102 97 93 89 77 71 69 67 74 75 75 74 79 84 83 78 77 79 82 85 86 84 83 89 92 94 83 79 77 82 80 82 86 80 81 80 80 84 87 89 96
105 103 105 107 105 102 103 87 80 75 72 79 86 86 78 81 87 87 91 90 88 85 87 91 90 89 90 86 87 91 84 85 81 76 75 81 81 85 85 89 100 105 103
102 96 94 98 103 103 100 104 97 92 89 90 91 90 90 92 95 96 96 91 87 88 91 92 96 96 93 95 94 95 92 88 77 85 81 88 88 96 103 102 107 109 115

GFSSE_250_spd_075.txt.gz
Wind_Speed
41 40 39 39 38 35 30 29 27 27 25 25 23 22 21 23 24 23 22 21 19 20 22 25 26 21 19 17 17 16 17 19 20 20 20 19 20 20 21 22 24 23 23
45 44 45 43 40 36 33 30 29 28 27 28 26 23 25 24 25 23 21 19 18 19 20 23 21 18 17 17 13 13 16 19 20 18 18 17 18 19 21 23 22 23 24
49 47 46 44 43 39 36 32 30 30 30 29 28 25 23 24 23 23 21 19 20 21 21 22 21 20 17 14 14 15 17 17 18 18 17 16 18 19 20 21 21 22 25
55 50 49 46 44 42 38 35 32 29 28 29 28 25 24 24 24 24 23 22 23 23 22 21 22 21 17 15 15 15 17 18 18 19 18 17 18 19 21 21 22 23 24
59 54 51 50 45 43 40 37 33 31 30 30 30 27 26 25 25 26 23 24 25 24 23 21 22 22 20 19 18 17 18 18 19 20 20 21 21 22 23 24 23 24 26
63 59 56 52 48 44 42 39 37 33 33 33 32 31 29 29 27 29 25 25 26 26 24 23 23 23 22 22 21 20 19 19 20 21 21 22 23 24 25 24 25 28 28
67 63 59 56 51 48 46 43 41 39 35 33 33 33 32 32 31 28 28 27 28 28 26 26 25 23 23 22 22 22 20 20 21 22 22 23 25 26 28 28 27 33 34
70 68 64 59 56 52 49 46 44 43 39 36 35 35 34 34 33 31 29 30 28 29 30 28 26 23 23 22 21 22 22 22 23 25 26 26 28 30 32 32 32 35 38
69 67 68 63 59 54 53 50 48 46 44 41 40 40 40 40 38 36 35 32 32 31 31 32 28 24 23 25 25 23 23 25 27 29 29 29 29 31 33 34 39 39 41
64 66 70 65 63 57 54 50 50 48 49 46 45 43 44 42 41 39 36 38 35 34 33 33 33 29 25 27 29 30 28 27 29 31 31 30 32 36 39 40 42 45 50
67 64 64 71 67 61 58 56 50 50 53 51 49 47 46 46 43 43 42 37 37 34 33 32 30 28 29 26 26 27 30 29 33 35 34 33 36 39 42 46 45 47 51
69 69 59 64 68 66 62 60 55 52 49 51 51 50 48 49 47 45 43 41 38 35 35 35 34 32 31 28 26 25 26 30 31 34 34 36 39 41 46 47 49 50 50
71 72 66 60 61 66 65 62 59 57 53 52 52 53 52 45 44 45 44 42 40 39 37 35 34 35 34 34 34 33 33 34 35 36 38 40 43 42 47 52 52 52 52
59 64 69 67 58 58 58 59 60 62 55 54 57 53 51 52 49 45 44 44 44 42 39 37 37 38 39 39 40 43 42 38 37 38 39 41 43 48 52 54 54 54 53
77 66 66 63 66 60 59 59 59 54 56 56 56 54 52 50 47 48 50 49 49 46 45 42 43 44 45 46 42 44 44 42 39 40 44 46 51 55 56 55 55 54 54
81 77 72 56 54 64 62 57 58 60 58 55 54 51 49 49 48 50 50 49 46 45 46 48 49 45 46 45 45 45 45 46 47 45 45 52 54 55 54 59 62 62 65
68 70 72 76 61 62 60 50 50 45 53 57 54 52 52 51 51 53 52 49 47 49 46 49 49 49 46 47 49 48 51 50 51 54 58 60 57 61 58 61 64 65 65
77 66 60 60 64 64 67 54 51 51 48 50 48 49 50 50 51 46 41 45 51 53 58 53 50 52 49 52 51 53 54 56 59 60 64 59 63 68 65 62 61 62 67
72 67 67 65 63 61 58 56 53 54 50 42 42 46 52 59 63 65 64 63 63 61 49 48 50 52 54 58 59 61 61 62 64 64 63 65 70 74 64 68 66 70 68
87 68 64 73 68 63 66 60 58 56 55 58 54 59 59 66 69 73 72 66 57 57 54 56 57 60 66 68 73 74 71 64 62 66 66 71 72 67 71 73 77 74 72
85 83 74 65 60 59 67 73 70 65 65 61 67 69 77 82 79 80 75 71 69 69 73 71 75 77 71 76 72 68 68 70 69 70 72 75 75 73 73 78 82 81 72
90 81 83 78 66 66 66 67 70 71 69 70 71 70 64 65 57 65 70 66 71 73 77 81 79 82 78 78 72 71 74 76 70 72 75 82 82 73 81 84 84 64 76
103 92 83 86 77 69 81 67 72 74 79 75 64 64 61 62 66 71 72 73 75 78 80 85 86 80 80 84 77 78 82 79 81 83 83 83 81 87 85 80 81 74 77
116 109 96 95 80 74 83 85 63 73 75 74 68 70 69 71 76 76 79 83 86 88 89 88 84 88 88 90 94 91 92 86 87 81 87 90 91 93 84 83 82 90 87
109 109 104 109 95 82 81 87 83 74 59 72 74 72 73 74 74 60 57 65 74 76 82 79 80 90 89 94 97 95 91 85 83 90 94 94 91 86 88 94 97 97 96
102 107 101 98 103 97 91 90 87 81 71 59 71 78 79 78 76 75 75 72 74 87 89 86 86 92 96 96 98 103 92 94 98 96 87 87 88 97 99 104 100 98 96

GFSSE_250_spd_078.txt.gz
Wind_Speed
43 39 38 38 38 36 35 32 27 24 23 22 21 22 22 20 19 19 23 21 20 18 17 20 21 24 23 20 17 12 10 11 13 14 13 11 11 12 13 13 13 14 14
49 44 42 41 40 39 37 34 32 27 23 21 22 23 23 23 21 20 21 21 20 17 17 19 20 22 21 20 16 11 10 11 12 13 13 12 12 12 13 15 15 16 16
54 48 45 43 42 41 39 38 35 32 27 25 25 25 24 23 21 20 20 20 20 19 18 20 19 21 21 19 16 13 12 12 12 13 13 13 14 14 15 16 17 18 20
57 54 49 46 44 42 41 40 38 36 31 27 25 25 25 23 22 22 21 21 21 21 21 21 21 20 21 19 19 19 16 14 13 14 15 15 15 16 18 20 21 21 22
63 59 55 49 48 45 44 42 39 37 33 29 27 26 26 24 23 24 22 22 22 22 22 22 22 21 20 19 18 19 21 20 17 15 16 17 17 19 20 20 24 26 25
70 65 61 54 49 49 46 44 40 39 36 33 29 29 28 27 27 27 26 24 23 24 23 22 23 23 22 20 18 19 18 18 18 18 19 21 22 23 23 24 26 28 29
68 66 64 63 57 53 50 46 44 42 40 37 34 32 30 29 30 30 28 26 23 24 26 27 25 24 22 22 19 19 19 18 17 18 20 23 25 25 25 24 28 29 31
73 69 66 65 63 59 56 52 48 45 43 40 37 36 34 32 30 32 31 30 30 30 28 29 29 27 27 25 23 21 21 21 20 22 22 24 25 26 26 28 32 35 40
74 74 72 68 66 64 61 56 51 47 46 43 41 40 38 37 36 36 35 35 35 34 31 31 29 30 27 26 26 24 25 27 27 26 25 28 28 28 30 33 36 39 42
78 72 70 71 69 66 64 60 55 52 50 47 45 43 41 41 40 39 39 38 38 36 38 35 29 29 29 26 24 25 23 22 23 25 26 26 29 31 31 34 38 42 45
69 68 66 65 66 68 68 64 60 57 52 50 49 44 44 45 45 44 43 41 42 40 40 36 33 33 30 29 28 27 25 25 26 25 27 29 30 34 33 37 38 45 49
65 67 64 68 66 65 66 64 64 61 55 52 50 47 47 49 49 49 46 46 43 44 40 40 35 32 33 32 32 31 30 31 33 32 32 35 35 34 35 41 44 48 50
69 74 67 63 66 68 64 62 63 62 59 58 53 49 48 47 46 46 50 48 43 42 42 42 40 39 36 34 33 34 35 36 38 39 38 38 38 37 42 47 46 48 50
69 67 65 64 65 62 61 56 57 59 62 63 59 57 53 51 51 47 49 50 49 45 45 45 43 41 38 39 38 40 39 40 42 42 42 42 41 45 47 50 55 49 57
65 61 64 71 72 71 63 60 56 58 59 59 56 60 59 57 54 51 52 52 50 51 51 49 47 46 46 46 44 46 47 47 43 45 46 46 45 47 51 55 52 51 58
70 62 54 61 64 70 69 67 62 56 56 59 59 58 60 59 58 55 53 55 53 52 52 48 46 44 45 45 47 50 49 45 46 48 47 45 51 53 55 52 52 56 59
76 61 53 51 63 71 66 67 64 58 56 55 56 58 55 51 53 51 56 53 52 51 48 46 40 41 45 49 55 56 53 50 50 48 46 59 62 61 54 57 60 59 61
79 67 63 53 58 58 62 64 64 64 63 60 57 59 56 59 58 60 60 55 54 51 48 45 44 51 56 58 52 50 51 50 50 50 59 64 60 56 58 64 61 63 68
83 71 69 67 65 63 58 57 56 57 64 65 55 54 56 55 57 60 61 59 49 42 48 54 58 61 58 57 58 52 51 51 55 61 63 66 62 59 64 64 67 67 71
91 70 77 72 72 70 72 62 58 56 63 57 55 56 55 54 55 57 56 52 55 57 60 64 66 66 65 62 57 59 65 70 70 65 67 66 63 63 68 69 72 73 75
100 103 98 88 74 78 88 78 68 66 65 61 56 56 56 56 54 53 52 59 64 66 69 71 70 72 73 69 67 69 71 76 79 72 76 72 70 72 76 81 73 74 76
88 100 107 86 84 81 70 66 63 63 64 60 63 60 59 62 61 66 69 69 73 69 69 75 85 85 71 68 74 74 74 74 79 83 79 80 77 76 81 84 78 74 84
87 90 86 85 87 77 71 69 70 69 69 67 67 69 63 64 68 72 70 69 64 69 76 75 74 73 76 81 81 75 78 82 83 80 80 84 79 79 82 81 80 88 76
96 86 98 91 88 88 79 75 74 77 73 76 73 72 70 70 69 71 67 62 47 67 60 60 66 76 82 82 82 84 92 90 95 83 84 83 82 81 93 86 89 86 86
105 99 107 114 103 102 89 79 78 76 71 68 75 71 76 73 72 70 73 65 52 66 64 68 63 72 78 84 89 85 84 79 87 85 92 82 92 95 97 92 94 94 95
105 108 103 100 103 100 90 90 82 79 77 79 75 75 70 73 70 68 65 67 68 77 85 79 83 91 92 93 86 82 86 82 93 96 90 95 97 100 103 103 103 98 108

GFSSE_250_spd_081.txt.gz
Wind_Speed
51 47 43 39 38 37 34 31 31 27 23 22 21 20 18 17 17 17 18 18 18 19 19 18 18 19 21 21 20 17 12 10 9 10 10 10 10 10 10 12 12 13 14
56 51 48 43 40 40 37 34 33 32 28 24 22 20 20 20 19 18 19 19 20 18 18 18 18 20 20 20 20 16 15 14 11 8 9 9 9 11 12 13 13 16 18
61 59 51 49 44 41 39 37 34 33 31 28 23 23 21 21 21 19 18 18 19 18 19 20 19 19 20 21 21 17 16 17 16 15 12 11 12 13 14 16 17 19 22
64 61 57 53 50 44 41 40 39 37 35 32 28 25 23 21 20 21 20 19 18 19 20 20 20 20 19 20 20 18 17 17 15 16 15 15 16 16 19 20 20 21 24
68 63 61 58 54 51 45 43 41 39 36 33 31 27 25 23 20 21 22 23 20 19 20 20 20 22 22 21 20 19 18 18 17 15 15 17 18 21 23 23 23 22 24
68 64 63 63 58 55 52 47 44 41 38 34 33 29 26 26 24 23 24 24 24 21 20 20 22 22 24 22 21 22 20 18 18 18 17 18 20 22 25 26 26 27 30
74 71 63 64 63 58 55 52 48 44 41 39 36 34 31 29 28 26 26 27 26 25 22 23 26 25 23 24 24 22 21 22 21 19 20 22 22 24 26 26 28 31 33
79 75 69 63 66 63 60 56 52 47 44 43 40 37 36 32 30 29 29 28 28 28 29 28 28 27 26 25 24 24 23 23 24 25 27 27 24 26 27 28 29 32 35
74 73 74 69 65 67 66 61 60 54 49 48 45 40 39 37 35 33 32 32 31 32 32 32 31 31 32 29 26 25 24 23 22 21 23 26 27 26 24 26 28 29 34
58 70 69 73 68 68 69 64 63 61 55 53 52 44 41 40 39 39 37 37 35 35 36 37 36 34 35 32 29 27 25 27 27 25 27 27 26 27 30 31 35 40 37
68 68 66 72 72 67 66 65 62 62 61 58 56 51 46 44 41 41 41 41 41 41 39 40 41 42 38 36 34 31 30 30 30 31 32 33 31 32 35 39 40 38 38
81 75 74 60 62 70 72 70 66 65 63 61 58 54 51 48 45 47 44 44 45 45 44 45 41 38 37 37 36 35 35 34 34 35 37 37 38 40 39 42 39 42 44
84 78 72 70 67 69 69 67 65 63 62 64 63 60 55 52 49 46 44 47 48 47 46 45 44 42 41 38 39 40 40 37 37 37 39 41 43 44 43 44 42 47 52
78 79 74 67 74 60 68 64 64 64 62 61 61 59 58 57 52 51 49 46 49 46 44 47 47 46 45 44 44 42 42 42 42 41 44 48 48 45 42 39 48 49 49
82 73 66 66 68 67 63 67 71 67 68 69 63 56 54 57 54 54 55 53 49 46 46 50 52 52 51 50 47 46 44 43 40 46 47 48 45 42 43 45 49 54 49
75 69 66 57 51 53 70 66 64 63 60 60 63 60 58 53 54 50 51 57 58 57 53 56 54 54 52 50 47 42 38 39 46 48 48 46 48 45 44 47 53 57 56
74 65 60 57 62 79 64 70 67 63 60 59 59 56 55 56 58 53 57 62 57 54 56 62 58 57 52 49 46 42 43 47 50 50 48 45 48 49 50 57 58 62 62
77 77 76 72 80 73 80 65 64 65 66 61 62 55 54 53 54 58 58 56 54 49 59 58 56 55 53 54 51 48 51 51 52 53 51 51 48 53 63 63 65 64 67
73 76 76 69 74 79 71 59 64 63 64 69 64 60 58 55 56 55 54 55 58 60 62 61 60 57 56 56 50 54 55 56 59 54 50 52 55 63 66 70 70 70 71
81 79 79 77 79 81 64 60 56 56 64 60 63 69 65 65 65 61 61 61 61 61 62 61 60 56 51 56 58 59 58 63 64 64 65 68 69 67 66 67 70 73 69
95 90 82 83 73 77 76 76 56 50 60 61 62 62 65 67 66 58 57 65 61 61 61 63 60 58 58 62 64 69 74 72 72 63 70 67 74 71 71 77 73 73 71
87 87 82 79 74 76 75 71 64 55 59 61 59 52 54 58 60 63 63 60 61 61 57 60 61 63 66 70 74 77 77 72 73 76 77 75 76 77 77 80 81 74 69
81 84 84 82 80 83 82 77 70 66 66 72 72 65 60 61 56 65 66 63 61 62 62 63 66 69 73 75 71 76 81 83 74 73 71 79 81 81 84 82 76 74 79
88 93 93 89 85 86 84 80 78 74 78 78 77 72 67 69 72 71 69 66 65 66 67 67 67 72 76 72 77 75 73 69 77 78 85 89 86 81 85 78 76 83 88
107 110 98 102 95 96 84 81 79 83 83 80 75 74 76 75 76 77 75 72 70 71 70 70 70 66 62 64 68 70 73 74 72 86 87 90 88 91 84 82 86 80 85
110 104 107 98 98 98 96 90 82 83 82 81 83 79 79 80 80 79 78 78 76 73 71 68 68 59 56 64 77 76 79 80 90 96 94 96 95 94 91 87 87 87 91

GFSSE_250_spd_084.txt.gz
Wind_Speed
51 48 47 43 40 37 34 32 30 27 26 22 22 20 19 18 18 17 15 14 16 17 19 19 18 16 17 18 20 19 17 12 11 12 10 7 7 6 8 10 11 12 14
60 54 52 48 44 41 37 35 34 31 29 26 24 21 20 22 21 19 18 16 15 16 17 18 17 17 18 18 17 18 16 14 14 12 11 12 12 14 13 14 16 17 17
62 57 53 50 49 46 40 37 36 32 29 28 27 24 21 21 22 20 18 17 17 17 16 16 18 18 18 20 20 20 18 16 16 14 12 12 12 13 15 18 19 20 20
67 67 57 57 54 52 47 42 39 35 32 31 29 27 25 23 22 19 19 18 17 17 16 16 17 18 18 19 19 19 18 17 17 15 16 13 14 15 16 20 21 22 23
74 71 65 62 60 57 55 49 44 40 37 34 32 30 27 26 22 20 18 19 20 19 18 17 17 17 20 20 19 18 17 17 18 17 17 17 16 17 20 21 22 22 25
70 73 70 66 63 60 58 54 50 44 41 38 35 30 26 26 25 23 22 20 20 22 21 19 19 19 21 21 20 21 19 18 18 19 21 20 20 21 22 24 25 25 27
63 72 67 67 65 62 59 57 54 50 46 42 38 33 27 28 27 26 24 22 22 23 23 23 23 24 24 23 22 23 23 21 20 21 22 23 25 28 28 28 29 28 29
57 68 64 68 69 66 62 60 59 55 52 47 42 37 33 34 33 31 28 25 25 25 25 26 27 27 28 28 28 26 24 24 22 23 22 22 22 25 28 29 30 27 26
48 56 54 55 71 67 67 62 62 60 56 53 48 42 37 37 36 33 31 30 30 29 29 29 31 31 32 30 32 31 28 25 24 23 24 24 25 29 32 29 31 33 36
48 49 50 51 68 68 64 62 61 63 60 58 53 46 40 42 40 37 36 33 34 35 35 34 34 34 34 34 36 36 35 33 30 30 30 29 30 33 36 34 35 37 37
48 28 49 58 60 69 73 70 63 61 63 62 59 52 48 46 44 41 41 37 36 38 39 39 38 37 39 39 39 36 33 33 32 33 34 33 33 35 38 38 38 40 38
52 65 56 73 68 69 74 75 71 63 62 65 64 58 56 52 49 47 45 44 41 43 41 40 42 41 44 42 41 37 39 37 37 37 35 34 32 34 38 41 43 39 39
61 67 85 93 80 68 67 69 71 69 66 65 65 60 55 53 51 51 48 46 46 47 46 43 43 45 45 43 42 43 42 42 42 41 38 38 36 33 38 38 36 39 42
66 77 84 77 79 78 70 64 66 68 69 64 63 60 55 57 55 54 55 55 50 50 49 48 45 45 42 41 46 45 45 44 46 45 42 37 30 38 38 39 42 44 44
69 78 71 69 69 76 68 65 55 59 68 70 68 63 61 59 54 53 56 54 54 52 53 49 51 51 49 49 50 48 49 48 47 46 40 34 36 39 38 39 41 43 45
71 75 80 80 77 73 64 55 61 62 62 63 66 63 62 61 59 60 59 51 49 51 50 47 52 56 54 55 57 56 52 50 47 47 46 39 41 39 39 40 43 43 49
69 80 79 84 81 75 76 75 65 76 71 63 65 65 65 60 61 60 62 62 60 57 56 53 60 59 57 60 61 57 59 49 49 47 45 48 44 41 40 43 45 46 53
70 76 84 92 84 79 72 74 70 66 66 68 61 63 65 64 58 56 56 56 61 57 58 56 60 60 56 60 56 56 53 51 52 49 52 51 48 48 50 51 54 52 56
70 78 84 90 94 82 76 74 78 74 59 57 63 63 55 56 52 54 53 56 53 54 59 60 60 58 58 56 59 58 58 56 57 55 58 55 55 59 55 60 56 54 62
70 75 80 86 79 78 81 75 71 71 72 63 59 59 63 61 57 60 59 54 54 56 58 58 59 56 61 61 59 57 60 58 60 61 58 58 56 59 63 62 70 66 68
74 77 78 80 83 68 73 71 73 76 74 62 66 63 61 64 65 57 60 61 62 64 60 63 63 61 63 61 60 62 63 62 65 59 60 65 59 65 68 69 72 71 72
76 78 78 78 71 70 66 70 70 77 71 62 67 68 61 62 57 61 66 63 67 67 67 66 68 64 64 60 58 60 65 66 66 68 71 70 71 73 76 79 76 77 79
81 76 70 83 88 75 79 76 81 81 77 70 68 62 59 64 65 67 65 65 64 65 67 66 60 62 65 63 64 64 66 68 69 75 76 75 77 80 81 80 78 81 80
84 87 92 84 89 90 88 81 82 79 77 79 75 63 66 66 63 61 61 61 57 63 65 67 67 68 66 65 67 69 68 70 74 79 80 82 87 84 83 81 84 85 78
86 89 88 87 88 89 84 85 85 83 81 86 82 82 78 75 72 70 70 68 66 64 68 72 73 73 74 70 69 71 74 75 77 78 77 88 85 77 84 84 88 85 83
95 95 95 96 86 91 90 87 93 82 83 87 83 87 87 87 78 72 77 78 74 75 72 70 69 71 72 74 77 77 80 81 80 71 78 83 82 87 88 89 91 86 89

GFSSE_250_spd_087.txt.gz
Wind_Speed
56 52 49 45 40 38 36 31 30 27 24 22 21 18 19 18 18 18 16 16 16 18 18 18 19 19 18 16 18 18 18 16 13 13 12 9 8 8 10 10 11 13 15
59 56 52 50 47 44 40 36 34 31 28 25 23 20 19 19 21 20 20 18 17 17 17 17 16 17 17 16 18 17 17 16 14 15 13 11 10 11 11 13 15 16 17
63 60 57 54 50 47 44 42 39 35 32 29 26 25 22 20 21 21 20 20 19 17 15 15 15 15 16 17 17 17 16 15 13 13 15 14 13 11 12 15 18 21 22
64 66 64 57 59 53 50 47 44 39 35 33 28 26 24 22 21 22 21 20 20 19 16 16 16 15 16 17 18 17 17 16 14 14 14 15 15 15 15 18 22 23 22
58 67 69 66 60 61 55 51 48 45 40 36 32 29 27 25 25 23 24 21 18 18 18 16 16 16 17 18 19 17 18 18 16 16 16 17 18 19 19 21 24 25 25
48 59 69 69 64 63 58 54 52 51 47 42 37 34 30 28 26 25 25 24 21 18 19 20 20 18 20 21 20 19 19 21 21 19 19 20 21 23 23 25 28 27 28
39 50 55 71 66 65 67 61 58 56 54 49 44 38 35 32 29 26 26 25 23 21 21 21 21 22 23 24 23 26 22 23 24 23 21 21 22 23 24 22 28 25 24
37 44 57 65 68 66 70 69 63 60 59 56 51 45 38 34 34 29 28 28 27 25 24 24 25 24 27 27 26 27 27 29 28 27 25 23 23 24 26 26 25 26 29
31 42 48 61 64 54 61 65 68 65 61 58 55 50 44 37 38 35 32 32 31 30 29 28 28 29 30 30 30 29 30 31 31 31 30 30 29 29 30 31 31 32 33
43 46 45 55 61 61 58 57 65 68 65 61 58 54 49 44 43 39 36 34 33 33 32 32 33 34 35 34 34 33 33 34 34 31 30 31 31 33 31 30 28 32 32
49 53 52 51 58 69 59 60 61 65 67 64 59 57 54 49 49 43 40 38 36 36 36 36 38 38 39 39 38 37 38 37 37 32 34 32 33 31 33 30 24 29 30
58 49 43 51 58 59 60 58 63 61 67 66 64 58 57 54 53 49 45 45 43 40 40 41 42 43 41 41 43 41 39 40 40 36 38 38 37 36 35 36 32 30 29
61 56 47 49 60 52 62 63 61 62 64 62 63 58 56 57 56 56 54 51 49 45 44 46 45 45 47 45 40 39 45 44 44 41 39 39 43 40 36 36 32 31 32
67 56 40 49 60 57 63 59 62 60 64 63 63 59 55 55 60 60 60 55 52 49 47 47 50 51 50 48 48 47 48 51 45 44 43 44 41 43 38 39 37 34 31
69 56 38 56 61 62 58 57 62 57 57 63 67 69 64 60 59 62 62 58 53 52 52 51 51 54 52 49 44 46 50 50 50 51 49 48 46 45 43 42 38 38 35
69 64 43 66 68 54 57 59 65 62 59 62 66 68 68 67 66 62 62 60 56 53 52 48 46 48 49 50 48 48 56 55 54 56 54 55 50 45 47 46 43 45 45
73 67 55 66 77 70 67 69 67 62 69 65 62 61 62 65 70 64 59 61 61 60 59 62 58 58 55 58 56 50 60 59 55 56 55 54 47 47 49 51 53 53 49
75 68 64 61 89 83 70 65 70 73 74 71 70 66 58 62 62 65 67 69 64 65 66 59 58 59 55 58 59 53 62 62 56 55 51 53 52 52 56 54 54 54 55
72 70 68 64 84 96 87 75 66 66 60 72 67 63 58 59 61 61 64 65 65 63 59 55 56 60 55 57 56 62 61 59 58 52 53 51 54 55 56 59 60 61 58
72 71 65 64 74 85 95 83 73 76 68 74 61 68 65 61 63 61 57 61 62 64 62 60 54 55 55 59 59 60 62 57 57 54 55 55 56 58 61 64 63 63 62
67 66 64 63 71 87 92 85 80 81 75 75 75 72 66 63 62 62 63 59 60 57 61 60 55 59 61 60 62 63 64 68 62 62 58 58 59 62 64 69 68 66 68
63 62 62 63 70 77 90 90 89 86 75 77 84 82 78 72 60 59 60 59 59 60 65 59 60 63 66 66 69 71 71 72 69 63 61 59 60 64 67 67 71 73 74
64 61 64 64 73 83 94 94 88 88 83 79 79 79 84 82 69 66 60 62 60 61 67 59 64 71 75 73 70 68 67 67 65 61 64 63 65 64 71 73 74 74 76
66 62 65 70 78 81 92 94 82 95 98 95 83 82 76 79 74 69 67 69 69 67 60 62 63 69 70 70 71 71 69 67 67 66 68 69 71 75 77 76 76 76 82
66 68 71 74 75 84 88 86 85 93 86 85 86 80 76 71 81 73 74 69 69 68 67 72 74 78 75 74 77 77 74 70 70 73 73 76 75 78 79 83 80 82 79
70 72 71 75 78 82 79 82 87 92 87 79 82 81 79 80 79 82 83 77 75 72 73 70 74 74 71 68 66 66 71 76 79 80 78 77 82 82 83 86 83 84 83

GFSSE_250_spd_090.txt.gz
Wind_Speed
58 56 53 52 48 42 37 36 34 29 26 26 23 22 20 20 18 18 17 18 17 16 17 15 16 17 17 18 16 16 16 17 15 11 11 12 11 9 10 11 12 15 15
61 61 57 53 52 50 46 42 38 35 31 28 27 24 22 19 20 19 20 19 19 19 18 15 13 15 14 15 17 17 17 17 16 13 12 12 13 12 13 13 14 16 20
58 60 60 59 54 54 52 48 43 41 36 32 30 28 25 23 21 20 21 21 20 21 19 17 15 15 14 14 15 16 19 18 17 15 12 12 13 14 14 15 16 19 23
57 62 63 61 58 56 55 52 50 47 42 38 34 33 28 26 24 21 21 21 21 21 21 19 16 16 15 14 14 14 17 18 17 18 17 15 15 15 16 18 20 21 24
54 59 60 60 62 62 58 56 53 51 47 44 38 35 32 29 27 24 22 22 21 22 20 20 19 17 18 17 17 15 15 17 19 20 19 20 19 20 18 19 22 22 23
46 54 58 57 60 60 63 60 58 56 52 48 46 38 34 32 30 28 26 24 23 22 22 20 21 20 20 20 20 18 17 19 19 21 22 22 23 23 22 22 22 20 25
41 51 54 58 57 63 64 66 65 61 61 55 52 45 40 36 33 32 28 27 26 25 25 23 23 22 21 22 22 23 20 21 21 23 25 26 26 26 27 25 23 24 26
34 40 42 52 56 61 65 65 68 67 63 59 55 51 47 42 38 36 33 30 29 28 27 26 25 25 25 25 27 26 23 25 24 26 27 28 28 28 29 29 30 30 30
43 36 38 46 48 59 61 62 67 67 66 64 58 56 53 48 44 42 38 35 32 31 31 30 29 29 28 29 30 31 30 29 28 29 30 31 25 26 26 28 30 29 27
49 48 41 44 53 57 61 59 57 66 65 66 67 60 59 56 52 50 43 40 38 34 34 33 33 34 32 32 34 35 34 32 33 33 35 35 34 28 29 30 31 32 29
54 55 37 43 48 57 64 63 59 58 64 68 70 67 62 60 57 55 52 45 42 40 37 36 35 35 35 36 37 37 37 35 37 38 38 39 35 34 32 33 34 34 34
61 59 50 51 48 61 60 63 67 67 64 64 68 71 67 63 59 58 56 52 47 45 42 40 36 36 37 38 41 42 42 40 39 38 42 44 41 36 35 35 36 37 36
67 66 55 53 57 61 60 59 62 65 68 66 65 68 68 66 60 61 59 57 55 51 47 46 44 41 39 41 43 44 44 42 39 44 45 45 43 41 40 40 42 38 41
70 68 65 61 60 61 67 62 61 62 66 70 64 63 65 64 63 61 62 62 59 56 53 51 50 47 45 44 46 48 48 47 43 46 45 43 43 46 46 47 46 45 43
76 75 70 66 60 58 59 58 61 65 63 70 69 66 63 65 64 66 63 62 64 61 58 56 55 52 49 48 50 49 48 49 44 48 47 46 45 47 50 49 46 46 48
79 80 75 72 68 66 66 62 66 69 65 69 66 62 62 58 67 64 72 64 62 63 61 60 58 55 53 51 49 52 54 51 47 52 52 49 49 50 50 53 49 44 46
82 81 78 75 73 71 68 70 60 72 64 69 63 58 66 65 69 69 66 62 61 60 59 59 60 59 58 56 57 61 63 55 54 50 59 57 56 50 51 53 47 47 49
84 81 82 80 78 76 74 67 59 65 70 66 68 68 69 67 68 66 67 70 69 65 65 60 58 59 61 62 62 63 59 58 59 58 58 60 55 52 52 51 47 50 48
83 84 82 82 80 81 75 70 64 69 69 68 67 64 61 61 65 67 70 70 66 66 66 65 65 66 66 66 66 61 55 56 55 63 63 60 55 52 52 51 51 51 50
88 84 82 83 83 79 75 73 63 77 78 65 68 60 64 58 64 67 65 61 58 55 61 65 64 66 69 68 64 59 58 59 60 62 63 60 60 54 55 55 56 55 56
88 85 83 85 83 79 73 72 65 74 81 71 66 62 71 58 56 69 68 65 60 55 60 61 59 61 66 66 54 60 65 61 61 62 63 60 60 59 59 64 66 64 60
85 84 84 86 80 77 72 74 66 72 72 71 70 56 68 71 65 61 69 64 67 58 61 62 62 60 59 57 59 64 68 62 66 68 67 67 65 64 64 63 65 65 60
84 81 80 79 75 69 71 66 61 67 67 68 66 65 67 69 71 69 71 66 68 62 63 60 63 64 64 60 68 67 61 66 71 70 71 69 72 69 68 71 73 67 65
72 66 70 70 68 62 64 61 60 62 74 86 85 83 73 76 71 77 82 77 74 68 69 66 62 59 63 68 68 72 62 67 69 73 76 76 72 72 74 73 69 66 69
54 58 60 59 56 63 62 61 63 65 71 77 84 76 79 83 79 86 85 85 80 82 76 76 71 68 71 71 74 70 72 72 72 76 76 74 72 69 72 65 69 72 74
49 55 58 59 58 61 60 62 66 67 73 82 82 82 89 80 82 91 81 83 83 85 83 89 89 80 77 78 69 78 79 78 79 75 76 81 76 69 65 70 76 78 78

GFSSE_250_spd_093.txt.gz
Wind_Speed
59 57 54 50 48 47 46 43 36 34 30 29 26 25 24 24 22 21 20 20 19 17 17 18 19 19 19 17 15 14 14 16 18 17 14 12 11 11 12 13 13 13 14
61 60 62 56 53 52 51 48 43 39 34 32 29 27 26 26 25 24 22 20 21 19 18 19 19 19 18 16 13 13 14 15 18 17 16 15 13 13 14 15 15 15 17
56 59 60 61 56 54 53 51 49 45 38 36 34 30 30 28 26 25 24 22 22 22 21 20 20 19 17 16 13 14 14 14 16 17 17 15 15 14 15 16 17 19 21
55 56 55 55 54 54 54 54 53 52 47 44 40 37 33 32 29 28 26 24 24 23 23 22 22 21 19 16 15 14 14 14 15 16 17 17 18 19 18 18 19 20 21
48 53 55 56 54 54 56 59 57 55 52 48 45 42 39 35 33 30 29 27 25 24 24 24 22 22 21 19 18 16 14 14 15 17 18 18 20 21 23 24 23 25 22
45 49 51 54 57 56 53 58 59 58 55 53 51 48 45 40 37 34 32 29 27 26 26 25 24 22 23 22 21 21 19 16 16 18 18 20 21 22 23 24 23 24 23
40 48 47 49 52 59 59 56 60 62 61 56 55 52 49 45 41 38 35 32 31 30 28 28 28 26 25 23 22 22 23 21 18 19 20 21 23 24 23 23 26 24 26
33 41 38 46 51 52 57 62 57 60 63 63 60 58 54 51 46 44 38 36 35 33 32 30 30 29 28 26 25 24 25 25 23 24 22 24 26 27 25 25 23 24 26
36 37 45 39 43 55 52 54 58 62 61 64 64 63 60 57 54 51 46 42 39 37 34 34 32 32 31 30 29 28 28 29 29 27 26 26 29 31 31 29 26 28 28
46 40 41 41 35 42 51 56 58 57 60 64 68 68 68 63 60 57 54 48 45 41 40 37 36 36 36 35 35 33 31 32 31 30 29 31 34 32 31 30 31 29 30
58 55 53 47 42 45 48 58 59 61 60 64 67 70 69 67 63 62 60 56 52 47 43 42 40 39 39 38 38 38 36 35 34 34 34 32 35 37 36 35 33 33 33
64 62 63 53 53 49 43 58 60 64 65 65 62 62 65 67 67 65 63 62 59 54 51 47 46 44 41 42 40 38 38 37 37 39 38 34 34 41 41 37 33 37 39
69 68 66 64 59 51 45 54 61 61 66 67 65 61 62 67 69 69 68 66 64 62 58 54 50 47 47 46 43 40 39 39 40 41 41 39 40 43 47 45 40 39 41
72 71 69 68 67 62 57 54 57 57 61 67 73 76 63 62 70 72 73 71 68 66 63 61 57 52 51 50 51 48 45 44 44 44 44 42 43 45 48 47 47 44 43
75 75 74 73 73 71 67 65 60 55 58 64 69 64 70 72 70 70 75 76 73 69 65 64 62 59 55 54 54 53 50 49 47 48 46 48 44 37 44 46 49 49 47
75 77 80 78 76 76 74 70 65 64 55 60 63 62 68 71 74 71 71 76 75 70 66 67 68 63 60 57 58 58 55 53 51 51 51 52 53 49 46 46 48 49 47
77 79 81 83 80 78 76 73 69 69 62 58 68 67 68 72 70 74 60 74 74 62 74 60 61 63 65 63 61 60 59 58 58 58 56 56 55 59 60 57 52 48 50
80 82 81 86 84 79 76 74 73 74 70 65 62 56 63 74 69 73 74 72 72 71 70 69 71 68 68 64 63 61 62 61 61 62 62 62 59 57 54 59 58 53 50
85 84 83 87 84 80 80 79 79 77 73 70 64 57 58 72 69 71 73 74 65 66 67 71 66 66 65 61 62 63 61 64 65 65 60 59 62 63 65 61 57 54 51
83 84 85 83 82 81 79 80 79 78 75 75 67 60 60 65 71 73 71 71 72 67 73 70 75 73 69 69 66 66 67 67 68 66 68 61 61 58 63 60 57 54 51
85 88 84 77 81 79 81 83 81 80 75 71 73 68 63 65 75 74 75 75 77 77 75 71 71 74 74 75 67 65 69 68 65 64 66 65 60 61 63 62 57 58 53
86 85 80 78 81 80 81 83 82 83 79 75 75 72 64 72 74 76 77 74 68 63 72 72 76 73 69 65 59 59 62 62 61 61 55 61 59 62 63 63 64 60 55
84 81 80 81 82 84 87 87 88 85 84 79 79 70 67 72 72 73 72 73 68 57 60 67 65 70 69 72 67 66 67 64 66 62 60 65 68 69 68 68 69 64 64
84 82 80 78 78 85 87 87 85 87 84 80 73 65 66 69 66 69 70 71 70 63 67 63 69 73 74 73 67 67 67 69 68 70 67 70 72 71 65 64 69 66 63
77 81 82 79 81 85 88 91 88 86 83 74 67 64 62 67 70 72 74 73 77 72 74 75 66 72 72 67 74 73 71 71 72 72 72 71 74 73 74 75 70 66 68
60 64 69 74 81 84 84 81 81 74 66 63 60 62 65 62 65 73 73 77 74 72 72 79 73 72 74 73 77 76 79 81 80 79 74 69 75 69 71 71 74 74 70

GFSSE_250_spd_096.txt.gz
Wind_Speed
58 54 52 48 48 46 45 43 40 37 35 32 30 25 25 24 22 21 22 22 22 21 21 22 19 19 18 18 17 15 14 14 14 15 15 13 12 12 12 12 14 13 13
58 59 57 53 50 51 50 48 46 40 40 37 34 31 28 27 25 24 24 25 23 23 22 23 22 20 19 18 17 15 15 14 15 15 15 14 13 12 13 15 15 15 16
54 56 55 56 56 55 54 51 49 48 44 42 39 36 32 30 28 26 25 26 25 23 24 24 25 23 19 18 16 16 14 14 13 14 15 15 14 14 13 15 17 18 18
49 52 54 54 52 53 55 55 56 53 51 47 44 40 36 34 31 30 27 26 27 25 26 25 25 25 23 19 18 16 15 14 14 13 14 15 15 16 16 15 16 17 20
44 47 49 52 54 55 54 51 56 56 53 51 49 48 42 40 38 34 32 29 29 28 29 27 26 25 25 23 20 20 17 15 15 16 15 16 16 16 17 19 19 19 20
38 43 45 46 49 53 55 52 50 55 57 55 52 52 52 47 44 40 36 34 32 31 30 30 29 28 27 25 24 22 20 19 18 17 15 17 17 17 18 19 20 20 16
39 38 40 45 47 48 51 53 54 53 54 59 59 56 53 52 49 47 42 39 37 35 34 32 31 31 29 28 26 26 22 20 19 19 18 18 19 20 20 21 22 23 21
37 34 33 31 38 44 50 50 52 53 53 57 59 58 56 54 52 52 50 45 41 41 38 36 34 34 32 31 30 30 27 24 22 22 22 22 21 22 24 26 23 21 23
40 38 37 38 35 38 39 42 49 51 52 56 56 59 61 60 57 55 54 52 47 46 44 40 38 37 35 34 33 32 31 30 28 27 27 23 22 23 28 28 28 28 28
48 47 41 41 42 44 44 41 41 48 53 52 57 61 60 62 63 62 59 56 54 48 48 45 43 41 39 37 37 36 35 34 34 32 31 29 26 27 28 33 32 32 32
59 56 52 45 42 41 49 50 41 44 51 54 54 55 58 62 63 63 65 63 61 58 55 52 48 46 44 42 40 39 38 39 39 37 35 34 32 31 29 30 38 38 40
63 63 62 61 52 51 47 43 42 44 41 50 58 58 59 60 64 68 67 68 66 65 62 60 57 52 50 47 44 43 40 40 39 38 37 38 37 36 36 31 36 38 40
64 65 65 64 65 67 60 54 54 48 50 51 55 63 65 62 62 63 65 66 70 70 68 65 63 60 54 53 50 47 44 44 44 41 38 38 39 40 37 33 35 33 35
72 69 66 68 67 69 68 66 63 56 50 47 54 59 61 63 67 69 67 63 61 71 72 70 67 64 62 59 56 54 50 48 49 48 46 43 43 42 41 43 42 38 40
79 76 73 68 67 70 72 72 70 67 62 50 50 49 54 61 63 66 73 70 61 66 74 74 72 68 65 63 62 60 56 52 51 53 53 50 46 46 45 47 45 44 46
82 79 76 75 74 70 73 75 73 71 70 65 58 53 53 54 58 55 66 71 74 68 67 75 76 74 71 66 62 64 65 61 57 55 56 55 53 51 52 52 50 48 52
86 83 82 80 79 78 77 76 75 73 71 72 68 64 59 51 51 60 54 62 65 69 73 72 75 77 76 73 68 64 66 66 64 62 60 59 58 57 55 57 52 54 57
85 86 86 86 86 84 82 81 77 74 74 72 71 69 63 59 50 48 61 65 68 68 69 70 68 69 78 78 72 65 64 71 71 66 65 61 60 59 59 60 61 59 59
81 83 88 88 86 86 83 82 78 75 75 75 72 71 70 64 59 52 52 59 64 70 72 70 67 62 72 76 76 70 60 61 72 69 63 60 61 61 60 61 58 59 64
81 81 82 89 89 86 79 80 79 80 79 76 73 71 71 65 64 57 58 59 60 61 66 71 70 66 64 72 72 70 70 65 63 66 64 62 66 65 62 60 64 62 65
79 81 82 86 89 87 75 75 76 79 79 77 77 75 69 66 67 61 59 58 63 57 61 67 75 80 73 74 72 72 71 71 69 68 68 72 72 71 72 70 55 59 58
76 80 85 89 87 82 75 77 74 77 81 80 81 76 73 70 69 69 64 63 68 63 60 69 71 69 75 76 74 72 64 69 71 75 71 69 65 58 53 62 60 65 66
75 80 85 86 86 82 81 80 77 79 82 82 84 82 78 74 73 75 72 70 70 73 65 69 68 71 69 77 76 74 75 75 77 78 74 74 74 69 67 69 64 63 63
74 77 80 81 83 85 86 83 82 83 84 85 85 86 79 79 79 79 77 75 72 71 69 69 71 72 73 79 81 72 76 75 76 78 79 78 70 73 71 71 70 66 67
68 71 74 75 79 80 81 83 85 86 85 87 83 81 79 80 84 81 77 78 71 69 68 71 70 65 71 70 77 68 69 71 74 77 71 78 78 71 69 71 71 68 68
65 66 68 68 69 72 74 78 84 85 85 83 79 77 77 80 81 81 82 76 67 67 70 66 69 67 71 65 63 73 76 75 70 71 73 75 76 75 75 72 69 69 71

GFSSE_250_spd_099.txt.gz
Wind_Speed
50 49 50 48 47 47 45 43 41 40 35 31 32 30 28 26 23 22 20 21 21 21 21 21 19 18 20 19 18 17 15 13 12 12 13 11 10 9 9 10 10 11 12
51 51 52 52 52 51 48 46 45 45 42 39 35 35 34 31 27 25 24 23 23 23 22 22 21 20 20 22 20 18 16 12 11 11 11 12 12 12 11 11 10 12 12
47 50 51 50 49 49 52 52 50 49 48 46 42 38 38 35 32 29 27 26 25 24 24 23 23 23 21 20 20 19 17 14 12 11 11 11 12 12 12 13 13 12 13
40 42 45 46 48 47 49 50 56 54 52 50 47 45 42 40 39 35 31 29 28 27 26 25 25 24 24 23 21 21 19 16 14 12 11 11 11 11 11 11 12 13 16
36 37 41 42 44 46 49 50 50 54 58 57 55 52 49 45 42 41 36 34 31 30 29 28 27 26 26 24 23 22 22 20 18 16 14 12 11 10 11 11 11 13 14
34 37 39 40 40 42 46 48 50 51 51 54 57 58 54 50 46 45 39 38 37 34 34 32 30 28 28 28 26 24 23 23 21 19 16 15 15 15 14 14 14 16 16
39 39 37 37 40 40 42 44 45 46 48 52 53 54 56 53 48 46 48 45 43 41 38 37 36 33 32 31 30 28 26 25 24 22 20 19 19 19 18 18 19 18 18
39 38 36 34 38 39 37 36 41 43 42 44 48 52 54 56 55 52 51 48 48 46 45 43 40 39 37 35 33 31 30 29 28 26 24 24 23 21 20 20 24 24 24
44 39 41 38 36 36 33 33 34 35 37 39 43 46 50 57 59 58 55 54 51 50 52 49 47 43 43 40 39 36 34 33 32 30 30 29 28 26 23 22 23 26 26
50 47 44 41 41 41 43 41 38 39 37 38 41 41 44 45 55 60 59 58 56 53 53 53 52 49 46 45 44 41 38 37 37 34 33 33 32 32 30 28 26 25 27
57 54 51 51 45 46 44 42 41 43 44 42 41 43 42 46 45 54 59 61 60 60 59 56 55 54 50 49 48 46 43 42 41 40 38 37 36 35 35 33 31 29 32
65 61 58 55 51 54 52 49 43 44 43 47 46 41 42 47 51 50 52 58 62 63 65 65 62 60 59 55 53 51 50 47 46 44 42 40 39 38 36 35 35 36 31
68 71 67 64 61 59 60 57 48 41 44 47 43 40 43 46 50 52 54 56 57 59 65 65 67 65 65 62 60 59 56 54 50 48 47 45 44 42 39 37 36 35 36
75 74 74 73 69 67 62 60 57 58 59 58 55 53 49 50 51 55 56 56 57 59 59 57 65 70 69 71 68 64 63 59 56 54 52 49 49 48 46 44 38 39 41
80 82 80 78 78 75 69 68 65 64 63 61 57 58 54 52 50 53 54 53 55 57 60 62 60 61 65 74 74 71 68 66 63 60 57 56 54 54 53 51 48 44 46
88 87 84 82 82 79 80 76 73 72 69 64 61 59 61 58 53 51 48 48 53 53 54 60 61 63 62 62 71 76 73 70 69 65 63 61 58 56 57 56 55 51 49
93 91 86 88 87 85 85 86 79 76 73 70 66 64 62 62 62 56 57 54 56 56 50 57 58 57 57 57 61 68 77 75 72 69 66 64 64 64 62 58 59 56 49
97 95 92 91 92 91 88 88 84 82 77 75 73 69 68 67 64 59 59 62 57 58 57 54 59 59 60 60 59 62 69 79 78 77 73 68 64 64 65 65 64 60 54
94 96 92 91 93 93 92 91 89 86 82 79 77 72 69 70 67 66 62 61 58 58 54 50 56 61 62 61 65 64 62 67 75 78 79 72 65 62 60 61 63 58 57
87 88 90 90 90 89 90 93 91 89 83 78 77 77 73 72 71 66 66 65 62 61 62 57 52 57 56 58 58 65 61 60 63 68 72 76 69 65 58 56 56 61 64
82 79 85 87 85 88 90 91 90 83 77 75 81 81 79 73 70 71 71 71 67 64 64 62 58 56 53 56 61 59 61 65 64 63 66 70 69 70 69 64 62 64 61
80 72 73 81 87 91 94 89 83 81 77 78 80 82 80 79 74 73 73 73 69 68 65 65 63 63 61 62 58 62 62 62 65 68 66 67 72 70 69 70 67 71 71
77 73 74 80 84 86 86 87 83 82 79 79 82 83 83 81 76 72 73 70 73 69 66 71 69 64 69 66 62 61 64 63 72 72 72 67 68 67 70 73 75 77 76
66 70 73 75 78 82 85 85 87 86 84 85 86 85 84 82 75 71 70 72 75 73 69 73 71 71 70 67 69 58 63 70 69 69 70 60 71 74 77 76 77 78 82
61 63 66 68 69 73 76 81 83 86 87 89 90 91 89 84 79 75 72 74 76 74 75 78 74 72 70 69 70 61 63 65 62 69 73 73 75 76 75 72 81 77 74
56 57 57 60 64 68 72 74 78 81 84 88 90 89 88 90 86 80 76 77 76 74 74 77 77 74 77 75 71 65 68 71 68 68 66 70 65 72 72 73 73 72 74

GFSSE_250_spd_102.txt.gz
Wind_Speed
49 47 47 44 43 43 44 44 43 41 39 35 33 31 29 29 28 25 25 23 23 22 21 19 20 19 17 15 16 18 18 15 13 11 10 9 10 9 8 7 7 9 9
44 45 47 47 47 47 47 48 47 47 45 40 37 36 33 32 33 31 29 28 25 26 24 22 21 22 20 18 16 16 16 15 13 11 10 9 8 7 8 7 8 8 10
42 43 43 45 44 48 50 51 51 51 49 47 45 43 40 37 37 35 34 32 30 29 28 26 24 23 22 20 19 17 17 16 14 12 11 10 9 8 6 6 8 8 10
36 40 42 44 42 46 49 51 52 51 50 50 49 47 47 43 40 38 37 37 34 33 31 30 28 26 25 23 22 20 18 18 17 16 14 12 11 9 10 9 8 8 10
31 31 34 38 38 39 41 44 46 50 50 52 51 52 51 48 45 42 41 40 39 38 35 32 32 30 29 28 25 23 22 21 21 20 19 17 15 14 13 12 12 11 13
29 27 25 29 32 32 36 40 43 44 45 50 52 51 53 55 53 51 47 44 41 43 41 36 34 35 34 32 30 28 26 24 23 23 22 19 19 19 18 17 16 15 16
31 29 28 34 32 34 33 36 36 37 38 38 43 49 51 52 52 54 53 51 46 45 44 41 38 38 38 37 35 33 31 29 28 26 25 24 23 22 21 20 18 19 19
38 37 35 33 34 34 35 36 37 36 32 30 34 36 37 40 47 53 52 53 51 47 46 46 43 43 41 40 39 39 37 35 33 31 29 29 28 27 25 23 21 21 21
41 40 41 37 38 37 38 39 36 33 30 32 31 31 33 36 38 44 50 54 55 53 51 48 48 48 47 46 44 43 42 41 39 37 35 33 33 32 30 29 27 26 26
49 48 46 44 40 41 43 41 40 37 37 35 36 36 37 37 35 34 44 47 57 56 57 56 53 52 51 51 52 48 46 45 44 43 42 39 37 36 36 34 32 29 28
55 55 53 52 48 46 47 48 42 43 40 39 41 40 41 41 40 36 35 36 42 56 59 60 60 57 56 54 54 53 52 49 48 47 46 45 42 42 41 38 36 33 33
63 62 61 60 59 54 51 51 50 49 47 42 44 42 41 43 42 41 41 42 39 39 49 59 62 61 61 59 57 56 56 55 52 51 49 48 48 47 46 42 39 37 35
69 70 68 69 65 65 61 59 58 53 51 48 46 50 46 46 44 45 41 42 45 45 45 46 53 61 66 64 63 63 61 60 59 57 56 55 52 51 50 48 46 44 40
73 73 73 73 71 68 67 67 64 63 59 55 53 53 51 50 49 49 49 50 51 48 48 53 48 46 52 53 58 65 67 67 66 66 64 61 60 57 54 52 51 50 48
80 78 76 76 77 76 73 73 71 68 66 65 62 59 55 54 55 55 55 52 54 52 48 50 49 47 46 48 51 52 57 67 70 68 70 70 66 64 62 58 55 53 54
86 85 85 85 83 82 81 78 76 75 73 71 71 68 64 62 59 56 56 56 56 58 57 53 52 51 51 51 52 52 49 51 60 68 76 75 72 70 68 65 61 59 57
93 92 92 93 91 89 89 87 83 82 81 77 74 72 71 69 67 63 60 58 56 55 55 57 55 56 55 54 54 54 54 50 49 58 61 66 75 76 72 70 67 63 63
97 98 97 95 96 93 92 94 92 86 84 82 78 78 78 77 71 69 66 66 60 59 61 58 60 63 61 58 56 54 60 56 52 51 58 59 62 72 75 74 73 66 62
100 99 101 100 99 98 97 98 95 93 91 89 86 83 81 77 75 73 70 67 67 65 65 64 63 63 62 63 57 55 53 58 60 58 56 58 61 65 71 77 75 71 62
105 104 102 101 102 98 99 100 99 98 99 92 89 84 82 79 79 77 75 74 72 70 67 68 65 66 61 62 60 59 54 53 55 54 55 56 57 56 60 65 71 73 71
95 96 94 92 95 94 89 90 97 102 100 98 88 83 81 80 78 77 75 77 78 76 72 69 70 66 65 64 62 60 59 55 52 48 52 55 57 63 62 60 58 61 64
85 89 90 86 87 87 89 89 93 97 101 97 93 87 79 76 77 78 80 81 79 80 77 75 74 71 66 68 67 63 60 59 57 56 60 57 59 62 64 68 63 63 63
75 77 79 76 78 80 82 83 82 90 92 96 92 89 86 79 78 77 79 79 78 77 79 78 77 74 71 71 70 66 61 63 66 64 62 62 62 66 68 70 70 64 61
69 70 69 68 69 71 71 68 74 81 92 93 90 87 83 81 81 81 81 78 77 76 73 75 75 74 71 72 73 71 68 66 69 69 64 61 63 70 71 74 72 66 67
62 64 63 64 65 66 65 66 72 75 80 85 85 83 83 85 84 83 82 80 76 76 75 75 73 73 71 73 73 75 76 72 71 71 69 65 63 73 74 73 69 59 63
54 56 59 60 60 63 64 66 68 69 73 78 81 83 85 87 89 90 87 84 82 81 82 81 79 78 77 77 75 76 77 77 74 74 73 72 68 74 78 73 66 65 71

GFSSE_250_spd_105.txt.gz
Wind_Speed
46 45 45 44 44 44 42 41 39 38 38 38 37 33 32 31 29 29 30 29 27 26 25 23 23 21 19 17 16 16 14 13 14 13 12 11 9 8 6 5 6 8 9
43 45 46 47 47 47 47 45 44 43 43 42 40 40 39 36 35 34 32 32 32 29 28 27 27 25 23 20 18 17 17 15 13 12 12 11 8 6 7 5 5 6 8
42 43 43 44 46 48 49 48 48 47 47 45 45 43 43 41 39 38 34 34 35 34 31 31 30 29 27 25 22 20 18 18 16 15 13 13 12 11 9 7 8 8 8
37 40 41 42 42 42 43 46 47 47 48 47 48 48 47 45 44 43 42 39 38 38 35 33 33 32 32 29 27 24 22 21 20 19 18 16 16 15 13 11 11 9 11
27 28 29 31 32 32 35 38 41 43 47 48 50 50 48 48 47 47 46 45 42 41 39 37 37 35 34 33 31 30 27 25 23 22 22 20 18 19 17 16 14 14 14
26 24 25 24 25 21 23 26 28 30 32 35 39 43 45 48 48 49 50 51 47 45 43 41 39 39 37 35 33 33 33 31 28 26 25 24 23 22 22 21 20 19 17
29 28 27 27 28 27 25 28 29 29 27 26 27 31 33 39 46 50 50 50 51 52 51 49 44 43 41 39 37 35 35 35 33 32 30 29 27 26 26 24 24 22 19
35 33 31 31 33 33 31 29 31 32 31 30 28 26 27 27 30 36 41 45 50 52 51 51 51 48 44 41 41 41 39 37 36 36 36 35 33 31 31 30 29 27 23
42 41 39 36 36 38 38 36 33 35 35 34 31 27 27 30 28 27 28 33 39 46 51 51 51 51 49 47 45 44 44 43 40 39 40 40 39 37 35 35 34 33 30
48 47 46 43 43 41 40 40 39 38 39 38 35 34 35 33 33 33 35 31 32 35 43 47 50 51 53 52 49 49 48 47 47 45 43 44 44 43 42 40 38 37 35
55 55 54 52 50 48 47 46 45 44 43 43 42 39 40 37 37 37 39 41 38 31 29 36 44 54 54 57 57 54 53 53 52 50 49 48 47 47 46 46 44 42 41
63 62 61 60 58 57 55 54 53 52 50 46 46 47 46 46 43 42 40 42 42 40 38 34 31 33 45 58 62 60 59 58 58 56 53 52 53 51 50 48 48 47 45
71 70 68 67 66 65 63 61 61 59 56 51 49 50 51 51 48 46 46 45 46 45 42 42 42 40 39 37 45 56 63 62 61 61 60 59 57 57 54 53 53 50 50
76 76 75 74 74 73 70 68 69 67 65 63 58 57 55 54 54 52 49 49 49 49 47 48 47 49 46 44 40 40 48 56 58 63 66 68 68 65 64 62 62 59 55
83 84 83 82 81 80 78 76 74 72 69 69 66 63 63 62 60 58 57 51 54 52 52 51 51 50 53 51 50 46 42 42 45 47 53 56 58 64 69 68 67 66 63
90 90 90 89 89 87 86 84 81 79 77 73 71 70 68 68 66 64 61 60 59 58 55 53 52 53 56 55 57 55 53 48 47 46 44 48 52 57 61 67 70 71 70
99 98 96 94 96 95 93 92 91 86 85 82 81 77 76 75 71 69 67 65 68 65 63 61 59 59 54 55 54 57 56 56 56 53 50 49 48 47 55 59 62 62 69
102 101 101 100 100 100 100 99 97 95 93 92 89 86 84 83 81 74 73 72 69 70 68 66 65 66 65 61 60 58 57 59 59 60 56 53 50 51 49 52 58 62 62
102 102 101 101 102 102 103 104 101 100 101 99 96 92 89 89 87 82 79 76 75 71 69 72 70 71 69 66 65 62 60 60 61 60 59 54 52 52 55 54 54 56 61
103 103 103 103 103 104 104 103 102 103 104 103 101 97 94 90 87 84 83 80 77 74 76 77 75 74 74 75 71 66 63 63 61 60 61 58 57 51 56 54 53 53 54
98 99 101 104 107 107 107 104 101 102 104 102 101 100 98 93 87 85 81 80 79 79 79 81 79 79 77 80 75 73 65 64 63 62 60 65 62 56 55 55 56 53 52
93 96 101 102 102 100 98 100 101 99 103 105 106 105 99 96 93 89 84 82 80 83 84 86 86 84 83 83 79 77 69 68 64 68 67 66 66 64 58 61 59 57 56
95 93 91 89 90 90 89 89 90 91 98 99 97 99 102 100 95 92 90 89 88 90 90 90 88 89 88 86 84 80 76 72 73 73 70 69 70 69 66 63 64 61 60
84 83 80 79 80 80 79 77 78 80 79 82 82 86 90 90 89 90 95 97 90 88 88 90 88 86 86 85 86 84 80 77 76 75 73 71 72 71 70 69 68 66 64
71 70 71 71 73 75 72 68 70 74 72 72 75 80 79 77 79 81 86 89 85 85 86 88 89 88 87 85 86 85 83 81 79 75 72 72 74 75 74 75 74 69 67
56 55 55 56 60 62 63 65 67 67 67 68 71 73 70 70 73 77 80 83 84 86 87 87 90 90 89 87 87 86 84 83 80 77 73 74 76 77 78 78 79 76 69

GFSSE_250_spd_108.txt.gz
Wind_Speed
46 45 43 42 42 41 41 41 40 39 37 37 37 35 32 32 31 30 29 30 29 28 26 25 25 23 21 20 17 17 16 15 15 14 14 12 11 10 8 7 7 8 9
45 44 43 44 43 42 43 43 43 43 41 40 39 39 39 38 37 36 35 34 33 31 29 28 27 27 24 23 22 19 17 16 16 15 15 15 13 11 12 10 9 8 9
41 41 40 40 40 42 42 45 46 46 45 44 43 42 42 41 42 40 38 37 37 36 33 31 30 30 29 26 25 25 21 20 18 18 16 15 16 16 15 12 12 11 10
33 36 39 39 39 39 40 41 42 44 46 46 47 47 45 45 45 45 44 42 41 41 38 36 34 31 31 30 28 27 26 24 23 22 20 18 18 18 20 18 15 13 13
26 26 28 31 32 34 37 38 38 39 39 39 42 44 46 49 50 50 49 47 45 44 42 43 41 36 35 32 32 30 28 28 27 27 26 24 21 20 21 21 20 18 18
24 22 22 22 21 25 27 25 22 22 22 24 25 28 32 39 44 49 51 48 47 47 47 46 44 41 39 37 34 34 32 30 29 30 30 29 27 25 23 23 24 23 23
25 25 25 26 24 24 23 25 23 20 20 21 22 22 24 27 32 36 40 45 47 48 47 47 47 46 45 42 42 37 37 35 32 32 33 32 32 31 30 28 28 27 26
32 30 29 28 29 27 29 29 28 24 21 23 25 24 25 25 23 23 28 32 37 41 43 46 48 48 47 47 46 45 40 37 38 36 36 35 35 35 35 34 34 32 32
38 38 37 35 35 34 32 32 33 31 31 28 28 31 31 28 27 26 24 24 25 26 29 34 40 46 49 50 47 47 47 43 41 39 40 38 39 39 39 39 39 38 37
44 44 44 42 42 42 41 38 37 36 35 35 35 33 37 35 33 34 33 31 30 28 27 29 29 35 42 47 49 47 49 47 45 45 44 42 43 42 41 42 44 44 43
51 50 50 51 50 49 48 46 45 43 42 42 41 40 41 41 41 40 40 38 35 31 33 32 34 31 30 35 41 47 50 51 52 49 49 48 48 48 47 47 47 46 46
60 58 57 57 57 58 56 55 53 50 50 49 50 48 46 43 44 45 45 45 42 41 39 38 36 35 31 30 29 30 35 47 56 56 57 56 54 54 53 52 52 51 51
68 67 65 64 64 64 64 63 62 59 57 58 57 55 54 51 50 50 49 50 49 47 44 44 42 39 39 37 37 37 34 34 40 47 55 59 61 60 58 59 59 55 56
77 76 75 73 72 71 70 70 69 67 66 65 64 64 63 61 60 57 57 56 53 53 50 49 46 44 44 44 44 43 40 38 36 38 45 48 52 57 62 64 65 66 66
79 80 81 79 79 79 77 77 77 77 76 73 71 71 71 70 67 65 64 59 60 58 60 56 54 48 47 45 45 45 48 47 47 44 44 43 42 44 46 51 54 56 57
87 87 89 89 88 89 87 86 85 84 84 83 82 79 77 75 73 72 71 66 65 62 65 64 62 57 54 53 52 51 49 48 48 49 44 47 48 43 45 45 44 49 51
94 94 93 94 95 96 94 95 95 94 92 91 90 88 87 83 81 78 76 72 68 67 66 67 67 66 64 61 62 60 59 56 53 52 48 46 50 52 51 49 50 48 49
99 99 99 99 99 99 101 99 100 100 98 98 96 93 94 91 88 86 83 82 78 73 70 69 71 72 69 67 67 67 67 61 60 57 56 51 52 54 55 55 52 50 47
101 102 104 103 104 103 104 103 103 105 102 101 103 102 100 99 96 94 90 89 88 84 80 77 74 75 76 75 73 71 71 68 66 61 60 58 55 57 60 59 55 54 51
101 103 105 107 107 106 105 105 104 103 105 106 106 106 104 106 102 98 95 93 93 91 87 84 81 78 81 81 79 77 76 74 71 66 64 65 62 62 62 63 60 57 56
94 94 98 100 104 106 107 106 107 107 108 108 108 108 108 109 105 100 97 94 93 91 91 89 86 87 83 84 83 81 81 78 75 73 69 71 68 68 65 64 62 64 59
92 97 101 104 106 106 105 103 103 103 105 106 108 109 111 109 106 102 97 95 94 91 89 88 89 92 90 90 86 87 84 83 80 80 76 75 74 74 68 68 68 67 66
97 100 103 105 103 99 97 97 96 93 93 97 103 104 106 108 107 106 101 102 98 93 95 97 96 95 94 97 94 93 91 85 87 86 83 82 77 75 76 74 73 73 69
95 97 98 96 94 93 91 89 89 87 86 87 86 86 90 92 91 91 88 88 91 95 98 97 100 102 103 102 103 99 97 93 89 90 89 88 87 81 81 82 79 74 74
76 75 74 74 72 71 69 69 71 74 75 77 80 83 80 81 81 78 80 77 80 84 86 86 89 93 96 99 103 105 104 100 97 97 94 92 91 87 83 82 80 79 76
56 57 57 59 60 61 62 64 66 69 69 70 73 75 73 72 73 74 78 77 74 78 78 76 79 86 90 93 97 101 104 103 103 100 97 94 91 89 86 86 79 80 78

GFSSE_250_spd_111.txt.gz
Wind_Speed
45 43 42 42 40 40 39 39 38 37 37 37 36 36 34 33 32 30 30 29 27 28 28 28 27 26 22 19 19 19 19 17 14 14 14 14 13 12 12 11 12 12 13
42 42 43 44 44 43 41 41 42 41 40 40 39 38 37 37 36 35 35 33 32 31 32 31 29 27 26 24 21 21 20 20 19 16 14 15 15 14 13 14 14 14 13
38 39 41 41 42 41 42 43 42 41 41 42 42 41 40 39 39 39 38 39 38 35 33 35 35 31 28 27 24 23 22 23 22 21 19 17 16 16 17 16 16 16 16
27 28 32 35 36 37 38 38 39 40 41 43 44 44 43 43 43 43 43 42 42 41 40 37 37 38 33 32 32 27 25 25 25 24 23 22 21 19 18 18 18 18 19
27 25 25 26 28 29 32 36 38 39 38 39 40 41 44 46 46 47 45 44 45 46 46 44 40 39 39 37 36 34 30 28 27 28 27 25 25 24 23 21 21 21 21
23 22 24 25 26 24 25 26 26 28 30 31 30 32 33 36 40 44 45 45 47 50 51 49 46 44 43 40 39 37 36 32 30 30 30 30 27 28 28 27 26 25 24
26 24 24 25 26 25 24 23 24 24 22 21 23 24 20 21 24 26 30 34 39 39 41 45 47 45 46 44 42 42 40 38 36 33 35 34 33 32 32 31 31 31 30
33 33 31 29 28 28 28 27 27 26 28 26 22 24 22 20 24 25 25 22 23 28 32 35 40 42 44 46 46 47 44 44 43 41 36 36 37 37 37 36 35 34 35
37 37 36 37 36 34 33 31 30 28 31 32 31 27 27 27 26 27 28 28 25 24 22 25 28 30 31 35 38 41 45 46 45 45 45 39 40 39 40 40 39 39 38
43 42 41 40 41 40 41 41 39 37 36 34 35 36 32 33 33 35 33 31 31 31 30 28 29 29 30 28 28 35 37 40 46 47 47 47 45 44 43 42 42 42 42
51 50 48 46 46 46 46 46 47 47 45 43 42 43 43 40 38 37 39 40 38 37 37 33 32 32 31 31 34 29 28 31 37 43 47 48 51 48 47 48 48 47 47
58 58 56 54 54 54 52 52 52 52 52 52 51 51 50 48 48 46 45 45 45 46 43 41 40 39 40 38 35 34 31 29 30 32 35 42 48 53 55 55 53 53 53
65 65 64 63 62 61 60 60 60 58 59 60 58 58 57 56 56 55 54 53 51 49 50 50 47 45 43 41 41 40 38 35 36 36 35 32 34 39 45 51 56 58 59
72 71 71 71 70 68 69 68 68 69 67 66 67 66 64 64 63 63 63 62 60 58 56 55 55 54 51 49 46 43 42 44 43 39 38 38 37 38 38 40 43 46 48
73 74 75 75 74 73 72 74 76 77 77 76 75 73 73 73 72 70 70 68 69 68 65 63 62 61 61 59 57 53 48 45 46 45 44 43 43 40 41 41 42 41 39
81 80 79 81 82 83 83 83 84 83 83 82 81 82 80 79 79 79 79 76 76 74 73 72 67 67 65 64 65 63 60 54 51 51 51 51 49 45 42 42 43 45 44
87 87 87 87 89 90 91 92 92 93 90 89 91 92 91 90 90 89 87 86 85 83 81 78 75 74 73 71 67 68 68 65 63 61 58 55 53 54 51 48 47 45 49
94 96 97 97 97 97 98 100 100 99 101 100 96 96 96 96 96 94 95 96 93 89 86 85 82 79 80 77 74 73 70 69 69 67 65 62 59 59 58 57 54 52 52
99 100 102 103 104 104 105 105 107 106 105 105 104 102 101 99 100 99 100 100 98 95 91 88 87 84 84 86 84 81 78 75 72 72 71 65 64 64 65 64 62 59 59
100 102 106 109 110 111 108 109 109 108 106 105 106 106 107 107 105 104 103 102 102 98 93 95 96 93 91 92 92 89 88 87 81 78 76 74 71 70 70 70 69 65 64
94 96 98 101 104 104 106 108 108 108 108 109 111 110 110 110 107 108 105 104 101 98 98 98 98 97 96 96 93 95 93 92 90 86 81 81 79 76 71 71 73 74 68
91 94 96 98 101 103 105 109 108 107 107 107 109 109 109 108 108 110 110 108 106 101 98 96 97 98 96 98 97 97 96 95 93 94 90 86 86 84 82 76 75 76 76
90 92 96 101 106 108 107 106 104 104 104 102 100 101 100 102 104 108 106 105 105 104 99 102 101 98 98 101 103 100 96 93 99 97 93 92 91 89 86 85 82 82 82
91 95 97 98 99 102 102 100 96 95 93 91 92 95 95 96 98 100 101 99 99 93 89 89 96 100 103 107 110 108 101 96 94 95 98 96 94 96 96 94 92 87 85
83 82 83 81 80 80 80 80 79 79 77 75 76 77 83 89 93 93 92 92 90 86 83 80 79 89 90 94 95 99 98 98 96 97 101 105 104 102 101 100 99 96 92
68 65 63 59 58 58 59 59 60 59 60 61 62 64 64 72 73 78 79 79 81 81 85 88 87 84 87 85 87 91 89 88 89 95 97 100 103 106 108 108 104 101 98

GFSSE_250_spd_114.txt.gz
Wind_Speed
44 44 44 44 43 41 41 42 39 39 36 34 34 34 34 34 33 32 31 29 28 27 27 27 27 26 25 24 22 21 20 18 18 17 16 14 12 12 12 12 11 11 12
48 47 45 44 41 43 43 43 42 42 41 40 38 38 38 37 36 35 34 33 34 32 31 29 29 30 29 26 25 22 22 21 20 19 19 18 16 15 14 14 13 13 13
40 39 39 40 40 39 41 43 44 43 43 42 43 40 38 39 39 39 38 37 37 37 35 34 33 32 32 32 31 26 25 24 24 22 22 21 20 19 17 16 16 16 16
30 28 27 29 31 33 37 38 40 41 40 41 42 41 40 42 43 41 41 41 40 40 41 40 39 39 37 35 35 34 32 30 28 27 25 25 23 22 22 21 20 19 19
25 25 25 23 25 24 29 33 33 35 37 37 37 38 40 41 42 42 41 43 44 43 43 42 42 43 44 42 38 37 36 35 32 30 29 29 28 26 25 25 24 23 23
24 21 22 21 23 23 25 27 29 30 31 33 36 39 39 38 37 36 37 41 42 44 44 45 46 48 47 47 44 40 40 39 38 35 31 31 32 31 31 29 28 28 27
28 26 25 23 21 22 22 21 23 26 25 25 26 28 28 28 25 23 24 24 26 30 34 38 41 43 44 45 45 44 42 41 42 41 38 38 33 35 36 35 34 33 32
34 31 29 28 28 27 26 25 27 24 24 23 26 25 24 26 26 25 24 25 24 24 24 27 32 34 34 37 40 42 42 43 45 45 43 43 43 40 37 39 39 39 38
38 37 35 34 33 32 31 31 31 30 30 28 29 30 30 30 29 30 29 25 25 28 27 27 27 28 30 30 30 31 33 37 39 44 45 45 45 45 42 40 41 41 41
42 42 43 43 41 40 38 36 36 36 34 36 37 36 36 36 34 33 35 35 33 32 29 31 33 34 34 32 33 32 31 30 32 37 39 42 46 48 47 46 45 45 44
48 48 48 48 48 48 47 46 44 44 43 42 41 41 42 43 44 43 41 40 40 38 36 35 36 37 38 36 33 33 33 33 33 33 35 37 41 45 47 49 50 48 47
56 55 55 54 53 54 55 54 54 53 52 51 50 50 49 48 48 49 50 51 49 46 45 44 43 44 43 41 41 40 39 39 39 37 35 33 32 34 37 45 50 53 54
65 64 61 61 60 60 60 61 62 61 60 59 59 58 58 58 58 55 55 56 56 56 54 52 52 52 51 48 47 47 44 42 40 42 41 40 38 37 36 35 36 39 40
71 70 69 69 69 67 68 69 68 69 68 68 67 66 66 66 65 65 65 64 62 61 60 61 61 60 59 58 57 56 56 51 48 46 44 45 45 43 40 38 39 40 40
73 75 75 74 73 72 72 72 73 75 77 76 75 74 74 74 74 74 73 72 72 70 68 67 68 69 66 66 65 64 64 61 57 55 54 52 51 48 46 45 43 44 43
78 78 79 80 80 80 80 81 81 81 79 80 80 82 82 82 81 81 81 80 79 79 78 77 75 74 74 73 73 72 70 66 65 63 62 61 58 55 52 54 52 50 49
86 87 88 88 87 88 87 88 88 88 87 87 88 90 91 91 89 90 91 89 87 88 87 85 84 82 82 81 79 78 79 75 72 70 69 68 65 63 62 58 60 60 58
91 91 90 90 91 91 91 92 93 97 97 98 98 96 96 97 97 96 95 94 95 95 95 94 94 92 90 89 89 89 85 82 80 78 75 72 70 69 68 66 65 63 62
90 92 95 96 97 98 99 100 102 103 104 106 106 105 103 102 103 103 101 102 100 99 99 99 98 96 95 95 93 93 92 91 88 83 84 80 78 77 71 71 73 69 67
96 98 100 100 102 103 107 108 108 107 109 111 110 108 106 106 107 107 107 107 105 104 104 100 99 98 98 98 96 96 96 95 94 91 89 88 86 84 82 80 77 75 74
98 100 102 103 103 105 107 110 110 109 109 109 108 110 110 108 108 108 107 107 107 107 109 105 103 102 102 103 99 101 99 100 100 101 101 97 92 91 88 86 86 83 80
88 90 92 94 97 100 102 103 104 108 109 108 106 104 105 104 103 103 103 104 105 106 107 107 104 103 103 105 103 105 103 101 101 103 102 102 99 96 94 93 90 90 87
88 92 94 98 98 100 103 104 104 104 105 105 104 103 103 102 102 102 102 102 102 103 113 100 101 99 96 95 96 102 105 105 110 107 106 103 101 98 97 95 95 93 94
91 95 95 95 97 99 100 100 101 100 99 97 95 94 90 91 92 95 96 98 106 101 111 109 104 100 92 91 91 93 96 100 108 107 110 107 106 104 100 96 95 96 96
82 83 82 81 82 84 85 85 82 78 74 72 72 72 73 73 74 77 80 83 90 94 99 108 109 96 91 97 94 90 93 94 96 97 99 102 106 107 103 100 100 101 102
66 68 69 69 66 64 62 59 57 55 55 56 56 57 56 57 59 63 64 69 74 78 86 93 100 99 91 95 90 87 91 91 95 96 91 94 96 94 94 94 95 97 101

GFSSE_250_spd_117.txt.gz
Wind_Speed
38 38 38 38 40 41 41 43 43 43 41 40 38 35 33 33 34 34 34 33 32 30 28 26 25 28 27 25 26 26 24 23 20 19 18 17 17 15 14 13 12 11 11
40 40 43 44 46 47 46 46 44 43 42 41 41 40 38 37 36 37 37 36 35 34 33 32 30 30 29 30 29 27 26 25 22 22 20 20 19 19 18 16 14 14 14
41 43 45 46 41 40 40 42 41 38 43 43 43 42 42 40 40 39 38 38 37 36 36 35 35 33 33 34 33 32 30 29 28 26 26 24 22 22 21 21 18 17 17
44 37 34 31 29 28 30 33 36 36 36 38 41 41 41 41 41 39 38 39 40 39 39 40 40 40 38 38 39 39 37 34 33 33 31 30 27 25 25 24 23 21 21
29 26 25 25 23 22 24 23 25 28 32 33 35 37 38 38 36 36 38 39 39 40 40 42 42 44 42 40 40 41 42 42 38 36 35 32 31 30 29 28 27 26 25
25 25 24 22 21 20 20 21 22 24 26 27 30 32 35 37 38 38 38 39 37 35 35 38 38 40 41 42 43 43 45 44 42 41 41 38 35 34 32 32 32 31 30
26 26 26 24 25 23 20 21 21 22 22 25 25 24 25 25 26 28 28 29 27 25 25 26 27 29 33 34 37 41 44 46 45 43 43 42 40 40 38 37 33 35 35
31 30 30 30 28 27 27 26 25 25 25 26 26 26 24 24 23 24 25 27 29 26 25 24 25 27 28 27 29 34 36 38 40 40 42 44 44 43 44 43 41 38 37
36 35 35 35 34 33 31 32 31 30 30 30 30 30 28 30 31 30 29 29 29 28 28 27 29 29 27 27 26 26 29 31 33 32 32 35 40 43 46 47 47 45 42
41 42 42 42 40 40 40 40 39 37 36 34 35 35 36 38 38 37 35 34 35 36 37 36 34 33 34 31 31 31 31 31 32 33 35 34 33 35 40 44 47 46 48
48 47 48 49 48 47 47 47 47 46 45 45 44 43 43 43 42 41 42 40 43 41 42 42 42 41 41 40 34 34 35 35 34 35 36 36 36 37 35 37 41 44 48
55 54 53 53 54 55 54 54 53 54 54 54 54 53 52 52 51 50 50 50 49 49 48 48 49 49 49 46 43 44 43 42 42 41 39 39 39 38 37 36 35 36 38
61 61 61 60 60 61 62 62 61 61 62 63 63 62 62 62 62 60 59 58 56 57 57 56 56 56 55 53 53 53 51 50 49 47 46 43 41 40 42 41 42 41 40
68 68 68 68 68 68 68 68 68 69 69 69 69 70 69 69 69 69 67 66 65 63 64 64 64 64 64 63 61 60 60 58 58 56 56 53 50 48 46 44 45 46 44
72 74 73 74 75 75 74 74 74 75 76 77 76 74 74 74 74 75 75 75 73 72 72 71 71 72 72 71 70 68 68 67 66 64 63 62 61 56 54 53 51 49 48
77 75 77 77 77 78 77 77 79 80 80 82 83 84 82 82 83 83 82 80 79 78 77 79 80 78 80 80 78 75 76 76 73 71 69 68 68 68 62 60 61 59 56
84 84 85 83 84 85 86 88 89 90 91 91 91 93 95 94 92 91 88 87 87 87 87 87 87 87 86 87 86 85 84 82 81 80 78 76 75 74 75 70 67 66 65
88 89 88 90 91 92 93 96 97 97 99 97 96 95 94 94 96 95 93 93 96 96 95 95 95 94 93 93 91 91 90 90 89 87 87 87 84 82 82 80 78 75 72
89 88 89 91 92 92 95 96 96 97 99 100 101 101 102 103 101 101 101 101 102 101 100 101 102 102 101 99 99 97 97 96 96 95 94 93 91 90 88 89 86 83 80
87 91 92 93 94 96 97 100 102 105 107 108 107 108 109 106 106 105 106 105 104 105 105 103 102 102 103 104 101 98 100 98 97 98 99 99 97 97 94 92 92 88 87
87 89 92 95 97 99 100 103 105 107 110 110 110 111 110 108 106 104 101 102 104 102 102 101 102 103 103 102 100 98 97 98 100 102 100 99 97 99 99 97 97 94 91
79 83 86 90 94 96 98 100 102 106 108 108 105 103 104 104 102 100 98 97 98 97 97 98 99 102 102 98 98 100 93 97 97 99 102 104 104 103 102 102 100 100 99
82 84 86 89 94 96 100 102 102 103 106 105 104 103 100 98 99 98 96 97 99 99 98 101 103 103 108 108 112 93 94 100 103 100 101 101 103 103 103 103 103 102 102
84 86 88 89 92 95 96 95 96 95 93 91 90 89 88 86 85 85 85 88 90 91 94 98 104 107 108 114 117 104 102 96 97 97 102 101 98 99 100 101 102 102 103
86 86 82 82 83 82 81 79 78 76 74 74 71 70 67 68 67 67 67 70 72 72 78 84 87 94 98 103 109 114 112 92 93 85 92 104 102 102 104 105 106 106 104
71 71 68 68 68 66 63 59 58 56 55 55 56 55 56 55 54 56 57 59 60 61 67 71 75 79 82 89 95 101 108 104 94 84 80 96 101 105 108 109 108 108 107

GFSSE_250_spd_120.txt.gz
Wind_Speed
43 39 37 33 35 36 37 38 39 40 42 44 41 39 37 36 37 36 34 33 31 31 32 30 28 27 28 28 26 25 27 27 24 21 18 17 16 15 14 14 14 14 13
41 39 37 38 38 39 42 43 45 46 45 43 44 42 41 38 39 38 37 36 35 35 34 32 32 32 31 30 30 28 28 29 28 27 23 20 19 19 18 16 15 15 14
34 35 38 40 39 42 42 43 40 40 39 41 40 39 41 41 39 38 37 38 37 37 36 35 34 35 34 33 32 31 32 33 33 31 29 27 26 24 23 22 20 19 18
33 33 33 36 40 34 30 29 28 28 30 33 34 36 37 37 38 37 37 38 37 36 37 37 37 38 37 39 39 38 37 36 35 37 35 32 33 32 29 26 24 24 22
23 25 29 28 24 25 25 24 23 22 22 24 27 30 34 34 35 36 36 36 36 34 35 37 36 36 37 38 39 40 39 39 38 36 38 38 36 35 33 31 29 27 26
22 20 21 22 22 22 22 22 22 19 19 19 21 22 26 29 31 34 34 34 35 35 36 35 32 32 35 34 35 35 35 38 39 40 40 40 38 38 38 36 34 32 31
24 23 23 24 23 24 25 25 23 24 24 22 23 24 23 23 24 24 24 24 25 26 26 27 26 25 27 26 26 27 30 30 32 36 38 39 42 41 41 40 40 39 38
30 29 29 28 29 29 29 28 28 27 25 26 27 27 28 28 26 24 23 23 25 27 28 27 29 27 26 27 28 28 27 25 26 29 32 35 36 37 38 40 42 43 44
35 36 35 34 34 34 34 33 33 32 33 32 32 31 30 31 31 30 30 31 32 31 31 32 30 30 29 30 29 29 28 28 28 27 27 28 30 31 31 31 32 38 42
41 40 40 41 41 41 41 41 41 39 39 40 39 38 38 37 37 36 36 36 38 37 37 37 37 37 37 36 37 38 35 34 32 32 31 33 33 35 34 35 33 33 35
46 46 47 48 48 48 48 48 48 48 47 46 46 45 45 46 47 46 46 45 43 43 42 42 41 43 43 42 40 41 43 43 41 37 34 35 37 37 37 37 36 34 33
53 53 53 54 55 55 56 55 55 55 55 55 55 55 55 55 55 55 56 55 52 52 54 52 52 50 50 51 48 46 46 46 47 46 45 42 40 41 41 40 39 39 38
60 60 60 59 60 61 61 62 63 63 62 63 62 63 63 63 64 63 63 62 61 60 60 61 60 59 58 58 58 54 53 52 52 52 52 51 50 47 45 45 44 43 42
65 67 67 68 68 67 67 70 71 71 71 70 70 70 70 70 71 70 69 70 69 69 68 67 66 67 67 66 65 64 62 60 60 59 59 58 57 56 54 53 51 50 49
68 70 72 73 74 74 76 76 75 75 76 77 78 77 75 76 76 76 76 76 76 76 76 75 73 73 73 75 73 73 70 68 67 67 67 67 66 65 62 61 59 58 57
76 75 75 77 79 81 80 80 81 80 79 80 82 83 83 82 83 84 85 84 85 85 86 85 84 83 82 82 82 80 79 77 76 75 74 74 73 72 72 70 68 66 65
83 83 84 84 85 85 84 85 87 89 90 91 90 90 92 92 92 94 94 93 91 93 93 90 89 88 87 89 88 87 84 84 84 83 82 80 79 78 78 78 75 75 75
84 85 86 84 83 84 87 91 92 92 92 91 91 94 96 97 97 95 93 94 95 94 91 92 92 91 92 93 91 92 93 92 92 92 89 87 86 86 85 84 81 82 81
83 84 85 87 88 91 93 93 91 92 94 96 99 99 99 100 100 99 100 100 101 102 101 97 98 99 98 97 99 100 99 97 100 99 97 97 97 94 93 93 91 91 88
84 86 86 87 87 86 86 90 93 94 94 96 99 102 106 107 107 106 105 104 102 103 102 98 95 96 96 99 98 100 101 100 98 100 101 101 101 100 98 99 97 94 97
74 75 76 77 78 79 82 84 86 90 94 96 100 104 107 108 107 105 100 98 97 98 99 97 94 94 95 97 96 94 93 92 91 91 93 97 100 101 101 99 101 102 99
78 78 80 82 84 84 85 89 92 95 98 100 100 102 104 106 107 106 99 97 96 96 97 97 98 97 98 99 101 99 96 97 92 93 96 97 97 99 97 95 94 92 92
84 84 86 86 86 89 92 93 96 97 98 98 98 98 98 97 96 94 88 83 80 81 84 86 89 92 93 96 98 97 98 101 99 103 102 96 98 101 100 99 98 98 97
86 86 87 89 89 89 89 89 89 88 86 86 85 82 81 81 80 79 74 71 68 68 69 70 74 79 83 87 93 98 96 95 102 105 101 104 100 104 106 106 105 102 101
77 79 80 79 76 75 75 75 76 75 71 68 67 65 63 62 61 62 61 60 57 58 58 58 61 64 68 72 79 88 90 93 99 96 103 108 101 99 107 105 107 109 107
67 66 65 65 66 65 61 55 51 47 43 46 50 47 46 44 44 45 46 48 51 51 50 52 51 53 56 63 67 69 75 82 85 88 92 100 100 102 101 99 99 99 103